GFSWCAN_sfc_rhum_000.txt.gz
RH
67 70 70 67 65 66 65 60 64 65 64 65 64 66 64 68 74 89 95 97 99 98 90 76 76 90 92 88 90 94 94 98 99 99 98 98 98 93 93 83 91 91 92 90 94 95 80 72 70 80 63 71 73 76
67 71 68 66 67 66 66 66 66 66 65 66 64 65 64 64 73 82 96 87 91 100 93 91 82 81 74 72 86 93 91 94 93 98 96 92 94 96 91 92 88 93 79 83 82 76 65 75 72 71 69 71 82 79
71 72 67 68 67 66 65 65 65 65 66 65 65 66 64 65 69 80 96 95 96 98 92 95 90 85 82 78 75 92 95 89 97 98 97 95 90 94 95 92 91 86 83 87 79 75 79 75 78 78 78 83 85 81
72 70 66 69 66 65 64 65 67 67 66 66 66 63 65 66 71 75 94 92 96 98 98 91 88 92 94 92 88 84 92 96 98 99 99 96 90 88 91 87 90 85 84 80 81 75 70 73 78 82 84 80 76 74
74 67 70 68 67 66 66 64 63 63 62 62 62 62 64 67 71 81 89 91 87 99 98 97 91 98 98 96 95 93 95 97 98 99 98 98 94 93 96 93 93 81 80 78 84 70 67 70 77 77 79 80 72 71
73 70 71 68 67 66 65 64 62 62 61 62 61 61 63 67 71 96 98 99 94 98 100 96 93 99 98 95 96 97 97 98 99 98 98 97 87 90 97 97 76 78 75 74 72 77 81 83 77 81 79 76 71 71
72 70 70 69 68 67 66 65 64 63 61 61 64 63 64 66 87 95 92 97 86 94 99 100 97 96 94 89 95 99 98 99 99 95 99 98 96 93 96 96 75 79 75 79 80 74 76 79 77 78 75 78 77 78
73 66 68 67 69 68 67 66 65 63 60 61 65 67 69 72 74 92 87 84 86 98 99 100 100 98 95 98 99 98 98 99 99 98 98 98 93 93 98 86 84 83 82 81 84 82 74 81 83 83 76 70 73 77
70 65 71 68 68 68 68 68 66 62 67 72 70 75 90 92 96 96 84 89 91 99 99 99 100 99 97 98 97 99 98 99 98 99 98 98 96 98 86 83 84 80 76 82 86 81 79 78 82 78 72 70 71 78
75 64 72 68 69 70 70 68 62 63 68 68 89 92 99 94 81 88 98 99 100 100 99 99 95 97 95 98 99 98 97 99 100 97 95 99 98 81 78 72 71 76 79 78 82 91 90 88 84 77 70 66 67 72
74 65 65 68 70 71 70 66 63 67 71 94 98 98 96 85 97 99 100 100 99 100 99 98 95 92 96 98 97 96 99 100 100 94 98 98 95 90 84 86 82 75 72 72 72 71 70 67 72 70 71 71 71 70
73 69 68 69 70 71 66 64 68 85 93 91 91 89 98 98 100 100 100 100 97 96 99 98 98 94 97 94 95 96 98 99 93 95 99 97 89 88 86 90 87 79 74 71 71 71 69 65 62 64 69 70 74 73
72 71 70 70 71 68 68 70 67 70 78 93 96 100 99 99 99 99 99 99 100 100 100 99 99 96 95 94 96 94 96 94 92 99 97 95 94 87 86 90 90 86 76 73 72 69 66 73 72 68 78 77 71 70
72 72 71 72 69 68 72 69 67 83 95 96 98 94 98 97 99 99 99 100 96 100 100 98 98 97 89 95 94 97 94 93 99 99 92 93 91 84 90 92 90 87 77 74 73 72 76 77 84 83 81 77 72 76
72 74 74 70 68 74 71 70 77 96 99 94 97 98 98 100 100 100 100 100 98 100 97 95 97 84 97 96 93 96 98 98 97 92 92 94 93 94 94 92 89 82 81 84 82 78 83 83 84 92 88 83 79 79
72 73 75 66 75 72 71 90 96 98 100 99 98 99 94 98 98 95 100 100 98 99 98 98 94 93 91 95 97 98 98 97 86 94 95 95 89 92 92 90 86 81 78 76 74 74 76 80 82 89 85 82 77 71
70 90 74 76 76 73 78 97 99 99 96 90 99 97 97 97 98 98 97 94 85 99 100 98 92 85 94 99 97 93 90 88 93 95 99 99 97 93 91 87 83 79 77 75 74 74 79 77 74 75 82 76 67 65
83 88 79 79 75 85 89 100 98 95 93 94 99 99 96 92 88 88 88 94 98 100 98 99 89 99 93 93 93 90 92 98 100 100 98 96 90 90 86 87 82 79 78 78 73 78 78 77 78 79 82 79 76 71
82 88 77 72 78 94 97 91 97 95 95 90 85 88 87 93 92 87 85 94 98 98 100 99 94 96 94 95 93 96 98 98 96 97 96 92 90 90 88 88 87 84 84 82 72 69 70 66 70 69 63 60 64 63
74 74 75 71 78 95 90 93 96 94 96 96 92 91 92 93 94 96 91 97 99 100 100 99 94 84 90 93 97 98 98 94 96 96 95 94 94 92 91 87 85 84 83 81 74 70 67 68 62 60 61 60 60 62
80 85 79 84 95 93 91 93 97 96 92 90 88 98 98 99 99 99 99 99 99 99 99 99 98 92 87 92 92 94 94 95 94 90 92 99 95 93 93 91 85 75 73 71 68 69 67 65 65 60 60 57 54 52
93 75 86 82 94 92 97 88 98 98 96 93 99 100 98 98 100 100 99 99 99 97 96 95 96 96 95 88 88 90 91 92 90 91 84 86 96 96 94 88 81 84 81 79 70 66 68 66 63 58 55 55 56 57
77 75 90 90 80 74 75 90 95 100 99 99 100 99 98 100 98 97 99 97 97 94 93 95 96 97 97 97 97 91 91 91 95 95 93 94 93 91 90 85 82 85 89 88 73 74 75 67 62 59 57 55 56 56
62 84 78 80 83 72 69 92 85 98 98 99 100 98 92 100 97 99 99 99 88 81 85 94 92 92 95 97 97 97 95 91 94 92 89 89 94 96 87 83 79 75 74 75 74 73 70 62 64 56 55 64 60 52
77 74 79 70 91 81 85 97 100 97 100 100 100 100 96 99 100 100 100 97 98 92 88 88 90 90 92 94 96 96 98 92 92 94 95 84 83 82 86 80 74 74 72 81 79 77 76 70 69 71 69 66 69 72
86 80 82 77 86 78 86 82 98 96 99 100 100 97 100 98 99 97 97 97 96 98 95 90 88 86 82 89 94 95 96 97 91 92 98 79 76 84 91 91 92 91 82 71 80 82 78 74 73 74 71 67 68 77
90 82 71 61 74 78 88 86 83 97 100 100 100 99 100 100 100 93 97 97 98 97 91 92 93 92 91 90 93 94 95 97 97 97 96 96 96 84 82 88 90 86 73 76 77 72 73 72 70 72 78 78 77 74
82 74 92 96 98 98 89 98 100 99 98 91 93 100 100 95 91 96 96 97 98 92 94 92 91 94 94 94 96 95 96 96 95 93 92 93 95 96 96 93 89 85 84 79 71 67 67 70 75 78 74 77 84 86
93 86 93 100 100 100 99 88 90 94 83 96 94 96 95 95 98 98 96 97 97 98 98 95 94 97 97 96 96 97 97 96 94 95 93 94 94 96 96 95 94 93 86 80 80 84 83 76 71 71 75 78 86 86
97 94 96 100 97 93 91 96 99 97 89 81 78 96 96 97 96 98 99 99 100 97 95 96 97 98 97 97 96 96 96 97 96 83 89 93 94 95 95 95 93 92 92 91 86 79 78 77 78 76 80 81 80 81
97 97 99 99 97 98 98 94 94 74 94 100 96 99 98 97 96 98 100 100 97 97 97 97 97 96 97 96 97 96 96 96 95 95 93 93 94 94 94 94 94 93 90 86 81 76 73 74 76 77 76 82 83 89
99 98 97 100 100 99 98 100 100 100 100 100 100 100 99 99 100 97 98 98 97 96 94 95 95 95 96 96 96 96 93 94 94 94 94 93 93 94 93 93 91 81 74 72 72 72 74 75 76 78 82 86 86 85
98 99 100 100 100 100 99 98 100 100 100 100 100 100 100 99 97 96 98 98 96 96 95 96 96 95 95 95 95 94 94 95 94 94 94 94 91 87 79 77 74 70 68 69 71 71 74 79 80 83 85 86 87 88

GFSWCAN_sfc_rhum_003.txt.gz
RH
65 64 69 66 66 65 64 63 64 65 65 65 64 64 68 66 67 84 92 93 98 98 94 83 86 91 92 92 91 89 95 97 99 98 99 98 90 92 94 83 90 90 97 97 92 96 80 72 84 86 65 67 70 72
65 69 70 65 67 64 63 64 65 66 66 65 64 65 66 65 66 76 94 86 88 99 95 93 84 81 75 73 86 92 90 90 93 98 97 95 97 90 92 92 89 95 79 83 83 74 62 69 68 66 69 72 73 79
70 71 70 64 68 65 64 64 64 62 61 61 61 61 62 62 65 74 94 95 93 99 92 94 89 82 86 82 75 92 96 84 94 98 99 93 98 88 96 94 90 86 84 88 80 74 75 73 68 75 80 78 80 78
69 74 71 69 68 66 65 64 63 62 61 60 60 61 63 62 65 70 95 92 93 97 99 90 88 93 95 92 88 81 88 94 96 98 96 98 97 88 92 87 91 85 86 82 83 75 75 74 75 79 83 80 77 73
72 73 71 68 66 67 66 66 65 64 63 62 62 62 64 64 65 78 86 90 90 95 98 97 92 96 98 96 94 93 92 95 99 99 98 95 91 91 96 94 94 87 80 82 81 71 70 70 76 79 79 81 74 70
72 74 71 64 66 66 66 67 67 66 64 64 62 59 63 64 65 91 96 98 92 95 99 100 96 98 98 94 97 98 97 98 98 97 95 93 85 87 98 98 78 80 78 76 73 77 78 83 77 78 79 78 74 73
73 74 62 62 70 67 65 67 65 67 66 64 64 66 70 68 85 93 94 96 87 92 99 100 96 95 95 94 96 97 98 99 99 96 97 98 99 97 98 99 72 80 79 73 74 75 78 81 75 75 75 77 75 72
74 75 72 62 71 68 64 64 68 67 66 65 70 72 70 72 76 91 91 86 92 97 96 100 98 93 95 95 99 98 99 99 99 97 98 99 96 96 99 85 84 83 81 78 81 83 78 82 81 83 75 70 73 74
75 77 73 63 70 67 70 69 69 70 64 71 72 74 91 92 94 95 78 82 96 99 100 99 99 95 98 98 97 99 99 99 96 99 98 98 97 99 86 84 82 85 78 76 87 85 84 82 83 77 72 70 71 73
77 77 74 67 63 67 70 69 68 65 67 68 88 92 98 93 80 85 98 99 100 100 100 99 95 96 95 98 100 98 98 98 100 96 97 99 98 81 79 78 73 81 80 80 84 95 92 91 86 75 69 63 63 66
75 78 73 69 70 67 70 68 67 68 73 91 94 97 93 84 97 96 100 100 100 100 99 97 95 93 96 98 98 96 99 100 100 94 98 98 97 90 85 85 78 76 73 71 72 71 71 67 70 69 71 72 74 73
75 78 72 72 70 71 69 67 69 87 92 92 93 90 97 98 100 100 100 100 100 97 98 98 98 94 97 96 97 97 99 99 98 94 99 96 92 86 86 88 89 76 74 70 72 72 72 68 65 65 71 74 74 72
76 77 72 72 72 71 68 71 69 67 82 92 93 95 98 99 98 98 98 99 100 100 100 100 99 96 96 95 98 96 99 96 93 98 95 95 93 87 85 89 89 80 72 72 75 74 70 74 71 66 72 69 66 67
77 77 73 74 72 69 73 70 70 81 92 88 95 99 98 98 98 99 99 100 99 100 100 99 98 95 95 96 97 97 94 95 95 99 97 94 89 79 88 90 90 86 77 76 76 75 78 78 81 77 72 68 62 65
79 76 74 72 70 74 72 71 80 96 98 94 93 100 100 97 99 99 100 100 100 99 100 98 98 91 98 96 96 96 98 95 91 96 93 94 93 92 91 91 89 81 81 83 83 82 85 82 79 86 82 73 68 70
78 75 78 65 74 74 71 88 94 98 100 98 92 98 86 96 99 93 97 99 99 98 99 99 99 94 92 95 98 98 99 97 87 95 95 94 86 90 91 90 86 79 75 76 76 78 80 79 78 84 77 73 71 68
75 89 74 74 78 76 74 97 98 94 96 95 97 95 90 96 99 90 83 89 90 99 100 100 99 86 94 99 99 96 93 89 92 96 99 99 96 93 91 86 83 80 77 75 78 77 82 82 75 71 78 75 71 68
93 85 74 79 79 84 88 99 88 91 90 92 97 96 89 94 98 96 92 87 96 99 100 100 99 100 96 100 95 92 94 97 100 100 99 96 91 91 88 89 86 83 81 80 81 85 82 78 74 76 79 80 77 72
90 88 77 73 80 94 96 94 93 92 92 89 87 84 85 88 94 95 94 90 88 93 100 100 99 99 94 97 96 95 96 98 92 94 95 92 91 92 90 90 92 90 87 87 80 74 72 68 69 69 66 63 66 64
78 76 76 71 80 96 93 98 92 94 95 94 90 90 88 90 93 98 98 94 99 98 100 99 99 98 95 97 98 97 95 93 96 94 92 94 94 96 93 90 90 89 85 84 78 70 69 70 65 63 62 61 62 64
77 87 78 85 96 96 95 93 97 95 90 90 85 91 98 93 97 93 97 98 98 94 99 98 95 88 93 97 98 96 92 95 96 93 89 99 96 96 96 94 87 79 77 74 72 72 66 66 64 60 60 58 57 55
94 74 87 83 94 97 96 87 97 95 96 98 93 96 100 96 98 100 99 99 98 98 95 90 92 91 87 88 94 98 95 92 92 91 84 88 97 97 96 90 84 86 82 80 70 66 66 62 60 55 54 55 55 57
77 75 90 88 83 80 81 89 98 98 99 100 100 100 100 100 98 98 97 98 98 99 96 93 93 94 95 93 97 98 99 96 95 94 94 95 94 95 91 87 85 86 87 84 72 70 71 63 58 56 56 56 57 57
63 85 84 82 86 78 71 92 87 99 100 100 100 100 91 100 97 100 99 99 96 94 95 96 94 89 77 88 94 95 97 98 97 94 93 96 98 97 87 84 80 80 74 73 73 71 65 58 60 55 55 62 58 51
80 78 81 74 92 83 84 93 100 98 97 100 100 100 98 99 100 100 100 97 98 97 97 95 87 84 91 82 86 90 94 97 97 97 97 91 93 92 92 84 78 75 72 80 78 75 73 68 65 68 66 63 64 69
82 81 77 75 90 81 83 86 97 95 98 100 99 99 100 98 99 99 96 98 95 97 98 98 93 92 84 77 88 87 90 94 96 97 96 96 87 87 91 90 90 87 71 70 74 77 76 76 73 73 69 66 66 71
90 85 71 58 70 74 87 86 82 96 100 100 99 100 99 100 100 90 97 98 98 98 98 97 96 97 95 87 81 86 92 96 96 97 98 97 96 84 83 86 86 81 70 75 82 80 80 77 72 70 71 72 72 74
83 75 88 96 98 97 89 99 99 98 95 90 92 99 98 97 88 92 95 96 98 99 98 94 94 95 96 93 89 91 95 96 97 97 96 96 96 98 96 90 90 88 90 87 83 81 76 70 71 74 74 80 87 78
94 86 93 100 100 100 97 86 86 91 80 96 93 95 93 93 96 97 95 97 100 100 100 98 93 96 96 96 94 96 96 96 96 96 96 96 97 98 96 95 96 95 94 90 86 78 75 72 73 79 82 79 79 80
97 93 96 100 96 94 90 95 97 99 89 81 80 96 96 96 96 99 99 99 100 99 99 98 96 97 96 97 95 96 96 96 96 96 95 95 95 96 94 95 95 95 94 93 93 89 85 87 86 80 78 75 75 81
97 97 99 99 98 98 98 94 95 75 94 100 96 99 98 97 95 98 100 100 100 100 100 99 98 98 97 97 97 96 96 96 97 96 95 94 95 95 95 95 94 94 93 89 88 89 87 85 82 79 74 78 79 84
99 99 97 100 100 99 98 100 100 100 100 100 100 100 99 99 100 97 98 100 99 97 94 96 96 96 96 96 96 96 93 96 96 95 95 94 94 94 94 94 94 93 92 92 90 84 81 79 78 76 80 84 85 87
98 99 100 100 100 100 99 98 100 100 100 100 100 100 100 99 97 94 97 99 99 99 98 96 96 96 96 96 96 95 94 95 94 92 93 93 92 94 94 93 93 91 83 72 71 72 73 77 77 79 81 82 84 89

GFSWCAN_sfc_rhum_006.txt.gz
RH
63 63 65 70 61 64 63 62 62 62 60 60 61 62 62 63 64 77 89 88 94 98 88 76 66 72 77 69 72 79 85 92 97 97 92 85 87 65 71 59 67 64 79 86 76 76 78 51 60 56 50 52 54 58
64 64 69 67 62 65 63 63 63 61 60 59 59 58 59 62 63 69 84 84 86 98 92 83 75 69 62 60 79 80 82 81 85 94 92 94 83 73 68 61 61 71 58 55 59 51 46 48 50 47 51 55 55 60
66 67 72 71 67 64 64 64 63 63 62 60 58 58 59 59 60 66 84 88 92 97 94 89 72 71 72 74 64 77 92 73 87 91 95 94 96 88 73 67 63 62 60 65 64 50 52 48 48 51 57 59 60 65
64 69 71 71 67 64 67 63 64 64 63 62 61 60 60 62 62 64 83 81 90 97 99 81 79 78 82 81 72 69 74 84 90 96 94 92 95 66 70 66 66 58 66 63 62 52 49 50 50 56 61 59 59 58
66 68 71 72 64 65 69 64 63 62 63 63 63 63 61 63 65 69 77 78 83 95 98 90 79 86 87 83 81 79 78 83 92 94 98 94 77 89 69 73 68 58 55 54 47 52 49 50 56 59 59 60 58 58
67 69 72 71 62 62 68 63 64 67 65 64 65 64 64 65 66 79 91 97 92 92 98 96 86 90 86 83 85 90 90 87 91 96 94 87 75 84 84 76 54 50 53 49 46 51 54 59 57 57 59 62 57 55
68 70 74 75 66 62 66 62 64 63 63 64 65 64 65 67 80 85 86 96 85 93 98 99 92 90 92 89 91 90 89 95 97 95 97 90 87 97 96 79 55 54 53 53 54 54 59 60 55 58 59 60 59 52
68 71 74 76 69 62 64 64 65 66 66 65 65 66 69 74 72 85 75 81 92 97 96 100 95 87 92 93 89 88 96 98 98 96 96 99 93 97 98 70 59 58 60 58 57 59 60 59 60 64 61 57 58 56
68 72 76 77 72 66 64 64 67 67 66 66 68 74 85 87 86 90 80 81 97 99 100 99 98 96 93 92 88 99 97 99 92 99 98 97 86 97 79 66 61 60 61 58 69 64 63 61 64 65 61 58 58 57
70 73 76 77 70 68 68 63 66 67 67 69 80 84 96 86 76 85 97 97 100 99 99 98 77 90 81 87 97 91 94 98 100 91 96 99 97 73 66 63 59 57 62 69 76 94 100 99 87 67 63 54 52 53
69 71 75 78 72 71 71 66 67 70 73 86 91 96 87 82 96 95 100 100 99 100 97 90 78 81 84 90 90 87 95 100 100 90 95 97 84 70 66 65 66 59 59 60 56 57 59 58 60 60 57 54 54 53
70 71 76 77 72 71 65 69 69 84 88 84 91 92 93 98 100 100 100 100 97 96 96 96 85 80 89 87 91 94 100 98 100 81 96 93 76 75 66 67 73 63 59 61 56 59 58 58 56 55 60 58 57 59
70 72 77 76 72 72 70 70 69 71 81 84 83 97 93 97 94 95 97 99 100 100 100 99 99 88 90 86 92 93 100 96 80 97 89 82 78 70 66 72 75 66 62 61 66 66 62 64 64 58 62 60 58 57
71 74 79 76 73 69 72 70 72 82 83 88 92 94 96 96 94 97 99 99 100 100 100 99 98 95 89 97 88 100 85 85 96 98 94 88 75 64 66 76 75 70 64 65 68 68 74 72 71 68 66 63 58 59
72 77 81 76 69 73 73 69 78 94 91 90 92 98 94 88 95 100 100 100 99 99 99 99 99 84 98 98 85 96 97 95 85 86 86 85 77 73 75 79 76 69 66 71 73 74 73 73 64 70 69 63 55 55
74 79 81 68 72 75 70 86 89 94 100 95 93 95 86 93 92 91 94 94 99 98 100 100 100 99 100 96 98 99 95 95 88 99 86 70 69 72 77 78 74 67 63 66 66 67 66 64 64 65 59 55 54 53
76 89 71 71 76 74 78 95 94 91 88 86 94 90 92 91 95 91 72 75 78 98 100 100 100 100 96 97 98 92 93 95 96 91 79 86 83 77 77 76 74 69 66 66 68 66 66 65 60 60 64 60 57 53
94 81 74 74 79 78 81 94 92 88 87 87 90 88 78 83 87 83 78 77 82 96 100 100 99 99 96 98 94 89 89 91 85 84 85 83 79 76 78 75 74 72 70 71 73 80 78 73 67 64 73 72 70 64
89 84 77 74 80 86 88 92 92 94 92 86 84 79 79 81 80 82 82 80 78 84 99 100 100 97 88 85 91 96 94 91 90 84 78 77 78 78 79 83 86 84 85 84 76 72 67 60 62 63 62 56 58 55
83 80 75 73 76 88 92 95 89 90 94 87 85 88 83 84 80 86 90 93 91 99 100 100 95 95 94 91 94 94 91 86 86 82 78 72 76 87 88 84 78 83 80 82 77 70 65 65 60 58 57 58 56 57
81 85 75 81 90 89 88 91 93 91 91 88 84 85 94 86 94 94 94 94 92 84 94 93 88 84 82 79 79 91 86 89 89 86 82 87 75 81 82 84 84 72 72 72 69 67 64 63 61 59 60 54 51 49
90 76 77 77 89 96 91 88 93 92 94 94 88 90 97 94 95 98 96 98 98 93 86 78 80 82 78 78 79 85 90 92 90 91 85 82 85 86 86 85 83 85 81 81 68 65 62 58 57 54 51 52 52 53
75 70 79 80 81 78 87 84 94 94 99 99 97 100 97 98 96 94 97 87 89 84 81 82 86 85 85 81 86 87 89 92 89 87 90 81 80 84 85 84 80 89 87 76 69 69 69 62 58 52 52 53 54 56
62 77 80 80 80 80 69 90 83 95 96 100 100 99 93 94 92 99 96 94 83 81 79 87 77 69 63 71 69 71 80 85 87 86 94 93 90 84 80 78 73 74 73 71 71 70 64 55 58 52 51 59 57 50
77 83 79 79 90 83 88 88 97 95 95 99 100 96 94 93 98 100 98 94 90 80 81 79 72 71 74 70 71 70 72 78 90 90 86 97 95 90 88 80 72 71 71 80 74 72 70 65 62 63 64 61 61 65
89 87 79 77 85 77 78 83 96 91 93 100 98 92 97 97 100 98 91 88 80 83 81 76 74 75 73 71 76 75 73 71 86 90 82 96 96 96 96 92 88 84 69 68 73 74 72 68 69 72 66 65 64 67
93 90 69 51 60 65 76 79 75 87 100 89 89 98 96 100 99 84 77 84 83 87 85 83 83 86 86 82 76 74 75 79 90 89 85 93 95 97 96 94 90 76 69 69 68 68 72 76 76 70 68 66 65 65
79 71 81 88 92 86 87 93 93 91 82 78 85 99 94 94 79 80 85 83 88 90 91 89 87 90 91 89 87 86 89 86 88 92 94 95 95 97 98 97 92 75 73 71 76 85 84 80 77 71 70 71 78 76
89 78 86 100 100 100 90 81 80 78 69 89 88 86 85 82 86 85 81 86 92 94 95 93 88 92 92 90 92 93 94 94 95 93 93 94 95 95 97 96 96 95 93 95 93 90 88 86 80 71 73 76 83 86
97 88 89 98 92 90 87 88 91 91 83 78 76 88 88 89 90 90 90 93 95 94 95 96 96 98 97 97 94 91 91 93 92 92 94 95 94 95 97 96 96 96 95 94 94 96 93 87 87 80 81 84 83 82
92 94 96 94 94 95 96 90 92 72 92 98 94 97 94 94 89 90 93 94 96 99 100 98 96 96 98 97 97 96 93 91 94 94 95 96 95 96 96 96 95 94 94 93 92 91 91 79 79 84 86 87 84 77
96 97 96 100 100 96 96 99 100 100 100 99 98 99 96 95 96 90 91 99 96 95 95 96 98 94 93 94 94 94 87 95 92 95 96 95 95 95 95 95 95 94 94 93 93 91 88 90 90 86 86 88 84 84
96 96 98 99 100 100 98 97 99 99 99 100 99 98 98 95 95 89 88 96 97 97 98 97 97 96 96 97 96 94 90 93 94 92 93 93 92 94 94 94 93 93 93 92 92 92 92 87 85 85 85 86 88 92

GFSWCAN_sfc_rhum_009.txt.gz
RH
68 63 62 66 70 65 64 63 63 62 61 61 59 59 58 60 61 65 71 74 87 97 86 65 52 54 65 60 74 75 81 82 87 92 98 96 96 61 61 48 61 66 78 81 82 92 79 41 45 58 51 46 48 54
66 64 69 68 71 68 62 66 63 63 63 62 61 59 58 59 60 62 74 63 80 96 88 77 66 64 62 53 54 72 75 69 74 91 94 94 96 64 55 60 47 61 46 51 52 49 38 40 45 41 45 50 48 53
69 66 65 70 72 67 60 68 65 62 62 62 61 61 60 58 57 62 68 70 77 96 90 94 68 59 61 60 60 67 75 76 69 80 96 94 97 86 88 60 54 49 44 56 56 41 42 39 38 44 49 51 51 54
67 67 64 69 72 64 61 64 66 64 65 65 62 61 57 61 60 62 73 67 81 92 98 84 72 68 70 69 68 70 66 73 83 94 96 95 93 72 68 62 62 55 57 54 52 45 40 44 46 49 51 51 57 53
67 68 66 69 73 67 63 60 66 62 67 62 65 62 64 62 62 65 62 62 66 85 98 91 71 82 77 71 68 66 63 70 89 97 98 93 88 77 59 66 64 47 50 56 46 43 45 46 48 49 50 53 53 53
68 68 68 70 73 73 65 62 66 66 69 63 64 67 66 63 62 70 81 91 77 77 98 97 78 85 81 75 76 75 74 83 96 94 95 90 75 83 89 71 42 35 35 36 40 43 46 49 50 48 51 52 51 53
69 70 70 71 74 74 68 63 62 64 66 68 65 65 65 65 77 83 77 97 87 92 97 99 94 89 85 83 88 90 87 95 91 96 97 88 84 97 88 74 45 41 43 42 44 47 52 53 51 52 53 52 53 49
72 71 69 72 74 75 70 67 66 64 68 67 66 67 71 74 72 79 69 75 85 96 95 100 92 85 85 90 86 85 92 94 97 95 93 94 95 93 93 64 53 48 44 50 49 48 52 50 52 56 54 51 53 52
74 72 71 73 75 76 67 68 69 68 67 68 67 72 81 76 73 88 76 81 95 98 100 98 98 96 88 84 86 95 90 94 91 98 95 96 93 96 71 63 56 50 57 54 57 56 56 57 58 59 55 52 52 52
75 74 72 72 75 77 71 71 68 68 70 68 69 75 92 79 79 81 91 98 100 99 98 94 69 89 79 80 86 83 87 93 100 78 83 99 96 67 55 51 51 54 52 62 75 92 100 100 83 59 57 49 48 50
75 75 72 73 76 77 72 66 69 70 63 75 82 87 75 77 92 96 100 100 99 100 94 86 62 69 74 82 78 81 93 99 100 85 84 88 77 59 59 54 54 57 54 56 50 51 58 55 58 57 54 50 49 47
77 78 73 73 77 75 70 70 70 71 75 78 87 86 83 98 100 100 100 100 98 100 92 84 77 65 81 82 86 88 100 96 100 74 91 92 72 72 61 58 59 62 57 55 52 53 53 53 52 52 51 51 48 47
83 81 74 73 78 73 71 70 69 70 78 74 81 98 91 98 96 96 93 98 100 100 100 99 98 81 82 84 90 90 100 96 76 95 88 77 75 65 54 59 68 63 58 56 59 58 57 59 59 54 55 49 50 49
84 82 74 75 80 71 71 72 67 77 75 85 93 91 98 97 89 94 97 98 100 100 99 98 98 94 82 98 83 99 85 80 95 96 92 91 79 63 58 66 73 68 62 62 64 64 71 69 66 61 59 55 49 50
85 79 74 78 78 70 74 70 73 83 81 90 94 93 91 86 94 100 100 100 100 99 99 99 100 80 99 100 82 95 96 95 83 84 86 85 76 66 66 70 70 67 64 69 70 72 70 71 63 67 66 58 52 53
85 75 77 77 70 74 71 77 78 83 100 99 93 96 84 93 96 92 97 96 96 88 100 100 100 100 100 98 97 96 92 93 91 100 90 74 72 67 67 69 69 63 59 61 62 62 63 61 63 63 57 52 50 50
80 90 70 69 72 71 76 86 90 95 91 87 90 82 86 89 90 80 61 60 63 90 100 100 100 100 100 99 98 90 96 96 96 93 81 80 83 75 70 74 74 68 61 61 63 62 62 58 57 55 57 54 53 50
89 80 74 72 78 70 75 93 96 86 88 85 90 84 75 72 76 67 64 64 75 88 99 100 100 100 97 97 94 90 90 95 86 80 77 71 69 68 72 75 73 71 68 67 69 76 74 71 66 62 68 67 65 59
80 81 75 79 75 77 84 90 95 91 86 82 78 73 73 73 69 68 70 67 70 70 87 99 100 96 89 92 92 92 90 89 89 81 75 65 67 70 79 87 88 85 86 82 74 69 66 61 59 62 60 53 54 52
76 83 82 77 68 82 83 91 87 87 90 84 79 85 79 76 70 75 80 87 84 91 97 93 90 89 86 89 92 91 87 82 82 85 77 65 64 81 88 88 77 81 78 79 78 65 62 62 58 56 53 53 54 56
92 92 81 79 86 84 82 87 89 85 84 84 80 82 85 82 88 91 91 93 94 87 84 68 77 75 75 72 71 80 80 74 80 84 88 90 77 76 78 78 84 74 74 72 70 65 62 59 58 54 57 53 53 52
99 78 76 74 82 91 88 84 87 86 90 87 86 86 92 92 91 91 94 94 94 85 76 70 71 67 57 55 58 63 66 75 82 81 81 79 86 85 81 80 86 87 84 84 70 67 60 57 57 56 53 52 52 52
85 69 78 78 80 79 83 82 94 91 93 90 91 93 92 94 91 91 97 83 80 74 70 70 78 77 74 71 76 73 72 76 74 75 75 76 77 84 87 84 83 91 90 81 73 70 70 60 59 53 53 52 54 58
62 78 81 79 76 77 68 87 77 88 90 88 88 79 87 91 89 95 92 82 76 75 77 84 66 60 54 66 61 54 60 65 69 70 70 74 84 80 82 89 73 77 79 76 73 71 65 58 59 54 53 60 60 55
92 93 82 84 84 80 83 87 89 87 88 90 90 85 89 89 91 93 91 81 85 77 77 73 67 64 62 57 57 56 60 63 70 77 74 74 76 80 85 93 95 82 74 83 78 76 73 66 63 64 64 65 63 65
95 93 85 78 81 77 71 83 89 88 82 93 90 84 92 90 95 88 77 80 72 75 77 75 67 62 58 57 62 64 61 59 67 78 76 75 78 88 94 93 94 94 77 72 76 76 72 69 67 72 67 66 63 65
96 96 66 48 52 56 61 64 61 73 89 85 80 92 92 95 90 74 62 69 72 79 76 73 71 73 74 71 66 66 66 72 83 81 73 77 81 80 91 94 95 94 96 92 76 70 71 69 72 78 82 71 67 63
78 70 82 77 73 74 82 78 82 85 74 63 74 93 91 82 72 73 76 77 81 82 82 80 77 80 83 83 81 78 82 81 85 87 86 84 83 86 89 92 97 97 97 97 82 68 67 71 78 89 86 81 81 74
85 73 74 92 90 86 83 75 73 66 55 76 82 78 78 70 77 78 75 78 83 85 87 85 84 86 88 86 87 89 90 91 95 95 94 88 84 88 93 96 98 97 97 97 90 72 80 86 90 90 86 85 84 83
94 78 79 91 88 85 82 77 82 83 74 72 70 74 75 78 80 82 82 85 88 89 88 91 92 96 96 95 93 89 82 85 91 93 92 89 85 88 95 97 97 97 96 96 96 96 95 95 95 93 90 86 84 86
84 85 88 81 86 89 89 82 84 66 85 90 88 90 85 88 80 81 84 84 88 93 94 94 94 92 94 93 94 93 90 81 88 91 91 90 88 90 94 97 97 96 96 95 95 94 92 93 93 91 84 85 86 87
90 93 91 94 93 92 90 93 94 92 92 92 89 94 89 89 90 81 84 92 93 90 87 90 92 92 89 91 92 92 87 89 90 90 91 90 91 92 96 96 96 96 95 94 92 91 92 93 91 87 88 92 92 91
94 93 94 92 95 95 93 92 92 93 94 93 90 90 90 88 90 80 81 90 91 91 91 92 93 94 94 95 95 94 89 92 94 84 84 87 89 94 96 95 94 93 93 93 93 93 94 94 93 93 94 92 92 93

GFSWCAN_sfc_rhum_012.txt.gz
RH
70 67 69 66 70 69 70 66 64 64 63 64 63 62 60 59 59 69 76 84 90 96 86 71 69 75 73 73 88 86 89 87 93 91 96 95 97 80 80 64 76 80 87 93 93 98 94 56 61 77 67 66 59 61
70 70 70 67 66 69 73 64 64 69 65 65 63 61 60 60 58 60 76 66 76 96 89 76 70 69 73 75 75 80 82 78 84 93 96 93 92 92 78 80 58 70 63 70 73 72 50 54 56 59 59 65 64 66
72 71 72 67 66 69 72 60 59 67 68 62 64 62 63 58 59 61 82 75 88 94 85 93 82 65 64 69 71 83 87 76 81 89 94 94 98 90 95 81 76 62 53 74 68 56 59 58 56 60 63 67 66 66
75 75 74 70 70 69 72 69 62 65 67 62 61 60 61 61 62 59 84 77 84 94 99 87 71 78 76 76 75 76 78 81 88 92 96 90 97 83 86 80 78 71 65 70 70 61 66 62 64 63 61 65 69 63
78 78 68 71 70 69 72 75 65 60 67 65 66 64 65 65 65 68 77 72 70 93 99 96 78 82 82 79 74 75 73 84 95 99 98 91 89 89 79 75 79 66 73 78 77 59 62 70 65 62 63 66 63 65
76 74 68 72 71 71 73 76 70 66 64 64 65 69 66 66 64 82 84 90 77 78 99 100 87 89 83 83 78 78 80 81 93 96 95 91 79 87 97 81 60 53 53 51 56 59 61 63 61 59 63 64 63 65
76 77 72 72 68 70 73 77 69 64 66 66 67 67 67 69 82 87 81 97 90 89 99 100 100 92 84 82 89 93 91 96 97 97 98 93 89 90 97 90 59 47 53 57 65 60 70 65 69 62 62 63 60 59
75 78 73 73 72 71 74 77 66 68 69 67 68 67 73 75 75 86 75 74 85 97 96 100 99 97 91 93 97 93 97 97 99 96 95 97 92 96 97 81 72 62 58 61 68 63 65 63 64 66 61 60 63 60
78 79 76 72 74 72 74 77 71 69 69 69 67 71 86 88 82 94 78 78 93 98 100 99 100 100 95 92 96 97 95 99 95 98 97 97 94 98 86 76 72 64 72 77 73 67 66 68 69 66 62 62 60 61
79 77 76 75 80 72 75 76 68 70 70 68 81 80 91 84 76 80 95 98 99 98 98 99 82 97 90 92 97 95 97 95 100 91 90 99 97 77 68 64 71 71 72 75 83 90 93 90 83 66 64 56 56 57
78 77 77 77 82 73 77 73 70 70 63 82 85 89 85 77 94 96 100 100 100 100 97 94 82 90 87 90 89 94 97 100 100 94 90 98 90 75 66 61 62 65 68 69 65 67 74 72 71 66 62 55 55 55
78 79 78 83 82 73 77 72 71 83 88 86 88 88 91 99 100 100 100 100 100 97 98 96 94 89 90 94 92 92 100 99 98 88 96 97 91 80 62 60 61 72 69 70 64 64 67 63 62 64 63 57 54 53
76 81 81 84 81 73 77 72 72 68 78 87 86 97 95 99 99 98 98 99 100 100 100 100 99 88 96 96 96 91 99 97 90 98 88 94 93 73 68 70 74 73 68 65 66 66 66 69 68 60 58 54 52 51
81 81 82 87 79 75 73 72 72 78 80 86 90 97 92 90 86 97 98 99 100 100 100 99 99 97 91 99 94 94 94 92 90 95 95 99 92 81 73 75 77 78 74 71 74 76 79 76 74 68 62 60 61 51
83 82 85 88 79 76 71 74 68 88 79 90 89 95 90 93 98 100 100 100 100 99 100 100 100 90 100 100 92 98 95 89 81 94 100 95 91 86 79 77 78 76 74 79 80 81 79 78 74 77 73 63 52 54
85 85 92 80 76 75 72 74 85 90 86 96 90 91 89 97 92 98 96 99 99 92 99 100 100 100 100 99 97 89 89 90 97 100 98 95 88 86 82 79 81 77 69 69 69 72 73 71 70 70 63 57 55 54
87 96 79 74 75 73 71 94 99 95 84 87 96 89 96 93 91 96 77 77 73 94 100 100 100 94 99 99 95 87 90 99 96 98 98 92 91 87 83 86 87 82 75 70 71 69 70 68 64 59 62 62 62 56
98 87 79 74 82 73 87 100 99 86 94 90 95 83 76 72 83 82 78 79 88 94 99 100 99 99 99 96 92 100 97 96 96 96 96 91 89 85 84 92 92 87 85 81 82 89 88 86 79 74 72 70 67 62
89 89 81 79 80 89 94 98 99 97 94 93 85 76 77 80 85 82 83 78 82 81 89 99 100 98 98 98 98 97 97 92 92 90 92 87 83 85 90 94 93 94 95 93 87 86 82 75 73 70 66 59 58 56
84 86 85 85 70 92 92 96 96 97 97 94 85 87 93 96 90 91 92 90 86 95 93 95 91 94 89 95 95 95 96 93 91 90 90 90 89 91 94 96 97 96 96 94 94 76 80 79 74 66 62 59 57 58
93 96 92 93 93 92 92 95 96 96 96 96 92 87 97 96 97 94 91 82 90 98 98 95 94 93 85 85 85 90 90 86 90 92 86 87 82 78 81 94 96 92 93 92 89 81 74 78 75 64 59 56 54 55
99 94 99 97 92 94 95 92 98 92 95 97 97 94 98 99 99 93 97 93 91 94 96 95 95 93 83 79 82 84 79 82 88 92 80 80 84 84 81 87 91 98 95 93 89 85 80 72 68 66 58 58 56 59
97 99 98 96 96 86 89 87 98 96 98 98 98 100 98 99 96 92 96 96 95 95 94 94 93 90 89 88 90 91 89 92 92 87 84 90 87 82 79 81 82 96 98 96 96 94 86 66 64 60 59 56 61 67
85 98 97 96 95 91 78 96 83 92 96 96 97 92 97 99 94 96 99 97 96 96 96 95 94 89 88 90 95 91 90 90 94 89 86 89 92 89 89 84 81 94 94 92 95 92 80 70 63 59 57 64 68 69
95 96 96 97 94 87 91 95 94 94 95 95 96 94 97 99 100 99 97 95 98 97 97 95 94 92 92 93 91 88 87 91 92 87 88 94 93 88 88 87 86 93 97 95 89 90 90 77 71 69 69 71 73 69
96 95 94 87 88 84 82 91 93 91 91 96 96 97 99 99 100 89 93 95 95 94 93 91 88 91 87 79 84 88 91 91 92 91 81 87 85 89 93 93 88 91 99 94 96 96 86 78 75 75 71 71 67 66
97 98 85 58 62 61 68 69 70 89 92 91 95 99 98 98 91 84 92 94 94 96 96 95 91 89 91 93 92 90 91 93 89 87 85 86 84 82 88 92 90 86 95 95 98 97 93 88 77 72 73 70 70 71
85 72 84 77 79 87 84 86 85 85 88 84 82 96 94 80 73 90 95 96 97 97 97 96 95 96 96 96 96 93 93 91 93 93 90 89 88 89 88 88 86 82 83 96 96 97 96 95 92 81 79 84 89 86
88 79 80 93 91 88 84 76 80 84 70 89 87 90 88 92 94 94 95 96 98 97 97 97 96 98 99 98 97 94 95 97 99 99 99 95 90 91 94 93 92 94 94 97 93 96 96 96 95 95 92 88 92 88
97 82 86 90 87 83 90 94 96 94 82 80 78 93 94 94 96 97 97 98 98 97 97 98 99 100 99 100 95 94 94 93 94 94 94 94 91 93 98 98 96 95 98 97 97 97 95 96 96 96 95 94 94 91
89 93 93 91 92 98 99 90 92 67 92 98 93 98 97 96 92 98 98 98 98 100 100 100 99 99 100 99 99 97 93 93 92 91 93 94 94 93 92 90 89 97 97 97 96 96 96 95 94 94 94 94 93 85
95 95 94 95 100 98 98 98 98 98 98 98 98 100 98 98 96 94 99 99 100 100 98 97 100 97 96 96 95 95 90 93 93 92 94 94 93 91 89 92 95 98 97 96 96 94 92 94 94 94 93 94 90 88
97 97 96 95 99 100 98 97 98 97 98 99 98 98 98 98 90 93 98 99 98 98 98 98 97 98 97 96 96 96 91 95 97 85 83 86 90 92 96 98 97 96 94 94 94 94 94 94 94 94 94 91 93 94

GFSWCAN_sfc_rhum_018.txt.gz
RH
72 72 72 71 69 70 69 69 70 67 55 58 64 60 59 62 59 77 84 87 94 96 85 82 69 83 90 93 90 84 86 89 97 94 94 92 90 83 88 78 94 89 96 98 97 98 94 60 83 83 63 75 76 74
74 73 77 74 72 72 67 68 69 71 66 61 65 62 60 64 57 63 89 78 86 94 90 86 73 68 73 73 90 91 84 90 91 95 96 95 92 88 92 75 80 89 76 84 85 79 55 56 64 64 69 73 77 77
75 77 81 77 74 74 71 68 68 70 72 64 58 55 61 62 62 61 86 90 94 98 94 93 71 45 53 64 60 98 91 85 88 89 95 94 93 88 87 82 91 78 62 73 75 64 59 58 62 73 76 73 69 78
79 84 81 80 80 77 70 71 70 70 73 70 62 62 61 60 63 66 95 90 90 94 90 82 66 76 67 74 71 78 86 91 90 93 95 96 94 89 91 88 93 85 80 71 77 75 72 72 66 73 68 78 81 85
86 84 80 84 85 75 81 74 69 70 75 66 60 64 66 67 65 80 86 89 85 91 89 87 64 61 66 87 84 81 82 87 95 97 97 96 93 91 88 83 91 83 86 87 81 65 66 66 73 69 70 77 74 80
85 84 84 83 79 83 83 83 71 71 74 70 68 68 64 65 67 91 96 95 90 93 92 94 90 92 95 93 89 86 87 92 93 93 95 92 82 86 97 95 79 77 64 61 72 67 66 68 68 69 72 73 73 74
86 84 84 81 82 82 84 83 71 72 76 68 68 68 68 67 91 94 86 93 84 89 98 98 99 95 90 93 96 95 89 96 94 93 97 94 93 91 95 92 63 68 74 72 68 71 75 71 68 68 70 70 68 70
87 85 85 84 84 82 80 81 72 74 73 68 68 69 68 72 82 92 93 81 88 96 98 99 98 98 91 98 98 94 99 98 98 94 96 97 94 95 99 86 81 73 60 71 69 68 72 74 72 74 73 68 69 68
86 84 86 86 83 81 81 79 73 77 73 68 70 71 88 90 91 96 80 82 95 97 100 99 100 100 97 97 98 98 95 99 94 98 96 94 94 98 84 73 71 68 69 68 77 76 79 77 76 75 72 70 69 68
87 85 86 85 80 80 82 74 74 73 70 70 80 81 86 87 79 82 98 96 100 100 99 99 98 97 96 92 99 95 98 96 100 97 97 99 94 83 68 69 74 74 75 82 92 90 94 88 87 79 75 66 61 61
86 84 86 84 80 80 84 72 75 73 70 86 93 89 93 79 94 97 99 99 99 100 99 98 98 97 92 92 98 94 99 100 100 95 92 98 94 73 77 77 74 76 78 82 86 84 86 83 82 79 74 64 62 61
90 87 85 81 81 79 82 71 74 88 91 84 88 88 95 97 100 99 98 98 99 99 98 99 99 98 94 93 95 96 98 99 99 90 95 92 92 90 84 80 76 74 74 79 77 78 82 78 79 76 73 62 62 70
90 90 86 83 78 82 77 72 78 73 79 93 95 95 97 99 99 100 97 99 100 99 100 100 99 98 92 92 97 94 96 95 92 96 89 93 94 88 85 82 80 75 74 70 79 77 78 78 77 68 70 71 72 74
92 91 89 81 80 84 76 77 74 74 89 94 96 98 98 98 97 96 99 100 99 100 99 99 100 99 98 99 94 92 92 91 95 87 88 97 97 94 88 82 81 83 80 76 85 88 86 87 84 78 74 67 58 61
93 92 84 83 84 87 78 78 66 91 96 96 96 98 97 93 98 99 100 99 100 99 99 100 100 97 100 98 94 96 97 94 80 90 98 99 98 95 94 86 87 88 86 80 75 85 87 86 82 88 87 79 66 70
93 92 94 84 85 84 80 74 87 94 96 95 96 99 91 97 98 97 97 98 98 99 99 100 100 100 100 97 97 94 87 90 96 99 99 98 94 94 95 91 90 89 86 82 78 74 74 76 86 89 91 89 89 88
94 97 88 85 81 81 72 95 98 95 96 97 98 94 97 99 98 94 95 92 80 97 100 100 99 93 98 98 99 91 94 98 98 97 99 95 93 94 94 93 94 94 88 86 87 79 81 76 71 76 85 81 81 73
98 92 87 83 82 80 92 100 97 97 99 97 98 96 89 85 88 84 92 92 95 99 99 99 99 99 97 98 98 99 98 98 96 94 98 94 91 92 91 96 90 95 94 91 93 94 92 92 88 83 83 83 81 80
93 92 88 81 84 92 95 97 97 99 96 98 97 96 92 88 86 85 89 88 94 95 96 99 99 98 91 97 99 99 97 94 85 83 92 90 92 91 92 92 92 96 95 95 94 94 93 89 86 79 76 71 69 65
87 90 89 84 74 90 90 98 97 100 99 93 97 97 96 93 89 88 90 88 97 98 99 97 94 92 95 97 98 97 97 89 93 84 74 85 88 96 95 96 97 94 96 92 95 88 92 87 82 78 74 70 68 66
95 95 93 93 98 95 91 99 98 97 98 97 97 96 96 96 98 98 97 95 98 100 99 95 95 95 92 93 92 89 90 90 92 77 66 94 89 98 97 97 96 93 94 81 83 91 96 95 89 79 76 73 68 66
99 95 98 99 97 95 94 95 95 98 97 97 98 98 98 98 99 98 97 98 96 94 95 96 97 97 94 91 90 91 73 80 78 84 78 85 93 97 96 96 97 98 97 97 85 84 96 95 91 81 79 73 68 73
96 97 99 99 97 93 94 93 96 98 98 96 97 97 97 99 98 94 100 95 91 89 93 97 96 96 93 94 92 92 89 84 78 78 77 83 86 94 96 96 97 100 95 88 95 94 93 88 92 88 78 73 71 77
95 99 98 97 96 97 90 99 94 99 98 98 99 94 92 98 99 98 99 91 87 97 97 94 94 91 91 90 92 87 86 94 95 96 89 85 92 82 86 91 94 95 93 86 92 95 84 83 84 86 76 86 84 82
98 97 97 97 95 92 96 100 100 100 98 95 97 94 95 98 99 100 94 89 97 99 97 95 91 92 90 93 96 93 91 89 91 87 93 90 91 93 93 95 90 86 90 97 96 87 82 84 92 92 87 77 81 87
97 96 94 93 98 84 89 95 98 95 95 97 96 97 98 97 100 80 80 91 95 96 96 94 91 93 93 88 92 96 91 93 94 92 94 90 93 94 96 93 89 89 93 96 98 98 93 82 96 96 88 81 78 84
97 96 92 72 76 75 81 78 78 94 93 90 91 96 95 94 80 72 77 88 94 95 96 94 92 88 88 96 96 96 97 94 89 90 95 96 95 92 90 90 90 83 90 92 94 94 92 88 83 96 95 92 93 95
91 91 96 93 90 93 82 89 87 86 82 78 81 94 86 74 65 80 85 95 97 96 97 98 98 98 97 97 97 97 97 99 98 98 96 94 92 91 91 89 86 82 85 90 92 93 94 94 90 95 96 95 94 96
95 84 83 94 92 90 81 76 76 72 66 82 82 76 78 81 90 94 94 97 98 97 95 94 93 99 98 98 98 99 99 99 99 100 95 90 96 92 93 95 96 98 95 95 89 86 94 94 94 94 95 94 94 95
95 90 89 90 84 79 81 80 90 91 81 78 76 90 89 91 92 97 97 98 96 94 96 97 98 96 94 98 98 98 98 97 96 95 97 93 92 94 97 95 95 94 95 94 95 95 86 86 94 96 97 97 96 95
88 94 92 92 89 97 95 84 86 66 89 97 93 94 90 94 88 94 97 97 98 100 99 99 100 100 100 100 100 100 98 96 98 94 93 92 92 92 91 90 90 92 97 97 97 96 95 95 96 96 95 94 94 94
97 93 91 93 97 95 91 95 98 96 97 97 96 99 95 95 88 88 100 99 100 100 99 99 99 95 97 97 98 98 90 94 96 94 96 94 93 91 90 92 94 96 96 96 96 95 96 96 95 94 94 95 95 95
98 96 96 95 96 96 96 92 95 95 96 98 96 97 98 96 83 88 98 100 96 96 95 96 96 98 98 98 99 100 92 97 100 90 88 85 79 85 95 96 95 96 96 96 95 97 96 95 95 95 95 94 94 95

GFSWCAN_sfc_rhum_021.txt.gz
RH
72 72 72 73 74 71 72 73 67 71 74 70 60 67 62 60 62 77 84 89 92 92 83 84 81 90 87 95 91 85 86 89 96 92 95 95 94 89 90 78 92 91 97 98 98 98 94 70 84 83 66 77 76 75
73 73 74 74 78 73 75 80 69 70 71 78 65 57 58 63 63 66 84 80 89 96 89 90 77 73 83 75 87 93 85 90 92 94 95 95 96 89 91 90 87 91 83 92 86 78 59 68 73 67 73 76 78 78
75 76 75 79 81 77 80 80 76 73 71 72 80 64 60 61 62 66 86 82 94 99 91 93 78 59 52 51 49 89 90 81 91 87 94 95 90 89 97 93 93 81 63 77 83 76 70 61 59 68 73 74 72 72
82 80 78 83 82 82 83 81 80 73 71 72 76 61 60 62 60 66 93 87 91 96 98 81 63 72 61 55 57 60 76 90 88 94 95 95 92 86 91 85 86 83 81 77 75 78 77 73 72 68 75 76 81 86
81 81 86 82 81 82 81 80 82 78 72 74 76 69 67 68 67 78 89 86 84 97 96 89 70 46 42 43 79 72 76 94 94 96 96 96 94 93 94 87 94 80 87 91 90 73 76 69 73 72 70 74 76 84
82 86 83 84 82 82 82 84 84 83 72 74 76 69 69 67 66 90 97 92 91 91 99 98 83 89 88 76 92 90 93 96 94 95 96 95 82 85 98 96 79 73 67 69 77 77 73 73 73 73 75 73 76 81
87 86 86 83 84 83 84 84 85 79 74 75 73 70 69 68 90 93 84 86 84 89 95 92 95 83 76 95 98 96 97 99 94 92 97 93 93 88 95 93 73 77 70 64 73 80 84 77 73 75 73 73 70 74
88 88 86 86 86 85 84 83 85 74 74 76 70 70 71 75 84 90 93 79 87 96 98 99 96 99 89 97 99 96 99 92 98 95 97 97 96 96 99 89 72 62 63 61 64 66 74 76 79 80 77 72 72 71
90 86 86 85 86 86 84 84 84 74 77 71 71 71 89 92 92 95 81 84 95 98 99 99 99 100 98 97 98 96 93 98 96 98 96 92 93 99 88 73 74 73 81 80 80 84 80 75 73 79 75 74 74 73
88 87 85 84 87 87 79 85 80 75 75 67 78 90 83 88 78 83 96 99 100 100 100 99 99 98 95 92 99 95 95 97 100 96 98 99 97 83 71 72 71 78 86 91 97 94 91 90 90 83 80 73 70 69
90 88 85 82 88 86 82 84 78 75 67 88 94 94 92 79 86 96 99 100 99 97 99 99 98 99 93 93 97 94 99 100 100 96 98 99 97 77 77 76 81 85 84 84 84 87 89 89 90 88 83 74 69 67
92 89 86 84 87 85 82 83 75 86 92 84 89 87 96 97 100 100 97 98 99 99 98 99 98 99 98 94 96 97 99 99 98 90 95 86 95 90 89 90 85 83 83 79 74 86 82 84 89 90 84 75 67 62
93 91 88 86 86 85 81 76 79 74 81 95 98 98 98 98 99 97 97 98 99 96 100 99 100 99 95 96 97 94 94 96 93 97 89 94 95 92 93 91 85 79 77 74 75 85 84 87 80 80 71 66 69 68
94 92 90 88 88 84 83 78 74 76 88 95 88 96 98 99 98 95 98 100 97 100 99 98 99 99 97 99 94 90 95 90 99 95 87 99 94 95 93 88 87 88 85 82 77 89 94 91 87 79 77 76 74 78
94 93 92 90 86 86 85 82 70 90 95 96 96 99 99 92 98 99 99 98 97 99 99 99 100 97 100 95 93 97 99 92 85 91 99 97 98 94 94 91 93 94 89 86 81 79 77 85 84 87 86 83 78 79
92 94 96 84 84 88 88 80 86 93 97 96 98 100 93 98 97 98 98 97 98 99 99 100 100 100 100 98 98 95 93 92 93 100 98 97 92 93 95 94 94 96 92 86 83 80 75 79 79 90 94 90 88 84
95 98 91 87 87 88 79 93 97 96 97 98 99 94 98 98 98 97 84 90 96 99 99 100 99 92 99 98 99 94 94 95 99 99 99 95 92 93 94 90 93 94 95 92 90 86 88 81 75 82 93 93 96 96
95 92 91 90 84 83 91 98 96 99 97 97 100 97 91 88 94 87 85 91 97 99 99 99 99 99 98 96 97 97 99 99 97 94 96 94 89 93 88 94 92 92 94 94 94 95 94 93 90 85 85 90 91 92
92 92 92 82 85 90 93 97 97 99 95 97 98 98 94 94 89 86 84 88 92 93 96 98 99 98 93 97 99 100 99 99 91 92 79 78 90 89 90 92 96 96 94 95 95 97 96 91 90 89 82 76 76 77
87 91 87 85 74 90 89 98 96 100 100 94 98 98 98 97 95 91 90 84 95 98 99 100 96 93 94 96 97 97 97 91 82 66 58 73 89 95 96 97 98 94 96 95 94 77 89 96 92 85 82 78 74 72
92 96 92 94 99 91 90 98 97 96 97 99 98 96 96 96 98 98 98 96 97 98 97 84 90 93 92 93 94 93 92 85 74 50 46 84 79 97 98 98 98 89 96 96 97 93 85 97 95 94 85 78 77 70
99 94 99 98 98 98 96 92 92 97 98 97 98 98 98 98 98 98 96 99 98 92 90 89 94 94 96 94 92 93 83 83 80 79 76 80 91 93 95 96 97 98 99 99 96 93 91 91 89 95 95 83 75 73
93 96 99 99 97 97 97 95 95 96 97 95 97 96 95 97 97 96 100 96 91 85 92 96 97 96 95 96 94 93 90 84 77 78 78 82 81 95 97 95 95 100 97 96 96 96 94 84 89 93 96 89 79 78
94 99 98 97 98 97 94 99 96 99 98 99 98 92 91 96 98 98 99 91 79 88 96 97 96 90 86 88 89 86 87 91 94 95 84 82 94 77 81 86 89 94 92 90 96 97 97 82 74 79 88 93 90 83
99 97 98 97 97 95 98 100 100 100 97 94 99 96 95 98 99 100 98 88 97 99 98 97 95 95 94 95 92 84 87 82 85 81 92 92 94 94 93 93 89 90 91 97 95 96 98 96 91 86 93 90 89 89
97 94 96 91 98 91 92 98 99 95 95 98 97 97 97 97 100 82 82 91 96 97 96 93 90 94 96 92 93 94 88 90 90 86 91 88 90 90 93 93 86 86 92 91 97 98 97 96 96 92 89 94 90 87
99 98 94 71 80 76 83 81 80 94 96 95 96 97 92 86 81 73 83 92 94 96 96 94 92 92 93 96 97 94 96 93 90 92 96 96 95 92 91 90 90 85 93 96 96 95 92 92 94 95 90 84 96 94
94 90 96 95 92 94 87 95 92 89 88 84 79 92 85 77 66 82 84 94 97 98 98 97 97 97 96 96 97 95 98 99 98 96 95 95 96 98 96 92 90 84 86 94 95 94 95 96 96 96 95 94 94 95
99 91 86 91 94 96 84 80 82 81 70 86 82 82 79 81 87 92 92 96 97 97 96 96 97 98 98 98 98 99 98 97 93 92 95 90 97 92 95 96 96 97 96 96 86 84 93 95 94 94 94 94 92 97
98 90 91 92 81 80 81 81 92 94 86 83 78 90 91 89 90 97 96 95 96 93 94 96 97 92 92 92 93 96 98 97 96 91 93 91 92 95 97 95 93 93 94 94 95 94 87 89 92 93 94 96 96 97
93 95 93 92 86 96 98 93 92 67 90 97 94 94 90 93 87 91 93 95 96 96 95 96 99 100 97 100 100 100 96 97 97 94 95 95 95 95 94 92 92 93 96 96 96 97 98 98 97 96 96 96 97 94
98 90 88 94 96 97 98 97 98 96 97 98 95 99 95 94 89 84 96 98 98 97 96 96 94 90 96 97 98 98 81 98 99 98 98 97 94 92 92 92 91 94 95 96 96 97 98 98 96 94 96 96 95 95
98 98 100 99 100 100 98 93 95 93 97 98 97 98 98 95 83 87 95 98 96 96 96 96 97 98 97 96 97 100 94 99 100 88 83 85 81 85 90 92 94 96 96 96 95 96 96 96 95 96 96 96 96 95

GFSWCAN_sfc_rhum_024.txt.gz
RH
74 74 72 72 73 76 74 73 75 70 69 71 77 70 60 60 63 71 82 88 86 96 92 81 88 90 84 92 95 87 90 90 95 92 93 95 95 94 93 88 92 90 92 96 90 99 93 72 84 79 67 77 76 78
76 74 73 74 75 80 75 75 77 76 71 72 72 74 76 60 60 69 79 75 86 93 84 80 65 64 76 68 84 89 89 89 92 94 96 95 96 96 90 95 88 93 85 92 89 82 60 63 75 70 76 73 77 79
78 75 75 75 80 80 77 76 78 79 76 72 72 77 68 62 62 64 85 84 95 98 92 91 88 67 64 62 50 94 92 84 91 88 94 94 92 94 99 96 91 84 67 74 85 79 77 69 67 66 73 75 74 73
84 79 79 83 82 80 78 78 79 80 81 75 71 74 79 70 64 65 91 92 91 97 98 80 59 74 69 64 57 52 67 68 87 90 92 95 91 87 92 85 92 86 84 85 77 75 76 75 70 68 74 72 76 80
84 80 79 81 84 81 79 80 81 82 84 82 76 73 77 69 69 79 93 94 90 96 97 89 74 63 57 52 52 50 62 74 89 99 96 95 95 93 95 94 96 87 83 88 87 76 84 78 74 77 74 74 72 80
84 82 80 81 82 83 81 81 81 82 86 79 78 80 74 69 68 90 97 92 94 96 100 98 82 82 80 80 60 53 78 83 92 97 95 96 86 87 94 96 81 82 82 75 88 87 86 79 82 81 75 74 74 80
86 84 86 87 86 85 84 83 83 83 87 76 79 74 70 71 93 95 85 82 86 94 99 95 95 78 84 87 87 85 90 94 95 96 96 96 95 88 94 86 88 85 71 64 64 70 75 85 85 85 74 74 75 80
88 87 88 90 88 86 84 84 82 85 78 78 74 70 72 76 83 92 88 80 90 97 98 99 95 99 93 94 91 90 97 95 98 96 98 97 98 95 96 85 80 72 70 64 70 75 72 72 77 85 80 78 78 76
92 92 89 87 88 86 84 85 84 87 82 78 66 74 89 94 94 93 83 83 95 96 99 98 99 98 89 93 96 98 97 99 99 97 97 93 97 96 91 83 84 82 85 86 88 91 91 90 80 77 80 81 77 78
95 92 88 87 86 86 86 81 84 86 81 67 79 88 87 90 77 85 96 99 100 100 100 99 99 98 98 97 99 97 96 98 98 94 97 99 97 88 81 82 83 84 87 91 95 95 94 93 93 90 84 80 77 75
95 92 88 87 87 90 86 80 85 79 67 85 93 96 90 79 89 97 99 100 98 99 99 99 99 98 95 95 97 92 99 99 97 99 96 98 94 88 89 88 86 89 90 89 90 89 90 93 94 93 90 86 79 74
93 92 89 86 84 88 85 79 82 86 92 85 88 89 94 95 98 100 98 97 99 96 99 99 98 98 97 94 95 96 99 99 98 93 99 98 96 93 91 86 91 90 89 80 72 78 86 90 92 94 93 92 80 72
92 92 91 87 84 85 82 81 80 78 79 93 98 99 98 97 99 99 96 97 96 100 100 99 99 99 96 95 97 98 96 98 94 99 92 94 96 93 94 94 92 86 77 75 74 76 88 89 89 79 74 70 65 64
93 92 93 90 85 86 86 82 78 75 86 95 95 97 98 97 94 97 97 99 96 96 99 98 99 99 98 100 96 92 97 93 98 99 90 99 94 92 93 91 92 93 89 84 81 79 88 94 96 90 83 74 69 71
91 91 95 93 90 89 89 86 74 89 95 95 94 98 97 91 97 98 99 99 98 93 96 98 100 98 100 98 94 99 99 98 90 90 98 98 94 93 93 90 92 97 96 92 88 85 80 78 87 93 91 83 77 80
93 95 98 88 88 87 88 81 85 94 97 96 98 99 90 98 96 98 99 98 98 95 97 99 100 100 99 99 97 94 91 91 91 98 99 92 94 94 94 91 94 96 95 92 88 85 83 81 81 87 94 91 86 85
94 99 92 89 89 89 82 95 96 97 98 100 98 94 98 99 98 98 94 94 94 99 99 100 99 95 99 99 98 97 94 93 98 100 95 94 92 93 92 84 89 90 94 93 94 91 92 87 83 79 81 88 96 94
94 91 92 92 87 88 95 97 97 100 95 98 99 96 96 94 95 90 90 89 97 99 98 99 99 99 99 98 97 96 100 100 99 94 93 94 89 94 84 88 88 86 83 92 95 97 97 96 92 91 92 90 93 97
92 94 93 86 89 95 98 98 95 99 97 97 97 98 97 93 97 96 96 86 90 94 99 98 98 97 92 97 97 100 100 99 98 96 88 78 86 90 86 92 96 94 94 96 96 94 93 97 96 93 88 83 81 81
87 90 90 86 83 98 96 97 94 99 100 92 98 99 99 98 94 95 96 91 96 96 99 98 94 94 94 95 97 97 98 95 94 86 71 89 92 96 95 97 98 96 97 97 96 80 92 93 93 91 94 93 88 80
91 96 91 95 99 98 96 96 100 98 98 99 98 99 98 98 99 98 98 97 99 98 98 87 85 89 91 92 94 94 94 85 76 66 53 82 78 97 98 98 98 85 92 89 94 92 86 93 94 86 94 97 91 83
99 91 99 99 99 98 98 89 91 96 100 97 98 99 100 99 98 98 97 98 97 91 87 90 91 87 82 94 94 95 89 81 73 72 70 71 81 92 94 95 96 96 98 97 92 91 90 89 88 93 95 95 94 87
91 93 100 98 98 97 95 95 99 96 90 92 97 98 97 98 97 97 100 95 92 83 87 94 96 97 95 96 95 92 93 82 74 72 78 81 75 95 97 95 95 99 97 93 95 96 97 80 85 93 81 77 89 87
88 98 98 98 98 98 94 98 93 99 100 100 100 96 89 97 98 99 98 90 80 95 98 97 97 95 94 92 95 91 88 85 88 92 79 78 93 73 79 81 81 91 91 92 97 97 97 85 83 90 91 96 92 90
99 96 98 97 98 95 97 98 100 99 100 98 100 98 96 98 99 100 92 88 96 96 97 97 97 96 96 97 97 92 90 84 80 75 92 88 92 92 93 93 86 85 91 97 94 95 96 97 98 97 97 98 98 96
98 93 98 93 98 94 95 100 100 98 98 100 98 97 99 98 99 81 81 89 89 96 97 96 95 98 96 96 96 95 86 86 88 82 90 84 82 85 91 91 89 87 95 93 96 96 95 96 97 96 96 92 82 84
98 96 94 75 84 79 83 81 81 95 99 97 98 100 95 81 79 70 76 88 89 95 97 98 95 92 96 97 97 96 92 91 88 89 93 96 96 92 89 88 86 88 95 96 97 97 96 95 95 96 95 95 95 95
92 91 96 96 94 95 86 94 94 93 90 87 87 94 94 88 76 77 77 90 96 98 98 98 98 97 96 96 97 95 96 95 94 93 95 95 98 98 98 96 96 81 89 96 96 96 96 96 96 96 98 97 95 95
96 94 91 98 95 96 88 82 85 85 73 90 88 87 81 80 89 90 90 96 98 98 96 97 98 97 97 97 96 95 94 91 85 82 83 86 96 91 98 98 98 97 96 96 84 80 91 95 95 96 96 95 94 95
94 94 94 95 87 87 84 83 90 94 88 84 80 90 90 89 91 97 96 98 95 90 92 94 95 94 94 94 94 92 94 96 93 85 86 87 91 95 97 97 94 93 95 96 95 96 92 93 95 96 98 97 97 99
95 94 92 97 92 93 96 94 94 70 92 97 95 94 90 92 86 91 90 93 94 97 95 95 98 96 92 92 92 95 90 97 97 96 96 99 98 98 96 95 94 95 98 98 97 96 98 100 100 100 100 98 97 91
100 92 90 93 92 96 98 97 98 96 99 98 94 100 96 95 89 82 97 97 97 95 88 87 89 85 88 94 97 98 79 97 98 97 98 99 98 95 93 93 94 96 97 97 96 97 97 97 96 97 96 96 94 95
100 99 99 98 99 100 98 93 98 95 98 99 96 97 98 94 82 86 93 97 96 94 93 94 96 97 97 96 95 99 92 100 100 92 85 82 78 82 88 91 96 97 97 96 96 96 96 96 96 95 95 95 95 96

GFSWCAN_sfc_rhum_027.txt.gz
RH
77 75 74 73 72 73 77 77 74 75 75 71 68 69 81 72 61 76 84 87 88 92 87 75 89 95 90 89 95 88 92 91 93 91 88 89 94 94 93 87 74 82 95 84 78 88 94 69 80 75 64 70 70 73
80 77 74 74 74 76 80 77 74 76 79 78 72 70 80 70 62 72 89 75 83 92 86 70 64 62 72 70 77 83 96 90 92 93 95 95 96 97 93 85 90 95 82 89 81 79 61 65 67 67 72 68 71 76
82 80 77 75 76 83 80 77 75 77 78 79 75 66 78 83 75 64 86 90 94 100 85 88 89 72 67 64 56 90 87 89 93 90 92 93 91 94 97 87 92 87 78 85 86 78 77 69 64 72 72 72 70 69
86 80 78 77 81 83 80 77 77 75 77 80 79 78 76 77 74 69 93 94 92 96 98 79 60 70 60 70 69 64 64 69 77 92 93 94 93 89 94 86 89 86 82 84 88 80 78 79 76 70 71 71 71 73
87 82 80 78 80 81 82 79 78 76 77 84 79 76 80 82 72 82 91 92 87 95 95 91 76 67 62 75 74 69 65 64 82 98 99 95 94 93 96 94 96 90 87 93 94 78 78 78 79 82 77 81 78 76
87 85 83 82 82 84 86 83 81 82 81 90 83 77 83 69 70 89 96 93 94 95 99 96 84 81 76 76 71 69 66 80 96 99 96 94 86 84 97 96 81 83 82 78 86 90 88 85 82 87 82 78 74 75
88 88 87 85 86 88 89 86 82 82 83 84 82 81 68 72 93 93 86 81 89 95 98 97 93 74 82 84 85 83 71 87 96 98 98 96 97 90 95 97 82 86 77 71 73 81 84 79 74 80 84 85 74 78
90 90 89 89 88 91 89 85 83 80 85 82 81 70 74 75 81 92 86 80 91 96 96 98 95 93 87 89 74 93 93 90 98 97 98 97 98 96 98 87 84 74 77 74 77 76 73 77 77 80 83 79 79 77
92 91 91 86 85 89 86 85 85 81 86 81 70 67 90 92 93 92 80 86 94 95 99 98 99 96 89 94 94 95 93 99 96 98 98 91 99 92 88 90 82 84 82 83 87 89 90 92 91 83 81 75 79 81
93 94 88 85 87 84 86 85 79 85 77 65 78 88 96 92 76 85 97 98 100 100 100 99 99 98 98 97 98 97 97 99 100 98 97 94 95 91 86 88 85 86 90 92 94 92 96 96 96 92 89 89 82 81
92 94 89 86 87 84 86 84 81 77 77 86 91 95 88 80 90 95 99 100 98 96 98 97 100 98 94 99 98 97 99 100 99 100 97 100 88 95 89 88 89 89 91 91 92 89 88 88 96 98 95 93 92 86
94 92 91 88 87 84 84 81 80 88 95 91 91 89 94 94 97 100 98 98 98 96 99 99 99 98 95 97 95 96 100 98 98 95 98 98 94 95 89 92 92 91 91 87 76 75 84 89 90 95 95 90 88 84
85 92 91 88 85 84 84 81 81 78 80 94 98 99 97 97 99 98 96 96 98 99 100 99 98 99 96 96 97 96 96 92 95 99 95 96 96 94 95 94 93 92 87 75 76 74 78 90 91 90 83 70 68 66
87 93 92 91 88 84 85 82 75 76 87 95 95 96 98 97 96 95 95 98 97 98 92 96 99 100 98 100 95 99 98 94 97 98 93 95 95 95 93 91 94 96 93 89 87 86 82 83 94 95 95 93 84 68
91 91 94 94 91 88 88 82 71 88 96 94 94 90 96 90 97 96 99 96 96 90 90 94 99 99 100 100 98 99 98 95 88 88 96 99 93 88 90 86 94 96 94 92 89 87 84 82 77 80 93 89 80 78
90 91 95 93 92 90 85 80 87 92 97 95 96 99 90 99 96 98 99 98 96 96 97 99 99 99 99 100 99 95 94 90 90 97 98 93 90 93 91 84 90 92 88 85 87 87 84 84 84 81 88 92 90 85
89 93 94 92 91 86 83 94 94 99 100 100 98 93 98 99 97 97 94 93 93 98 99 99 99 98 99 99 98 98 93 93 96 100 98 92 94 94 90 82 85 81 79 89 94 95 95 90 84 82 85 82 91 97
95 93 93 92 88 91 97 97 97 100 100 99 99 96 96 96 97 96 96 94 98 100 99 98 98 99 99 98 96 93 99 99 99 98 98 94 90 94 79 84 81 73 78 91 92 95 96 97 96 94 94 91 86 92
90 96 93 87 89 96 99 98 93 100 99 98 98 99 98 96 95 96 98 95 94 97 100 99 98 97 95 97 95 98 100 99 97 95 93 88 87 92 84 90 94 93 95 97 91 93 95 94 94 90 92 96 91 83
87 92 90 88 85 98 98 98 95 100 97 89 99 100 99 98 98 98 98 97 98 98 98 100 92 85 92 95 96 97 98 95 96 96 90 88 94 96 94 96 97 97 97 97 96 75 89 82 88 88 89 96 98 95
89 96 92 95 99 98 98 98 100 100 98 98 98 100 98 97 99 100 99 98 98 98 98 87 79 88 88 88 88 90 94 94 93 90 84 90 91 96 98 98 98 81 82 75 81 80 80 88 91 89 93 97 97 98
98 89 99 97 99 98 98 91 94 95 99 98 97 100 100 100 99 99 99 99 98 91 90 88 84 90 82 84 92 95 91 89 72 63 61 69 86 96 97 95 97 93 95 92 84 83 84 86 87 93 97 94 78 94
90 93 100 99 98 98 93 95 98 98 96 91 98 98 96 100 98 98 100 95 92 90 93 96 95 95 92 95 96 94 94 87 75 73 75 74 69 94 94 94 95 97 95 88 94 96 97 78 82 86 95 92 92 94
85 99 98 98 98 97 94 99 94 98 99 100 100 97 88 97 98 100 99 93 84 93 97 96 96 97 96 95 97 95 93 93 91 91 78 77 93 71 81 81 78 87 87 91 97 97 96 85 77 92 93 99 99 99
99 98 99 98 96 95 99 100 99 99 100 96 100 98 96 99 99 100 98 89 94 90 86 92 95 93 86 94 97 95 91 87 82 75 90 86 92 93 91 92 79 81 89 96 95 96 96 97 98 99 97 98 97 94
98 88 98 97 98 95 95 99 99 99 98 98 98 97 100 98 96 80 85 87 78 85 86 87 88 93 93 92 96 93 86 86 84 81 89 83 79 80 83 85 90 82 89 87 94 95 95 96 97 97 96 93 85 89
97 95 96 92 90 87 89 82 80 93 96 95 97 100 96 84 79 72 82 90 82 91 95 94 95 91 90 96 95 94 96 89 87 87 94 95 93 88 86 84 84 84 93 94 96 95 96 96 96 96 96 97 96 95
91 90 95 96 96 94 89 93 91 92 87 83 87 99 93 85 83 87 84 90 94 92 94 95 95 97 96 96 97 96 97 97 96 95 94 94 97 98 97 96 95 77 94 95 96 96 97 98 98 98 98 97 94 93
96 90 91 98 95 94 92 88 85 81 70 91 92 90 86 89 92 90 90 96 98 97 96 96 95 97 96 97 98 97 96 93 86 85 86 86 92 86 95 97 98 98 98 98 83 80 94 96 95 94 95 95 93 94
95 91 96 98 92 92 87 84 89 92 85 83 82 92 91 90 89 97 97 98 95 87 83 90 95 95 94 96 96 96 96 95 94 85 81 76 83 94 98 97 97 96 97 97 97 97 91 96 97 98 99 99 98 99
96 97 97 98 95 94 96 93 92 69 90 97 96 95 89 91 89 91 86 84 78 96 95 91 96 97 94 94 93 92 86 92 90 90 94 96 98 98 98 97 96 97 99 98 99 99 99 98 98 97 97 98 98 95
100 98 94 97 93 96 99 99 98 97 99 99 93 100 96 96 88 81 97 96 98 95 88 89 91 85 90 94 95 95 80 96 97 96 96 99 99 97 96 96 97 98 98 97 98 97 96 96 96 96 96 97 96 96
100 100 100 98 96 97 99 93 97 97 99 100 94 95 96 92 79 84 98 98 96 96 96 97 97 96 94 94 93 97 91 99 100 92 89 86 84 84 90 96 97 99 97 96 96 96 96 96 96 97 96 96 96 95

GFSWCAN_sfc_rhum_030.txt.gz
RH
78 76 74 74 73 72 73 76 75 74 75 78 78 76 77 84 68 73 77 75 70 78 61 55 64 63 54 63 83 78 80 82 85 85 80 74 66 62 65 57 61 65 75 80 74 79 78 46 57 52 48 50 49 52
81 79 77 75 74 74 77 76 74 74 76 78 77 74 72 80 82 72 77 69 73 83 68 55 47 43 46 52 65 68 91 82 72 80 76 74 71 70 64 69 58 72 56 54 53 51 40 48 49 51 53 54 54 57
83 80 79 77 76 75 81 80 76 75 74 75 81 77 76 76 79 83 75 77 88 98 85 71 70 56 57 50 45 63 68 79 85 84 82 79 74 69 75 65 65 63 56 59 62 47 50 46 49 50 52 55 53 52
87 83 79 78 78 78 78 79 78 74 74 74 80 79 76 80 81 74 87 80 85 92 92 77 59 60 49 58 60 56 53 61 70 94 92 83 73 66 66 58 59 59 63 60 59 56 56 54 51 50 55 56 56 56
87 83 80 79 79 80 79 80 80 77 77 81 84 81 80 80 71 76 83 82 83 95 86 75 65 58 53 55 63 62 63 67 80 93 99 93 75 72 66 66 66 61 64 65 58 50 47 50 53 61 64 63 62 63
88 86 83 82 82 82 82 86 84 80 81 81 83 81 83 69 72 85 85 86 86 91 95 93 69 65 56 60 66 69 69 69 77 85 95 95 72 66 80 72 54 54 57 55 54 55 59 58 60 64 62 60 57 60
89 88 87 86 84 85 88 89 84 80 77 81 81 82 76 72 88 86 77 75 84 86 98 89 84 56 64 75 73 72 66 70 70 79 94 97 83 73 79 68 51 54 55 62 56 57 59 62 61 62 62 61 64 61
91 90 89 88 83 87 86 83 81 80 80 81 82 74 67 76 79 86 75 78 89 95 89 94 90 74 73 91 76 70 78 74 79 84 89 96 95 84 86 66 67 62 58 56 60 60 61 59 61 64 68 71 65 62
87 88 90 87 82 86 84 82 82 82 81 79 69 68 86 90 87 87 77 85 92 94 94 91 93 90 93 97 91 76 73 82 69 97 94 94 98 96 73 70 66 60 60 62 68 65 62 69 70 70 71 68 70 67
89 91 92 84 85 82 81 82 79 82 76 68 72 81 92 83 72 82 94 98 100 100 99 96 94 95 98 98 98 93 97 95 99 95 93 97 97 82 72 68 63 64 66 70 70 80 91 96 85 75 78 73 71 70
90 92 91 87 87 83 82 81 81 76 77 82 86 86 81 75 88 88 97 100 92 94 94 90 97 96 94 99 99 97 100 100 100 99 99 96 82 81 72 71 70 69 69 70 71 70 70 73 80 85 84 77 76 74
88 94 90 89 88 84 81 82 79 85 91 90 89 86 89 89 94 96 94 93 94 91 99 99 99 99 98 97 98 93 100 99 99 93 96 94 81 82 71 75 73 72 71 71 67 68 72 81 87 92 84 73 71 77
83 92 90 88 85 83 83 81 82 77 79 88 90 97 89 92 93 92 94 92 94 99 97 97 96 98 96 97 97 96 100 95 93 99 86 79 84 80 78 76 76 74 72 69 72 70 68 78 87 93 92 81 64 62
80 89 91 91 87 84 84 81 74 75 81 88 89 76 90 89 88 90 86 92 88 93 88 89 96 99 98 100 94 100 98 95 96 91 80 85 83 77 75 78 75 79 77 75 75 75 75 76 86 93 96 94 92 86
83 88 91 93 92 89 87 80 72 87 86 88 84 72 91 82 90 90 94 97 90 91 93 94 95 98 100 100 99 98 96 89 76 76 80 88 84 78 72 74 78 74 73 75 77 76 75 76 72 71 83 84 82 79
90 90 93 87 91 90 83 80 87 88 93 93 94 96 82 94 92 92 94 95 89 91 93 97 98 99 100 100 100 97 92 84 83 94 88 81 79 71 66 69 75 74 64 67 76 79 78 76 76 72 66 67 76 84
84 88 84 93 93 85 82 92 91 98 98 98 96 85 87 94 91 84 74 78 78 90 96 96 98 100 98 100 97 91 89 90 92 92 87 82 81 76 64 69 70 62 63 67 75 79 82 78 73 74 78 74 74 81
92 92 93 92 89 88 96 97 96 97 98 96 96 85 79 77 81 78 80 82 87 92 94 96 96 98 94 96 89 90 90 98 92 87 82 79 77 78 64 66 63 56 63 72 78 84 85 84 69 63 70 87 78 74
88 94 93 86 87 96 100 98 92 99 97 95 88 86 84 80 81 78 82 84 84 89 95 97 99 97 86 87 93 99 94 92 81 79 76 74 74 74 67 76 73 71 80 80 70 68 70 71 73 64 64 76 87 78
86 92 91 86 83 97 97 96 94 99 97 83 91 97 94 89 88 90 90 90 91 96 99 97 88 72 78 76 84 83 84 78 77 77 74 73 73 85 82 78 62 68 68 77 69 63 62 54 58 61 68 75 80 85
91 98 91 92 99 100 99 97 99 96 95 90 93 94 92 93 95 98 98 92 99 98 96 80 71 67 75 78 76 78 85 83 78 71 70 76 72 75 75 78 80 58 55 49 48 48 55 56 60 61 70 75 77 75
98 88 99 96 100 98 97 88 92 87 97 94 94 96 99 99 96 96 96 97 95 88 81 77 70 70 70 74 70 83 82 86 83 61 58 71 76 80 76 75 77 73 70 69 56 52 53 56 60 66 69 74 73 70
90 93 100 100 99 97 96 92 96 96 95 92 94 95 92 96 94 93 99 94 87 77 78 83 85 86 80 81 86 86 89 90 78 63 57 55 52 70 72 71 69 78 74 62 62 63 69 63 64 64 68 76 71 67
85 100 99 98 96 95 90 97 90 94 96 97 100 94 90 90 93 98 98 86 73 74 80 85 81 81 82 88 82 76 81 84 80 71 64 58 64 53 54 55 54 63 64 61 68 70 69 62 65 63 70 82 74 73
99 98 99 99 96 96 96 96 95 94 100 95 100 94 92 96 91 95 93 86 83 77 74 74 77 81 80 76 78 78 84 82 79 75 68 66 60 57 64 62 55 54 66 80 74 73 77 76 75 76 79 81 81 86
97 95 97 88 93 95 94 98 98 98 97 97 96 91 96 93 95 88 80 81 69 73 71 68 71 76 77 80 80 82 79 78 73 71 70 72 65 67 74 69 67 66 71 71 78 77 78 78 80 86 80 82 80 83
97 93 93 86 87 86 88 78 76 88 95 93 88 96 94 94 87 73 64 71 70 81 81 82 84 83 80 80 82 83 78 82 79 76 72 72 70 64 73 75 75 68 71 76 78 78 77 77 79 82 85 83 84 84
89 86 96 96 94 93 95 94 94 94 84 77 83 96 93 88 78 79 79 76 84 87 90 88 86 88 89 87 85 84 87 86 84 82 79 78 81 85 87 84 81 71 83 81 79 82 84 86 89 89 90 89 87 83
95 88 90 99 97 98 95 92 93 90 73 83 88 86 85 81 84 83 75 82 91 90 86 81 83 93 92 90 89 90 89 88 86 87 83 76 80 81 86 87 88 88 90 88 80 81 93 93 91 90 91 89 88 89
98 91 92 96 95 94 87 84 88 87 79 80 78 85 85 84 82 88 85 87 87 80 72 72 85 90 85 90 87 91 91 89 88 79 78 76 80 81 88 88 87 87 87 87 89 91 88 92 92 96 96 94 92 92
93 97 98 95 95 92 95 88 87 66 86 94 92 93 74 85 84 83 78 69 70 74 92 81 86 92 89 88 90 88 83 90 90 89 90 85 86 87 88 88 88 90 92 93 94 93 94 96 95 96 95 96 97 92
98 99 97 98 95 95 95 99 99 97 96 98 91 98 93 89 86 75 88 93 91 86 81 82 87 79 87 85 90 88 75 83 85 88 90 91 91 90 90 91 94 94 95 96 95 94 94 96 94 94 94 96 95 95
100 97 100 98 95 94 99 93 97 97 97 98 93 94 93 89 82 78 92 94 92 89 87 89 92 91 92 93 91 88 88 93 98 88 88 87 88 92 94 96 95 95 98 97 96 95 96 96 96 97 97 96 96 95

GFSWCAN_sfc_rhum_033.txt.gz
RH
78 77 76 74 74 73 73 75 74 74 75 76 76 72 72 73 78 72 67 68 62 69 58 49 44 47 40 46 63 71 70 73 79 78 68 61 51 47 46 45 53 58 64 64 58 68 72 37 53 56 49 46 45 48
80 80 79 77 76 75 75 77 76 75 76 74 77 77 75 74 76 79 76 61 64 81 64 53 49 44 43 42 55 56 79 72 76 73 59 55 51 48 49 54 42 57 45 47 46 47 35 37 37 43 46 48 49 52
85 82 81 80 78 76 76 78 78 75 73 75 78 77 76 74 77 85 95 75 76 94 70 58 60 50 48 52 45 53 51 68 83 84 87 75 68 48 57 52 51 46 40 53 48 40 40 37 42 43 46 49 49 48
87 84 81 80 80 78 78 77 76 76 74 74 76 76 76 75 76 75 81 68 75 84 92 61 52 56 44 50 51 46 47 51 59 87 97 87 74 46 49 45 46 44 50 55 49 42 48 43 37 38 48 52 53 52
88 85 81 80 80 80 81 78 78 79 75 77 80 79 78 80 68 72 70 69 74 87 87 77 63 51 47 47 53 51 54 59 66 85 97 99 69 62 56 54 52 48 50 56 51 37 38 38 41 46 53 56 53 55
89 87 84 84 83 83 82 82 88 80 78 77 78 77 78 75 73 76 74 80 76 81 96 83 59 56 47 49 57 60 61 63 67 73 78 76 86 91 70 57 39 36 38 37 40 42 44 48 51 51 56 54 53 54
89 88 87 86 87 86 86 89 84 79 77 78 79 80 74 68 81 77 75 77 79 81 88 86 82 50 49 66 69 67 60 71 72 79 68 68 77 98 85 60 42 39 40 46 50 52 56 53 53 57 54 51 57 54
89 88 88 88 85 85 84 83 80 79 79 80 80 74 64 76 76 79 72 76 79 98 99 92 86 71 65 86 72 62 70 73 68 64 58 63 63 92 98 63 46 46 47 51 52 52 53 52 50 50 56 57 60 59
86 85 87 88 83 84 85 80 81 81 81 79 71 68 82 85 75 81 76 79 94 98 96 93 94 97 94 98 84 71 66 78 57 73 64 56 76 99 84 65 58 55 55 52 58 56 54 56 58 62 64 64 64 60
85 84 89 88 85 84 80 80 78 81 77 69 57 65 86 72 71 75 95 99 100 100 100 95 95 95 97 98 98 94 78 96 85 65 66 84 89 80 77 64 56 57 57 58 63 74 93 100 79 67 72 69 68 67
83 85 90 88 88 82 80 79 79 75 71 71 80 80 68 70 78 80 94 100 96 96 95 88 97 96 87 99 99 97 100 98 100 98 93 99 95 78 72 65 62 59 57 59 59 61 61 64 70 79 84 75 68 67
80 87 91 89 88 84 81 80 77 80 86 85 84 76 77 80 90 96 96 98 97 97 99 99 84 84 98 96 99 99 100 100 100 99 99 95 81 74 66 66 65 62 61 62 61 62 63 69 77 88 92 81 70 60
79 89 90 89 87 84 82 80 81 76 77 76 80 96 86 89 90 84 86 87 89 91 88 90 93 79 95 98 99 99 100 96 90 100 78 75 82 73 70 68 68 64 64 63 66 66 63 67 81 89 93 88 86 71
87 91 89 90 87 85 84 82 74 71 70 84 87 70 90 87 81 84 80 89 84 92 87 82 85 88 94 100 99 100 93 93 93 92 81 82 76 67 66 67 65 67 67 67 71 69 70 70 74 79 89 94 94 93
76 86 87 90 90 89 87 78 71 80 80 93 87 74 80 71 88 91 98 92 86 86 88 87 92 92 99 100 99 100 98 89 71 74 85 85 76 69 66 67 65 63 63 68 69 67 68 69 67 67 69 67 75 80
89 88 89 86 92 90 83 79 79 80 95 97 95 93 73 88 92 89 95 92 84 83 84 95 98 98 97 100 100 100 95 88 86 99 90 74 72 61 59 65 64 56 49 55 66 69 70 70 70 68 62 66 66 75
87 77 84 88 93 86 80 88 89 99 100 98 93 78 81 88 85 72 54 60 68 83 89 92 94 98 94 98 97 87 92 96 99 93 83 77 75 62 57 62 62 52 52 53 60 65 73 69 55 53 63 78 81 74
83 84 92 92 85 86 93 95 99 98 99 93 90 85 67 59 66 59 57 60 76 83 89 91 93 95 93 93 85 90 94 99 93 84 79 77 68 65 58 58 55 49 54 59 68 76 75 72 62 54 61 69 80 79
83 88 91 86 85 94 100 100 98 98 95 92 84 77 73 70 65 62 63 64 74 79 91 92 94 93 85 82 93 100 98 91 81 75 68 69 68 69 60 70 70 67 74 72 59 56 57 58 61 56 57 63 69 74
87 94 88 85 82 98 100 98 93 98 97 83 82 86 82 77 74 75 77 81 84 88 95 94 84 68 67 63 83 83 82 74 73 84 88 68 63 81 83 75 57 61 59 68 65 60 52 50 52 52 59 69 73 70
87 96 90 90 99 99 98 97 96 95 91 86 85 85 82 85 88 91 93 83 90 88 89 73 64 56 59 56 60 71 73 79 81 80 72 74 63 70 73 72 75 51 47 42 39 38 51 44 49 51 57 63 68 67
92 86 99 97 100 100 98 88 93 82 93 89 91 88 91 92 90 92 92 95 90 82 72 60 61 63 63 66 64 72 70 76 79 78 65 67 72 77 76 73 75 72 69 71 50 43 42 44 49 54 59 58 68 64
88 91 100 100 100 98 95 86 95 93 95 89 91 89 87 91 90 88 97 86 82 68 66 69 77 85 84 78 80 78 79 81 74 73 68 62 56 76 76 74 71 82 81 67 60 59 65 53 55 60 55 65 66 61
86 100 100 97 94 93 89 95 85 90 91 92 94 88 85 87 86 93 90 78 67 60 65 80 72 66 64 82 78 71 74 76 76 77 65 59 63 49 57 61 44 60 65 61 66 66 63 53 56 57 57 72 74 70
100 99 97 95 96 94 97 96 94 91 98 90 93 90 89 90 90 89 83 82 78 68 71 64 62 64 68 64 67 69 78 75 76 79 74 65 55 48 58 53 44 45 61 82 74 72 76 70 69 71 71 76 79 85
97 91 94 91 92 94 87 95 97 94 88 94 90 84 90 91 95 90 77 77 63 69 65 59 60 65 64 69 70 70 74 75 75 78 76 72 66 67 77 70 66 62 62 66 74 78 78 76 78 85 78 80 75 80
96 94 89 76 72 77 80 72 71 83 94 96 83 92 92 96 92 75 61 61 66 80 74 72 74 76 74 72 73 76 78 79 84 79 74 74 71 62 73 77 73 69 73 76 78 76 74 76 78 80 81 80 81 82
83 80 96 93 90 85 91 87 91 94 84 76 88 95 95 89 81 77 77 73 74 80 82 79 78 81 80 80 82 81 82 83 85 82 80 78 78 81 85 82 82 68 82 81 78 81 81 82 83 82 85 88 88 83
89 83 84 97 96 94 93 90 86 75 66 80 89 90 83 73 80 81 78 80 83 82 83 75 74 86 84 85 87 88 87 87 88 88 84 75 82 85 87 86 89 89 89 87 75 80 93 91 90 89 89 88 86 89
93 85 88 94 95 94 85 83 88 84 73 73 70 74 75 80 79 79 83 80 82 72 64 65 68 84 76 78 77 84 89 87 86 80 78 76 80 86 88 88 89 90 90 87 88 89 79 87 91 94 95 95 95 94
88 94 93 88 92 87 87 83 81 60 76 86 86 88 72 78 79 80 68 62 64 67 72 74 78 84 82 81 83 80 78 88 87 85 85 87 85 86 88 89 88 89 90 91 92 93 94 95 95 96 95 95 96 90
94 96 95 97 93 91 90 92 89 89 88 91 88 89 87 85 85 78 82 86 86 80 76 76 81 79 86 84 88 87 70 87 87 90 93 89 89 87 87 89 93 93 94 94 94 95 96 96 96 95 94 96 95 95
95 92 95 94 94 89 92 90 90 91 92 92 88 86 87 83 82 76 82 86 88 87 86 87 87 87 90 91 88 84 80 90 89 81 78 79 79 85 92 93 93 94 96 96 96 96 96 96 95 96 96 96 96 95

GFSWCAN_sfc_rhum_036.txt.gz
RH
79 78 76 74 72 73 72 74 76 74 75 74 75 77 76 75 74 86 82 75 80 74 65 57 48 54 54 51 68 65 77 78 78 86 85 78 72 58 59 53 66 76 81 79 73 79 85 62 66 79 66 61 60 60
81 79 78 77 75 74 75 76 79 78 76 74 76 76 73 73 75 82 91 69 67 89 71 64 59 56 56 54 62 62 71 74 93 96 87 77 72 60 62 72 54 68 61 67 62 65 51 49 57 59 59 61 66 66
85 82 81 81 79 77 76 78 79 79 76 75 74 75 73 74 72 86 97 87 88 93 78 72 62 54 51 57 55 66 62 73 79 86 97 96 91 68 74 67 62 60 52 65 58 53 52 47 54 57 62 65 63 62
88 84 82 80 80 80 79 79 79 77 77 75 72 76 77 77 77 70 86 81 88 90 92 72 52 59 50 51 58 60 57 54 63 85 95 98 90 65 72 64 66 58 57 63 65 57 69 54 52 55 61 63 65 65
88 86 82 80 79 80 80 81 80 81 80 76 76 76 76 78 73 81 84 86 86 94 89 87 70 56 48 53 58 57 59 68 82 93 91 92 97 89 74 76 78 66 68 76 73 51 52 54 52 56 66 68 65 70
89 87 85 84 82 82 84 84 84 86 82 78 78 79 79 71 74 87 91 90 81 88 98 91 72 63 55 56 60 62 70 72 80 83 86 86 82 96 99 79 56 48 50 50 57 60 63 64 65 65 67 66 66 70
90 88 86 85 85 85 85 83 84 80 78 79 79 80 75 70 89 90 90 90 81 88 92 92 91 61 54 67 75 77 71 80 78 83 83 82 75 92 99 93 61 44 42 52 62 65 72 68 75 68 66 64 67 70
90 88 87 87 86 83 83 82 80 80 80 80 79 74 64 76 80 90 86 80 84 98 96 97 93 84 71 86 88 75 80 85 92 87 81 79 75 77 93 81 76 69 54 62 65 63 66 62 60 65 71 70 74 75
90 86 87 89 85 81 82 81 81 81 82 78 67 67 87 87 83 91 75 79 95 99 98 95 98 98 94 98 97 87 75 88 77 88 80 75 79 93 76 59 81 80 68 68 70 65 68 68 74 81 83 82 83 80
80 83 86 89 84 84 81 80 80 80 77 73 70 73 93 81 69 73 96 99 100 100 100 96 97 97 96 99 99 96 95 93 98 84 81 83 81 60 64 81 76 69 68 70 79 89 94 94 85 85 88 87 85 85
80 85 90 88 88 84 81 79 79 76 74 83 82 86 82 71 88 87 97 99 99 97 94 90 96 98 85 100 99 98 99 99 99 96 90 99 90 83 79 73 68 64 65 68 70 71 72 76 87 92 92 86 79 75
86 86 91 89 88 85 81 78 76 84 90 92 88 80 79 81 96 96 98 98 95 98 94 99 91 88 88 96 99 99 99 100 99 99 100 99 99 89 81 76 74 70 68 69 67 69 73 79 90 93 92 88 86 81
86 91 90 89 87 85 82 80 78 75 78 88 89 97 95 96 91 87 95 92 96 98 98 95 93 84 87 98 99 100 100 98 97 100 98 99 92 79 75 73 73 70 69 68 73 72 71 78 90 91 92 90 90 88
86 91 90 89 88 86 84 82 75 74 86 97 94 73 92 94 93 94 95 98 98 98 95 91 94 92 87 98 99 100 98 99 99 99 96 99 89 84 80 74 73 77 76 77 79 77 79 80 82 80 84 87 92 93
89 90 90 90 89 89 87 79 72 87 96 98 95 88 94 90 96 97 99 98 96 96 98 91 94 91 96 99 92 99 98 98 97 96 100 97 87 82 81 76 78 76 77 80 73 75 78 77 77 78 76 75 73 82
85 87 88 90 91 91 84 80 86 90 98 98 98 98 87 95 97 97 98 98 97 94 97 97 98 99 96 99 99 99 99 99 100 100 99 92 83 70 74 78 69 59 60 68 73 71 72 75 77 78 75 79 77 75
87 89 87 88 93 88 82 96 98 98 97 97 98 92 95 97 96 94 74 78 84 94 98 90 95 96 97 99 98 99 100 100 100 99 99 93 86 72 65 73 65 57 56 62 65 72 78 76 60 54 58 66 84 85
93 92 89 92 87 89 94 100 99 97 97 93 100 98 85 77 85 80 75 78 92 95 86 94 99 96 96 98 93 99 99 100 99 98 97 90 79 67 64 68 59 55 61 79 91 95 92 84 70 70 72 81 81 90
93 95 91 85 85 96 100 100 99 96 93 91 92 95 90 89 86 82 82 82 85 82 92 93 94 92 95 93 96 99 99 99 98 96 82 80 79 92 92 79 80 81 86 86 67 66 68 67 69 66 67 74 80 80
92 92 90 84 81 99 99 99 95 98 96 96 95 97 97 96 92 91 92 85 80 90 89 92 87 91 88 78 96 97 97 93 96 94 95 92 82 88 87 88 81 80 83 87 87 62 67 66 65 64 69 80 88 88
92 96 90 91 99 99 95 98 98 94 94 98 97 97 97 97 98 98 94 88 92 95 94 87 84 75 74 75 77 86 89 90 86 86 87 95 79 87 94 94 93 71 70 63 62 55 55 63 63 64 68 72 82 86
97 86 99 97 100 100 99 96 95 96 98 97 98 98 98 98 98 96 96 96 89 94 92 94 86 90 87 83 84 85 85 85 86 91 82 84 89 93 95 90 89 83 78 80 66 57 57 57 61 64 74 72 72 85
89 92 100 100 100 100 98 96 98 97 99 98 98 98 97 98 98 97 100 96 94 93 90 90 90 92 92 87 90 88 91 90 86 84 87 90 88 94 93 90 88 87 88 88 94 93 89 60 62 71 72 71 81 79
87 100 99 98 99 98 95 98 94 97 96 98 100 97 92 97 98 100 98 95 93 93 92 90 94 93 91 89 96 89 89 96 96 93 91 87 92 76 86 92 80 89 87 92 86 90 89 65 60 69 73 87 91 91
99 99 100 98 98 96 99 99 99 94 100 98 100 97 97 98 100 99 95 73 94 92 93 94 94 93 93 93 88 87 89 94 95 90 87 86 90 78 83 80 65 65 86 88 91 92 95 94 93 93 93 95 95 93
98 92 96 93 97 95 95 99 99 97 97 99 97 97 98 100 100 92 92 93 92 93 93 84 83 91 92 87 89 88 88 93 93 94 89 89 83 81 90 90 90 79 85 82 89 88 90 91 91 91 93 89 78 89
96 97 97 83 84 84 89 83 81 94 100 98 96 99 98 98 96 86 91 90 87 93 92 93 90 89 84 81 87 84 91 91 88 89 90 88 89 85 87 86 82 81 90 86 87 88 88 89 90 91 93 96 94 94
88 87 97 97 97 96 94 96 95 96 94 90 93 99 95 90 89 90 87 91 91 93 94 93 91 89 88 82 81 91 94 95 95 95 90 85 82 83 86 90 92 67 90 91 91 91 88 88 90 92 94 94 96 97
97 91 94 98 99 98 95 93 93 91 80 94 96 96 92 91 91 90 88 92 95 93 89 74 64 90 86 88 90 91 94 96 96 90 82 74 88 88 90 91 93 94 95 94 70 84 91 94 95 96 95 96 96 96
97 93 95 96 95 95 90 86 94 95 90 87 85 91 91 91 87 91 92 94 90 78 65 68 75 91 82 92 86 90 92 88 88 81 78 75 84 96 96 95 96 96 97 96 97 97 78 90 94 99 98 99 99 99
94 97 98 92 94 94 96 93 92 67 85 95 94 95 78 90 90 93 81 67 64 68 80 77 78 94 96 93 95 92 87 95 94 91 92 96 94 95 96 96 97 96 96 96 97 98 99 99 100 100 100 100 99 96
99 97 97 99 96 97 97 97 98 98 98 99 96 99 97 97 92 85 90 92 90 84 73 83 96 95 97 98 97 98 77 97 95 97 96 97 97 96 97 97 98 98 98 98 99 99 100 100 100 100 99 99 97 97
97 97 99 99 98 96 98 96 97 98 99 99 95 94 94 91 82 84 95 95 91 93 96 97 98 98 98 99 98 98 87 98 96 77 73 76 78 87 98 99 99 98 98 99 100 100 100 100 98 98 98 97 97 97

GFSWCAN_sfc_rhum_042.txt.gz
RH
82 82 77 73 72 72 72 73 74 78 74 73 75 75 75 74 76 90 94 88 86 97 92 74 65 72 75 75 83 72 85 84 89 91 92 89 87 75 78 73 80 77 87 93 87 96 90 62 68 75 65 75 73 68
84 83 79 76 77 76 75 77 78 82 77 74 73 73 75 76 77 83 96 90 76 95 89 85 77 72 69 69 78 80 75 88 93 96 95 97 94 73 80 86 79 79 70 80 79 76 52 59 61 61 63 65 72 78
84 84 81 78 77 76 77 78 79 80 79 76 72 73 75 75 73 83 97 92 95 96 90 80 74 59 60 63 62 78 81 79 80 86 96 93 96 93 93 86 80 74 67 69 68 60 59 53 61 66 68 67 71 71
86 85 84 83 81 80 81 79 80 80 81 76 71 73 77 78 71 83 86 98 95 96 94 82 63 72 59 57 63 68 72 69 78 89 88 92 93 94 96 88 87 71 73 71 73 64 65 59 60 64 70 74 73 74
87 87 87 87 86 83 81 82 81 83 81 76 76 79 78 73 76 89 97 97 95 90 93 89 76 65 54 62 66 70 74 74 84 91 97 88 90 96 91 95 80 70 72 78 76 60 58 55 54 68 74 74 74 76
89 89 89 87 85 83 83 84 84 86 81 79 80 80 74 71 83 95 94 95 94 95 99 92 78 69 60 60 65 69 75 77 84 89 92 89 81 95 95 88 70 44 45 80 89 78 71 66 76 76 75 79 77 76
90 88 87 88 86 85 85 86 84 80 79 78 77 72 74 78 94 90 87 88 85 94 96 96 97 75 60 68 84 83 75 85 86 90 94 89 82 90 92 99 52 46 42 43 56 79 79 78 78 78 75 74 71 76
88 88 89 89 88 86 83 82 81 80 78 75 68 71 76 77 81 91 97 85 90 96 95 97 93 87 84 95 95 83 89 90 91 92 92 95 85 85 93 73 62 58 56 50 71 87 84 76 77 78 79 77 82 83
89 89 90 90 87 84 82 82 80 78 75 69 72 77 88 92 94 94 78 86 96 95 99 97 99 98 91 94 94 96 88 97 87 97 92 82 81 94 71 65 64 59 83 89 90 91 89 80 82 86 86 87 88 89
89 91 92 89 88 85 83 78 74 74 74 71 80 84 95 93 74 81 93 92 95 93 98 96 98 98 95 96 96 99 97 95 99 88 86 87 87 67 71 95 87 72 88 89 97 98 99 98 93 91 93 93 92 91
91 92 90 90 88 86 81 72 73 76 74 91 92 95 92 81 91 94 88 94 92 93 92 85 98 92 88 97 96 94 99 98 99 96 88 97 96 98 88 98 97 91 84 91 89 92 94 88 89 94 96 94 92 92
92 90 89 87 87 85 77 74 76 89 92 86 90 88 91 89 95 92 100 92 94 95 93 90 96 96 95 94 99 98 98 99 97 98 97 96 99 97 96 98 99 98 98 87 85 89 85 93 95 94 90 89 88 88
91 90 87 86 86 79 79 75 75 80 86 91 89 87 87 92 68 66 73 81 87 95 98 98 97 96 93 93 98 98 99 96 99 99 98 99 93 96 98 78 92 100 99 99 98 98 95 92 88 91 89 83 85 86
91 90 86 86 86 84 82 76 77 82 87 92 82 62 84 88 88 94 90 90 92 98 98 98 92 99 95 99 94 100 84 99 98 97 97 89 89 97 97 89 75 78 93 100 100 99 99 99 82 79 80 80 82 92
91 90 89 89 89 88 82 76 76 91 94 98 84 75 86 88 97 100 98 97 95 99 99 97 87 94 97 98 96 98 98 98 97 94 94 89 97 98 97 97 79 63 69 77 91 98 95 97 94 79 85 84 82 84
90 91 93 91 90 85 81 83 90 91 97 95 95 86 93 92 93 99 100 99 98 97 98 92 92 93 93 99 96 95 94 96 93 97 94 96 96 94 98 98 98 65 60 69 71 82 85 77 71 65 67 68 88 87
84 96 91 92 89 85 84 96 95 94 94 94 96 95 99 98 97 98 96 92 93 94 96 98 100 93 93 93 98 97 98 94 96 96 97 94 94 95 98 97 96 90 62 91 85 86 94 91 93 55 52 63 80 88
97 95 93 90 88 86 96 99 93 91 96 96 99 97 97 93 95 92 92 93 94 98 97 96 94 95 99 99 95 94 97 99 99 99 97 94 92 92 94 97 93 93 96 98 99 98 98 97 96 91 74 84 83 83
93 91 90 84 86 95 98 98 97 96 96 97 96 90 92 94 93 90 92 93 93 94 96 90 92 92 94 94 95 95 98 99 98 84 85 91 93 91 91 96 97 95 86 97 97 97 84 72 63 60 60 68 78 83
90 90 86 82 80 96 94 99 97 94 98 95 98 99 98 97 95 97 96 95 94 97 94 94 92 87 88 86 94 93 96 93 95 91 78 73 84 91 92 97 98 96 97 98 98 97 75 61 60 61 64 66 81 77
92 94 88 88 99 97 94 98 99 96 95 100 98 98 97 98 99 100 100 98 96 100 97 88 85 84 79 85 90 91 88 92 92 94 82 81 71 87 85 90 95 98 98 93 96 78 62 62 54 56 62 63 70 78
99 87 98 95 99 100 94 97 95 96 98 100 99 100 100 99 99 100 99 96 94 94 90 94 80 70 79 86 85 89 86 88 89 91 78 81 86 83 87 90 98 95 95 93 86 70 59 53 56 60 64 62 68 77
88 92 100 100 99 96 98 96 96 99 98 100 99 97 96 100 100 96 100 98 94 92 91 90 85 90 83 83 94 90 88 85 75 79 80 86 86 87 92 93 95 95 94 90 89 83 78 56 54 61 62 72 76 81
84 94 99 98 96 99 95 98 94 96 98 99 100 100 95 99 96 100 100 94 80 90 96 86 92 90 95 92 94 82 82 88 82 88 86 93 93 81 93 93 93 93 90 94 96 93 86 63 61 70 72 87 88 88
77 88 93 100 97 95 98 98 99 96 99 100 100 99 95 98 98 100 97 88 96 93 93 97 97 97 94 92 81 70 75 84 82 69 64 92 91 96 91 93 83 75 92 96 96 93 91 93 85 85 89 92 90 91
96 95 96 93 98 92 95 99 96 97 99 100 99 98 100 99 100 95 91 91 93 93 91 88 84 88 82 73 72 67 59 73 92 91 63 90 90 93 94 91 82 77 88 83 92 92 91 90 89 88 88 84 74 84
96 98 94 84 87 85 92 86 85 96 100 99 98 100 99 98 95 85 89 94 93 92 93 93 85 82 72 63 73 73 78 94 87 65 62 90 91 93 90 86 84 79 94 88 89 85 83 84 86 87 86 95 90 89
86 89 97 96 95 97 95 98 98 98 94 90 89 100 94 89 83 86 86 90 86 90 93 89 91 88 82 76 72 78 82 91 96 97 96 92 91 89 88 86 81 76 84 89 87 89 86 82 83 84 86 87 89 94
97 95 94 97 100 100 94 91 92 91 79 92 92 93 89 87 90 91 87 92 98 94 88 74 63 83 95 95 94 92 92 98 99 94 92 86 88 91 97 97 96 96 95 93 76 81 87 90 88 88 87 91 93 97
94 94 97 100 98 98 90 90 93 95 92 86 84 91 84 86 88 94 92 91 87 74 66 70 76 93 84 81 79 80 95 94 94 92 93 91 92 96 94 92 92 96 98 97 95 96 72 87 82 97 97 98 98 99
96 98 97 98 96 95 96 96 97 80 92 95 97 95 79 82 91 91 78 71 72 71 88 80 81 92 90 90 95 92 83 97 100 98 98 99 96 96 95 94 95 98 98 97 97 97 97 99 98 98 99 99 98 97
100 98 98 100 99 96 97 99 100 100 100 100 98 100 97 95 93 86 92 93 91 86 74 74 90 77 94 97 97 97 86 97 97 97 98 97 96 97 98 98 98 97 97 97 97 97 97 96 97 98 98 99 98 98
97 97 96 99 99 97 98 94 95 96 98 100 97 97 96 92 80 81 93 93 75 73 76 91 95 97 96 96 96 97 90 100 100 87 78 74 75 88 100 99 98 98 98 98 99 99 100 100 100 100 100 100 100 100

GFSWCAN_sfc_rhum_045.txt.gz
RH
83 83 80 77 75 73 73 77 80 77 75 75 74 75 76 76 76 89 96 94 92 96 89 80 76 84 80 80 75 68 85 86 91 92 94 90 91 81 82 80 82 84 91 90 89 94 92 57 76 78 64 75 72 73
83 83 81 78 76 73 74 78 81 82 76 76 73 75 76 74 74 82 94 90 83 92 86 90 85 81 76 74 82 78 77 88 91 92 92 96 96 87 83 86 80 81 70 77 82 81 56 55 66 60 68 70 68 73
84 84 81 80 78 75 77 80 81 83 80 75 73 75 76 74 74 83 96 98 94 95 82 79 77 65 65 71 67 78 86 79 81 87 94 88 90 97 96 90 83 76 74 72 69 59 62 56 54 66 74 69 70 76
85 83 82 82 81 80 79 80 81 82 81 75 74 77 79 73 78 81 97 98 95 96 94 84 66 80 64 64 69 69 73 72 83 92 88 92 91 93 97 94 95 76 80 79 78 67 63 59 61 57 61 71 78 78
86 84 84 84 83 84 84 82 82 82 80 77 79 79 73 76 78 91 97 98 96 90 88 82 79 72 61 68 72 74 75 78 86 91 96 84 86 92 84 89 95 72 72 88 69 90 91 76 64 65 70 74 74 74
86 85 86 86 87 87 86 86 84 84 80 81 82 76 72 80 79 92 92 94 96 97 96 94 83 77 70 69 71 77 81 82 86 87 89 88 81 94 94 95 70 67 51 62 70 49 71 58 70 80 75 76 78 78
87 87 88 89 89 87 88 88 86 82 81 81 74 76 78 79 94 86 88 88 88 93 94 93 95 82 66 76 88 87 76 86 85 90 92 90 82 91 92 91 56 51 50 52 57 62 73 87 92 85 84 82 78 77
88 89 90 88 88 88 89 88 82 81 79 72 74 74 77 78 80 91 95 86 90 95 92 95 90 91 89 96 98 84 90 91 92 92 92 95 86 85 87 70 54 52 59 63 85 91 93 94 85 80 82 82 82 83
90 89 88 88 90 89 86 82 81 78 74 72 78 80 87 91 90 91 77 85 94 91 98 96 100 97 87 94 95 97 92 99 89 93 92 84 83 92 79 88 94 96 95 81 80 91 91 89 91 85 86 88 88 89
89 88 89 90 88 86 85 80 77 74 74 79 81 83 92 93 75 81 94 93 96 94 97 96 95 98 93 95 96 99 97 95 96 88 87 83 80 72 89 96 96 97 97 93 98 94 98 98 97 90 96 92 93 92
89 90 90 89 88 87 83 77 76 75 75 88 93 95 90 81 91 93 97 95 96 92 92 85 91 88 88 89 96 93 98 97 99 96 85 96 93 79 96 96 94 98 99 98 93 95 98 98 99 96 96 95 94 94
91 91 91 89 88 85 80 78 78 86 91 85 90 89 91 91 93 85 100 91 91 90 94 96 96 96 96 92 99 97 98 99 97 96 97 96 87 78 97 97 95 87 99 98 98 97 96 97 95 95 91 90 90 88
91 90 90 88 85 81 79 78 76 78 82 85 83 83 84 90 65 61 64 80 82 94 98 99 96 97 94 94 94 99 98 98 98 98 98 86 82 82 96 98 93 85 95 99 98 99 99 99 99 97 78 75 81 86
90 87 86 85 83 81 76 78 77 80 85 88 76 63 82 83 84 89 88 90 90 97 100 98 90 97 96 98 93 99 81 98 98 96 92 96 81 91 92 96 90 78 67 92 100 100 100 100 100 99 94 82 82 86
86 85 86 86 86 82 78 77 79 90 93 93 81 69 82 88 98 98 97 98 96 98 98 96 96 87 91 94 93 95 90 99 95 92 96 94 87 95 95 93 97 96 67 68 78 97 99 99 98 97 90 84 85 82
86 87 92 89 87 81 80 82 89 90 97 92 92 87 94 91 93 99 100 99 97 97 98 86 91 90 87 94 88 90 88 90 90 97 96 93 93 92 93 96 98 96 83 61 78 82 94 96 94 93 63 59 77 86
83 97 91 89 86 83 81 93 94 92 94 91 95 96 96 98 95 98 97 93 95 92 92 97 91 78 91 93 94 92 96 93 95 96 97 94 93 90 89 93 95 96 91 77 86 94 98 98 98 98 96 60 74 81
99 93 91 88 86 86 97 97 94 95 99 100 93 97 96 92 94 93 94 95 94 97 96 88 92 96 99 98 91 93 97 99 98 98 98 93 89 88 90 92 90 95 94 95 98 98 99 98 96 94 94 92 86 81
91 90 88 83 83 93 98 98 94 98 98 98 98 99 95 96 94 91 92 95 94 93 94 96 96 91 94 93 93 94 97 97 93 85 88 87 88 91 91 91 92 96 97 94 93 96 98 98 84 87 63 66 82 75
90 87 83 78 76 94 94 98 96 94 98 95 98 99 99 97 97 98 97 96 96 97 99 96 93 87 85 83 92 91 95 91 94 92 75 70 80 90 89 88 86 88 95 96 97 96 98 97 94 61 63 62 67 75
90 91 85 88 99 93 96 94 97 97 99 99 99 98 97 97 99 100 100 99 97 100 98 92 89 79 78 85 87 88 89 92 92 94 81 81 70 94 88 89 94 95 96 93 96 96 95 97 94 53 57 61 68 68
99 86 97 94 98 95 96 97 96 98 97 100 100 99 100 97 98 100 100 96 88 94 92 95 92 77 72 80 85 88 85 86 90 92 78 77 88 79 77 90 98 93 92 92 94 95 91 96 96 58 58 57 59 72
88 93 100 99 95 93 99 96 97 100 97 100 99 97 97 100 100 95 97 92 95 94 94 95 91 91 87 86 95 92 93 92 86 76 69 68 70 82 89 88 96 97 95 86 94 93 92 79 72 63 55 59 67 74
82 91 98 95 92 100 95 98 93 96 96 96 98 100 96 98 96 100 100 95 84 92 96 89 94 92 95 94 96 89 88 94 92 85 74 76 74 60 74 73 84 94 91 87 93 94 95 88 76 67 63 76 84 82
83 94 91 99 95 96 97 99 97 96 94 96 99 100 97 98 100 100 99 88 96 93 92 96 98 96 95 95 92 80 78 80 80 77 64 73 72 81 79 83 82 84 92 95 93 94 92 92 90 88 87 89 87 88
88 97 90 94 98 91 96 98 96 94 99 100 99 100 100 99 100 94 92 92 92 93 90 90 90 95 92 83 80 71 62 82 94 96 67 79 85 86 82 82 80 74 94 92 94 94 93 93 91 90 90 84 73 84
98 100 95 80 86 83 90 86 84 96 100 100 99 100 99 100 97 85 89 94 90 90 87 81 86 84 70 62 72 73 83 93 83 68 66 90 89 84 83 86 84 77 93 93 93 92 88 88 89 89 87 95 88 87
84 91 96 97 97 95 95 98 98 98 94 90 89 100 94 90 82 85 84 90 88 93 91 88 86 86 82 76 74 78 82 94 96 95 92 89 88 89 92 93 92 85 86 89 90 88 88 87 87 86 87 85 87 93
95 90 92 98 98 100 96 92 92 92 79 93 91 92 89 87 89 91 84 88 98 96 90 76 67 89 92 94 94 91 92 98 98 90 86 77 83 91 98 97 97 96 96 96 88 83 92 89 89 87 86 88 90 96
98 96 97 99 100 100 92 90 93 95 90 85 83 92 90 90 89 93 92 92 90 78 70 72 76 94 80 80 81 83 95 94 93 90 92 86 91 97 96 96 94 91 95 97 97 96 77 88 84 98 95 97 97 97
97 96 97 99 97 95 96 96 95 83 93 97 98 97 80 85 92 90 77 70 72 74 85 83 80 87 92 91 93 95 86 98 98 98 100 99 97 97 94 94 94 97 97 97 97 97 98 98 98 98 98 98 98 96
100 98 97 100 100 97 98 100 100 100 100 100 100 100 97 96 93 88 91 94 95 91 79 78 87 74 90 95 98 99 78 97 97 98 99 99 98 97 99 99 99 98 97 97 97 97 97 97 99 99 98 99 98 98
96 97 96 99 99 98 98 95 95 96 98 100 97 98 98 94 83 82 91 90 73 75 75 89 95 96 97 96 96 98 87 98 100 89 80 79 70 81 98 99 98 98 97 98 98 98 100 100 100 100 100 100 100 100

GFSWCAN_sfc_rhum_048.txt.gz
RH
92 86 82 81 81 80 78 77 77 75 76 74 76 77 77 75 77 89 97 96 89 94 90 85 80 86 81 82 79 73 86 83 94 95 94 92 93 86 85 82 85 86 92 92 92 94 92 63 77 79 61 75 75 78
90 84 82 82 82 81 79 80 80 78 77 75 75 77 76 73 77 80 96 91 86 90 87 92 87 85 84 77 84 78 80 86 95 90 88 89 97 91 88 87 81 85 73 72 81 78 61 64 71 64 69 74 73 77
87 83 82 82 82 80 77 81 83 81 79 75 75 76 75 74 76 81 98 99 92 91 82 80 80 70 65 73 73 78 84 80 84 89 93 86 86 93 98 92 86 81 78 71 72 68 75 66 66 71 72 70 68 71
86 84 82 82 81 80 81 82 82 81 79 74 76 78 74 76 74 80 98 99 95 94 91 82 67 79 68 67 70 74 77 76 83 88 87 93 94 92 98 96 97 86 85 86 85 76 73 75 70 66 56 72 74 75
85 84 82 82 82 83 85 84 82 82 78 76 78 76 75 75 77 92 98 99 95 85 88 82 80 75 67 71 76 78 79 81 88 92 94 86 90 90 91 92 95 74 80 91 93 83 82 71 60 49 68 84 81 82
85 84 82 83 84 85 86 86 85 83 78 80 80 74 76 76 79 89 93 89 96 94 90 91 83 81 76 69 68 77 86 86 90 89 91 90 80 87 85 79 71 70 54 52 60 54 59 57 57 63 88 79 80 83
87 83 83 85 86 87 87 88 87 82 81 82 75 77 80 78 92 87 80 85 89 91 89 94 95 80 79 88 92 90 85 94 91 94 93 88 80 91 92 86 59 59 63 81 90 81 83 78 91 89 92 79 82 84
84 83 85 86 88 88 89 89 86 81 81 75 76 77 75 76 79 91 96 85 88 94 89 93 90 91 91 96 98 86 92 91 92 96 91 90 83 83 82 67 74 80 88 92 90 91 86 85 91 86 85 87 84 86
85 84 86 88 88 89 90 89 85 82 75 76 78 77 86 90 90 91 77 87 96 87 96 97 99 96 88 94 94 98 92 97 93 93 90 83 81 95 87 90 96 97 98 98 95 96 84 80 82 94 97 93 92 90
86 87 89 88 88 90 89 86 83 78 82 81 81 76 88 95 76 82 90 91 95 96 95 98 93 98 90 94 94 98 97 94 99 88 87 91 88 80 77 83 96 95 90 96 97 96 97 97 97 96 96 94 96 95
88 89 88 89 90 88 87 83 78 82 77 85 87 92 91 82 90 90 98 94 95 90 95 95 97 96 90 97 99 95 100 98 99 98 94 95 97 80 86 86 88 90 79 85 95 98 98 99 98 97 97 95 96 97
89 89 90 90 88 87 84 81 83 86 91 83 88 89 90 88 88 78 99 89 86 79 96 98 96 95 95 96 99 95 94 99 98 97 98 98 88 74 84 90 88 96 92 83 86 94 94 98 99 99 99 99 98 97
89 90 89 89 88 85 83 82 72 78 77 79 80 82 81 87 64 54 63 82 83 95 98 97 92 98 94 96 98 99 100 98 98 98 97 89 84 74 90 88 90 93 88 81 82 91 93 99 99 99 98 97 91 86
90 90 89 88 85 83 84 79 77 76 81 86 78 67 78 79 81 85 81 87 89 96 98 95 96 96 98 98 91 97 87 90 98 99 92 96 82 80 92 92 92 91 93 84 81 94 98 99 97 100 99 97 90 89
91 90 88 85 84 84 83 78 76 87 91 88 78 62 84 89 99 98 98 98 97 95 99 96 97 85 90 88 87 80 79 91 95 91 94 93 84 90 92 90 92 93 95 94 68 83 96 97 97 97 97 89 85 92
89 85 92 84 84 83 80 79 86 89 95 90 89 85 91 91 95 99 99 100 98 98 95 96 96 92 86 85 84 88 84 84 90 96 95 93 88 90 90 87 89 92 94 95 76 69 82 92 97 98 96 94 85 92
83 98 87 85 84 82 77 91 94 94 94 85 92 93 94 96 91 97 98 94 96 92 92 97 87 76 85 92 92 83 90 94 94 95 97 89 90 91 87 89 90 92 92 92 93 82 87 94 99 98 98 98 93 92
92 90 87 86 83 86 96 96 94 92 95 100 89 98 94 92 94 94 94 97 94 96 95 86 92 99 99 97 91 92 97 99 97 99 98 94 91 89 87 92 90 91 89 89 92 94 95 98 98 97 98 98 96 87
88 89 87 81 82 94 96 98 93 95 100 99 99 100 99 97 95 94 94 96 95 93 95 98 100 100 94 93 92 93 96 97 83 87 88 85 87 89 88 91 90 90 92 93 93 90 92 93 95 98 98 87 83 83
88 85 81 75 74 93 94 97 94 92 97 98 97 99 100 99 98 98 97 97 97 97 99 100 95 86 86 82 95 94 93 84 92 94 77 74 80 89 89 89 86 90 93 93 93 83 85 91 95 98 97 92 68 81
82 88 83 88 97 93 95 96 94 100 98 99 99 98 98 97 99 100 100 99 97 96 98 95 94 81 80 85 87 85 80 90 93 93 87 83 80 94 89 88 93 87 90 83 92 90 86 90 90 97 97 96 67 77
98 83 98 92 95 92 96 97 97 96 97 100 98 98 100 95 99 100 98 99 97 94 94 94 94 90 84 82 84 89 84 86 90 93 84 86 95 89 77 75 92 87 81 84 89 87 85 85 96 98 97 95 65 63
85 93 100 94 92 93 99 97 96 99 96 100 99 97 99 100 100 95 99 92 94 94 94 96 94 94 92 89 95 92 92 93 94 92 82 73 76 79 80 78 85 90 83 73 85 91 90 82 86 87 94 97 92 73
78 92 96 96 93 100 94 99 94 97 97 98 99 100 99 100 96 100 100 96 86 92 96 91 95 92 95 94 97 91 86 95 93 92 84 80 91 72 66 67 71 74 80 77 83 88 92 92 84 90 80 81 94 92
80 97 93 100 97 96 94 97 98 98 92 91 98 100 98 98 100 100 99 91 96 92 92 95 98 96 93 93 93 86 84 86 89 81 73 83 84 84 74 74 76 72 89 94 88 86 91 96 97 94 88 85 80 82
93 98 90 98 99 90 97 99 99 97 98 100 98 100 100 100 100 95 92 91 90 92 91 87 77 92 89 86 84 79 69 90 96 95 72 87 85 86 86 79 77 71 92 91 89 89 91 94 95 94 90 87 80 81
99 100 98 82 85 83 90 87 86 96 100 100 99 100 99 100 97 86 89 93 89 88 89 84 84 81 71 66 78 85 88 94 85 71 71 94 90 90 84 84 82 80 96 96 96 95 93 89 90 90 89 92 88 86
85 93 96 99 97 96 95 98 97 97 94 90 90 99 95 89 81 84 82 89 84 91 92 92 92 87 84 80 79 77 81 96 97 94 92 92 91 93 95 96 96 87 89 96 94 96 96 95 92 88 89 87 89 92
93 93 92 98 100 100 96 93 92 92 78 92 90 91 89 89 91 91 85 91 98 96 86 70 66 93 93 96 96 92 93 99 98 93 90 82 80 86 98 98 97 96 96 97 84 82 87 94 96 92 88 87 88 96
99 95 96 97 100 99 94 93 94 95 88 83 82 92 93 93 89 94 91 90 86 72 68 80 81 97 86 89 83 86 95 95 94 91 91 84 88 97 96 94 94 93 96 96 95 95 84 92 88 98 96 97 96 94
96 96 97 98 96 96 97 96 94 80 94 99 98 96 92 93 92 93 81 69 71 83 91 86 83 94 92 93 96 94 85 96 99 96 99 100 98 97 97 97 98 99 98 98 98 97 97 97 98 98 97 97 98 96
99 98 99 100 100 98 98 100 100 100 100 100 100 100 96 97 93 90 92 95 94 93 81 84 92 79 90 92 96 96 76 98 98 98 97 98 98 98 98 99 100 99 98 98 98 97 97 98 99 99 98 99 99 98
98 97 97 100 99 98 98 95 96 96 98 100 98 99 99 96 86 85 94 96 88 88 89 93 95 96 95 94 97 98 88 99 100 90 83 82 77 80 92 94 99 98 98 98 99 99 100 100 100 100 100 100 100 100

GFSWCAN_sfc_rhum_051.txt.gz
RH
93 90 90 88 83 81 78 76 75 76 75 77 77 76 74 75 75 86 98 96 84 96 92 88 86 90 79 80 87 73 87 87 93 96 92 95 92 89 87 83 87 86 92 95 92 89 88 60 68 72 72 76 75 73
93 91 88 88 85 82 80 77 76 77 77 77 77 76 73 74 75 78 96 93 84 90 88 89 87 85 84 82 87 85 87 85 97 92 87 87 94 88 94 86 79 85 73 75 78 73 62 67 65 71 74 74 73 80
92 90 88 86 84 83 82 79 78 79 78 77 77 76 73 72 71 82 98 98 90 91 86 85 84 73 69 77 76 78 90 84 88 93 93 85 88 88 97 93 93 84 82 82 76 75 76 63 75 65 59 53 58 74
92 88 87 85 84 84 84 82 80 80 77 76 76 74 74 71 71 81 98 98 91 90 91 84 68 81 73 72 76 76 79 82 85 88 86 93 93 92 91 89 94 92 80 87 82 82 57 68 52 54 57 57 79 78
91 87 85 85 85 85 85 86 84 81 77 76 78 76 73 74 81 93 98 99 93 84 89 86 82 76 73 76 81 81 80 84 92 94 95 88 88 86 91 90 88 80 72 77 78 67 62 63 59 62 66 76 86 88
89 86 85 85 84 85 87 87 86 83 78 80 78 78 74 78 80 81 82 86 96 91 90 94 84 84 73 77 76 84 86 92 94 92 95 89 80 88 86 75 70 71 63 57 75 73 85 83 72 66 84 88 90 89
87 84 83 83 84 87 88 88 87 83 80 82 77 77 76 78 94 84 78 86 88 89 87 95 95 80 90 91 93 91 88 95 93 96 96 93 83 89 92 78 57 66 78 82 77 86 86 78 87 80 81 84 80 79
85 82 82 84 86 88 88 89 87 83 82 78 77 77 77 76 81 90 95 84 85 89 86 90 89 89 86 95 94 94 96 93 96 96 95 95 94 90 83 62 70 76 94 88 81 85 90 88 89 74 80 91 95 85
85 82 84 86 87 88 89 88 86 84 78 80 78 76 84 89 89 91 79 86 93 85 94 96 91 84 86 93 94 98 96 97 96 95 91 88 95 96 78 80 78 88 98 95 86 86 81 86 91 95 90 96 97 95
86 84 85 86 87 89 89 87 86 82 80 79 80 75 90 95 78 83 88 86 93 96 95 97 92 98 92 94 95 98 97 96 99 95 96 95 95 79 75 76 82 88 91 86 89 93 96 96 96 95 96 96 97 97
85 85 86 87 89 90 87 86 83 84 81 87 87 94 91 83 88 87 95 89 91 85 95 98 97 97 91 96 98 93 98 98 99 96 99 99 98 86 83 90 91 91 95 95 86 80 80 95 97 96 96 98 98 98
85 87 87 89 90 88 86 83 86 88 93 83 89 89 85 84 87 72 96 87 81 77 98 97 97 96 94 96 88 92 91 96 99 98 99 100 93 80 81 90 90 92 96 94 82 76 77 84 94 99 98 98 95 98
87 89 89 89 88 86 84 86 73 78 77 79 81 80 78 85 61 49 67 83 85 97 97 98 90 97 95 96 98 91 93 97 94 98 96 94 85 74 77 91 91 92 94 95 92 78 83 84 91 94 98 97 96 94
88 89 90 89 87 85 85 78 78 73 80 84 80 71 77 76 74 80 80 89 92 96 96 94 95 94 97 98 92 82 81 94 98 98 96 96 84 78 85 91 93 88 90 95 96 93 87 92 97 95 98 94 91 85
89 90 89 88 85 85 80 79 73 85 88 83 79 65 84 92 98 98 98 98 96 95 97 96 97 93 95 86 81 83 75 90 93 93 94 92 82 87 89 89 89 91 92 94 93 95 90 89 93 92 95 98 94 82
90 88 87 87 86 85 81 76 84 87 92 88 88 85 89 92 100 99 98 99 94 98 96 94 98 97 87 80 81 86 96 94 90 96 94 92 81 81 84 85 87 91 93 93 93 93 91 88 88 89 95 98 98 94
80 97 88 89 88 80 72 90 92 92 89 82 93 86 90 91 92 96 97 92 96 93 93 96 82 75 84 90 90 82 92 92 94 94 96 85 81 85 87 87 85 88 91 90 90 90 92 91 93 97 98 92 98 97
95 89 89 86 78 81 94 94 92 89 90 100 91 98 87 89 94 97 96 98 92 92 92 84 91 99 98 99 92 91 96 99 98 98 96 89 91 90 86 90 83 89 90 90 92 93 95 94 90 88 94 96 98 98
88 88 85 76 82 92 94 98 93 94 100 99 98 99 97 93 95 94 95 96 94 90 95 99 100 100 92 92 90 95 94 94 83 78 87 84 85 86 86 89 90 90 91 92 88 85 88 93 89 83 86 97 97 96
87 83 77 76 73 92 91 97 92 91 96 97 97 98 100 99 98 98 99 97 97 98 99 99 93 81 82 83 94 93 91 82 89 91 78 79 83 89 87 88 85 90 88 85 87 76 87 92 92 93 93 98 97 96
82 83 81 85 93 92 95 99 99 99 98 98 98 98 100 97 100 100 100 98 98 100 98 95 94 85 82 84 86 85 83 90 94 93 79 79 80 95 92 90 92 86 87 75 74 68 70 78 84 92 97 96 96 97
88 82 97 89 94 94 97 95 97 94 96 99 99 98 100 97 100 100 98 99 91 95 95 95 94 94 84 79 82 89 83 86 90 92 82 84 94 93 84 83 96 83 83 81 86 76 70 70 89 94 96 95 93 97
84 86 92 89 90 91 100 96 96 99 94 100 98 95 100 100 100 94 99 96 94 95 96 96 95 95 92 90 94 91 93 93 92 91 88 87 86 85 86 83 84 88 85 79 88 87 83 72 78 80 88 91 98 96
77 92 94 95 92 100 94 100 92 97 98 98 99 100 100 99 96 99 100 97 90 97 98 96 98 94 94 94 95 87 84 94 92 94 88 90 86 75 76 71 77 82 85 76 79 83 84 86 82 89 94 96 95 96
79 97 92 100 98 94 93 97 100 96 93 95 96 100 100 98 99 100 100 92 97 94 94 96 96 93 87 88 93 85 87 91 85 74 80 89 85 87 80 88 85 80 89 91 92 88 90 96 96 96 96 97 93 95
96 97 86 96 99 88 96 98 98 98 94 99 100 100 99 100 100 97 93 92 92 92 88 86 79 91 90 88 83 73 67 88 95 94 73 87 91 91 88 87 84 77 96 97 97 95 94 95 95 94 93 91 84 89
98 99 96 80 81 79 89 88 87 95 100 100 99 100 99 99 97 86 91 93 87 86 86 82 83 83 75 79 84 81 86 94 88 78 78 94 90 91 90 90 88 90 96 96 98 98 98 95 94 96 95 91 94 92
89 93 98 99 96 96 95 98 97 97 95 91 89 100 96 90 80 86 84 90 86 92 92 90 92 91 91 82 78 80 84 96 98 94 94 94 96 98 98 98 98 87 88 94 95 96 95 95 95 95 96 96 91 93
94 95 90 100 100 100 96 93 92 94 80 93 91 93 91 90 92 90 85 92 98 95 83 70 83 96 96 96 95 93 93 99 96 89 88 80 90 90 99 98 97 95 96 96 89 87 88 90 92 94 94 95 96 95
100 95 95 99 100 99 96 95 95 96 90 84 82 93 94 93 90 95 90 89 82 68 72 88 92 95 88 94 86 89 96 95 94 89 87 79 86 96 99 98 97 97 98 99 98 95 87 92 93 97 93 96 97 97
93 96 96 98 96 97 98 95 95 80 94 100 98 96 91 95 91 94 84 68 82 93 92 86 89 97 96 95 96 95 83 95 99 96 97 99 99 98 97 98 98 100 100 99 99 98 99 99 98 98 97 97 97 95
98 98 99 100 100 99 98 100 100 100 100 100 100 100 97 97 94 89 95 94 93 90 81 88 97 90 94 97 97 97 82 97 99 98 98 98 98 96 96 96 96 100 100 98 98 99 99 100 100 100 99 98 98 98
97 97 98 100 100 100 98 95 98 97 98 100 98 100 100 98 88 87 97 99 94 93 94 96 95 96 96 96 98 98 92 99 100 88 82 82 77 81 86 99 98 97 98 99 100 100 100 100 100 100 100 100 100 100

GFSWCAN_sfc_rhum_054.txt.gz
RH
88 89 92 92 92 89 85 81 78 77 77 77 76 76 74 74 75 71 85 81 57 64 72 72 70 60 55 51 64 56 69 67 70 77 70 70 62 61 61 59 63 62 64 63 64 69 69 47 52 60 60 43 41 41
86 91 92 92 92 88 83 82 80 78 78 77 77 76 75 71 73 71 77 78 62 64 68 69 66 66 64 61 54 67 74 78 75 76 70 72 77 69 69 58 56 69 62 59 60 59 57 43 56 48 47 53 50 52
89 93 92 92 89 86 84 82 81 80 79 78 77 74 73 72 70 76 90 82 75 73 66 59 63 57 54 59 60 50 63 66 69 71 73 70 74 72 64 68 72 64 56 61 54 60 53 44 54 44 48 57 56 58
90 92 92 91 88 85 83 83 81 78 78 78 75 72 72 74 74 75 79 84 76 72 70 68 54 63 55 58 61 62 62 64 65 66 62 74 71 73 77 73 62 59 46 54 47 43 50 51 47 52 61 59 59 67
88 93 92 90 87 85 83 83 82 80 78 78 76 73 76 78 80 82 89 87 76 74 74 71 64 58 55 60 64 61 60 62 62 68 72 71 68 63 60 60 55 47 68 73 62 54 64 64 64 67 67 64 66 71
93 93 92 89 88 85 84 84 83 82 82 81 76 74 77 78 74 69 77 78 80 78 85 80 69 65 64 62 64 65 68 69 68 65 72 71 67 72 62 47 51 52 57 68 76 66 75 75 70 66 69 77 73 76
92 92 91 89 86 85 85 86 84 84 85 80 77 75 78 79 86 78 73 80 81 76 77 88 86 65 79 77 74 70 70 74 68 76 74 67 64 72 69 56 54 60 66 75 74 80 88 83 92 82 83 82 81 78
93 91 89 87 86 87 87 86 85 85 81 79 77 78 78 77 78 79 82 77 73 76 70 89 81 73 70 80 79 77 75 72 77 74 74 72 72 72 73 58 52 61 70 81 73 72 74 71 76 81 81 84 88 90
93 90 87 87 88 88 87 86 86 84 81 80 78 76 80 81 77 86 82 83 84 75 85 79 78 78 68 76 84 87 76 78 76 72 71 72 75 86 61 59 62 66 76 80 72 70 65 66 76 85 86 95 95 96
92 89 88 88 88 88 87 86 84 84 85 81 75 69 88 87 79 80 77 74 85 85 81 88 85 81 75 76 80 83 85 82 92 73 76 78 73 63 58 59 66 71 72 78 88 88 80 83 74 79 87 88 93 95
91 89 88 88 88 88 86 85 85 84 74 79 80 90 86 81 80 72 82 81 69 76 81 85 83 80 77 83 82 80 93 89 92 88 81 84 76 63 59 67 67 65 66 72 76 76 73 68 71 79 84 88 84 82
89 89 89 88 88 86 84 84 82 82 86 79 86 84 80 74 78 72 87 75 65 74 90 81 84 77 81 82 84 87 90 90 93 88 90 94 76 62 58 63 65 65 66 66 65 70 69 68 64 73 81 84 88 83
88 89 89 88 87 84 84 81 72 78 76 78 78 84 74 75 65 59 67 76 84 93 93 92 86 80 82 81 88 82 93 85 87 93 84 76 64 53 53 59 66 85 81 75 67 66 70 74 74 74 80 81 84 82
87 89 88 87 84 84 81 77 77 71 76 82 82 68 77 68 60 63 64 82 84 90 88 80 88 86 85 89 82 87 68 89 92 91 87 77 68 58 59 61 68 59 61 77 87 83 84 88 86 85 86 80 82 83
89 89 88 86 85 83 80 77 71 82 84 80 80 68 79 87 93 90 94 94 89 85 86 89 87 75 86 79 72 72 73 83 79 85 79 76 64 64 60 55 57 60 62 64 65 76 84 87 89 86 81 80 86 87
90 89 87 85 83 82 77 73 83 83 89 87 86 86 85 88 99 95 95 97 87 86 80 79 89 89 84 79 76 80 86 89 79 87 77 62 56 59 59 59 61 62 63 62 60 59 62 68 74 82 82 81 88 91
80 93 87 85 84 77 70 88 89 90 88 79 90 77 82 86 88 86 71 73 82 80 84 84 79 70 80 87 85 73 86 79 86 80 72 70 66 65 67 66 65 65 65 65 63 65 71 69 77 90 86 76 80 88
91 90 87 80 73 75 91 92 91 90 90 93 84 89 73 73 77 79 82 84 80 77 81 81 83 92 85 85 78 78 81 86 81 78 77 70 59 63 70 68 65 68 70 80 85 84 84 86 85 70 79 82 79 84
89 87 81 74 76 90 94 94 92 95 100 95 94 90 85 83 85 81 84 83 79 73 86 89 88 88 75 74 77 82 81 75 63 57 59 58 62 66 74 80 84 82 82 81 74 63 64 70 70 68 73 77 82 85
86 82 77 73 74 92 92 95 90 89 94 96 92 96 92 92 91 93 91 88 85 91 93 94 76 62 58 60 73 69 68 65 66 65 57 52 60 76 79 79 72 75 74 74 72 68 69 62 53 61 69 74 82 85
82 80 79 84 92 91 93 95 98 95 96 96 95 91 98 93 99 99 99 93 94 97 95 80 72 65 68 63 64 66 68 70 67 65 60 67 58 71 77 76 79 70 68 61 59 59 60 58 54 57 64 71 75 82
85 80 94 86 93 94 96 91 96 90 93 97 95 93 96 95 100 99 96 97 95 88 80 76 76 73 72 70 67 75 68 70 73 75 74 73 76 73 68 69 75 77 78 78 71 67 63 60 60 64 70 75 77 82
82 84 90 90 90 92 100 91 94 95 90 97 95 93 98 98 98 92 98 93 89 82 81 84 86 88 82 83 85 78 82 81 69 66 64 64 65 74 78 73 70 84 82 73 69 75 75 66 65 69 73 75 78 84
77 91 92 92 89 100 90 98 86 94 94 94 95 99 99 96 92 97 95 89 78 79 83 92 87 81 76 81 74 64 65 75 72 75 70 69 70 57 52 60 60 62 72 70 73 76 75 70 71 72 74 82 83 85
76 93 87 99 95 92 96 97 98 91 98 98 99 100 98 94 93 100 95 88 84 77 77 76 79 78 67 62 67 65 74 73 70 67 62 72 64 63 70 69 65 66 71 85 82 81 85 82 83 85 86 87 90 92
93 98 86 92 96 84 93 96 96 96 94 99 98 96 95 96 100 93 87 86 77 79 75 71 64 66 69 70 64 62 58 68 76 77 65 74 74 79 83 83 81 73 82 85 90 92 92 89 90 93 90 88 87 89
92 99 92 76 75 78 85 84 81 89 98 95 96 97 95 96 93 81 74 78 74 80 78 76 72 68 62 62 69 70 71 82 81 71 69 79 79 78 85 90 87 77 85 88 93 92 90 88 89 89 89 87 89 90
90 88 95 96 90 88 93 92 94 92 92 84 84 100 92 85 74 77 78 79 80 82 83 82 82 81 78 73 73 75 81 86 91 90 86 82 82 87 92 90 90 84 83 88 89 91 91 92 92 91 90 91 89 89
96 88 86 99 97 91 90 86 86 84 75 86 86 88 87 81 85 82 76 83 89 85 81 77 81 89 87 87 89 89 90 92 93 85 78 69 74 81 93 90 90 91 92 92 88 88 91 92 92 92 93 92 90 93
98 92 92 98 92 97 96 90 92 91 82 79 77 87 87 87 85 88 86 84 82 76 83 86 91 93 89 92 87 88 86 89 90 83 83 76 80 84 93 93 92 93 93 93 92 92 87 88 90 92 92 92 91 89
91 94 94 95 96 97 96 91 92 77 92 97 95 93 88 92 88 88 88 88 92 94 92 85 92 94 93 91 91 87 78 88 94 93 92 92 93 95 94 92 93 95 95 95 94 93 94 93 93 96 95 95 95 93
93 97 93 96 100 97 94 98 100 98 99 100 100 98 96 96 93 85 92 92 92 92 84 91 94 86 92 92 93 93 86 91 94 92 96 94 91 91 92 94 94 94 95 94 95 96 96 98 97 96 95 97 97 97
97 98 99 99 100 98 95 93 97 97 96 98 96 97 97 97 89 85 90 94 93 90 89 90 89 89 92 94 94 94 91 95 100 90 86 82 75 79 83 90 95 94 94 93 95 96 98 99 98 98 97 98 97 97

GFSWCAN_sfc_rhum_057.txt.gz
RH
72 81 83 88 90 93 93 91 87 81 78 78 77 76 75 73 68 58 69 60 47 56 64 57 54 49 50 46 53 53 58 59 59 70 69 63 56 49 51 51 54 58 62 61 54 68 66 42 48 57 54 47 48 48
76 80 85 89 93 93 93 90 84 82 80 77 77 73 74 74 72 60 64 54 45 54 65 55 56 55 57 56 48 59 64 65 64 66 59 62 62 56 50 55 49 60 51 53 52 56 48 40 43 44 44 51 52 55
74 81 85 90 94 94 92 88 84 82 82 78 77 76 71 70 68 64 69 57 50 56 56 50 60 53 48 52 51 52 56 60 60 62 56 58 65 60 52 50 56 56 46 55 50 51 48 38 40 43 46 57 55 53
78 83 88 89 92 93 92 89 84 83 78 77 74 73 73 73 66 60 59 65 63 48 60 68 48 54 48 50 53 51 54 54 53 53 57 63 61 63 57 60 56 51 42 48 40 32 44 42 42 50 61 60 57 54
87 86 89 93 92 92 91 88 84 82 79 75 75 76 74 71 71 69 69 70 61 65 62 65 54 51 48 51 52 49 49 51 50 61 63 60 55 54 46 45 41 38 47 50 46 56 57 53 53 60 67 65 66 73
87 87 89 93 92 91 90 88 84 82 81 79 77 77 73 72 65 54 60 68 62 66 76 75 61 66 56 52 55 56 57 55 54 55 61 59 59 66 58 41 43 44 51 56 68 71 73 66 63 61 72 76 77 83
84 88 89 92 92 91 88 84 83 84 82 77 76 74 76 76 75 70 74 71 69 65 67 86 82 65 69 67 64 62 59 64 57 66 64 56 58 66 63 52 39 47 53 57 64 70 71 64 69 61 67 70 72 74
83 87 90 93 91 90 87 84 86 84 80 77 76 76 75 76 74 67 72 72 66 60 61 97 89 70 64 71 74 65 64 62 67 66 67 65 66 67 73 51 46 47 52 55 61 58 61 58 55 54 62 74 82 81
88 94 92 90 90 89 86 87 85 82 82 80 74 68 76 72 66 76 81 72 74 70 91 82 87 81 63 74 75 75 66 72 66 66 62 67 66 83 56 46 44 50 58 60 60 62 60 57 58 58 57 66 76 85
92 94 91 91 90 86 87 86 84 84 83 71 64 63 85 81 78 79 74 69 79 73 70 82 79 82 68 69 74 76 79 73 89 66 68 70 65 52 47 45 48 51 53 55 71 80 77 82 69 61 56 59 68 74
94 92 91 90 89 88 87 85 84 84 69 65 73 90 87 80 78 66 85 84 60 82 67 72 75 76 69 79 74 72 87 83 89 84 80 77 66 51 44 45 48 47 46 48 50 54 55 57 61 62 60 58 63 70
94 90 90 90 90 88 85 84 83 70 76 77 86 79 77 74 84 82 82 77 74 72 75 69 72 65 74 70 71 81 83 87 88 82 86 88 73 51 44 52 46 45 48 48 46 47 47 50 53 61 64 67 69 71
90 89 90 90 87 85 85 82 72 79 71 71 76 94 81 74 75 75 69 76 82 84 87 80 85 69 75 74 81 77 87 78 80 87 76 74 54 42 41 43 45 73 75 70 59 55 58 62 65 67 69 68 65 67
88 90 90 89 86 86 82 79 75 68 74 86 93 68 88 74 64 72 68 87 79 84 80 73 81 78 73 82 77 85 62 78 84 81 74 66 56 43 40 41 44 41 47 68 78 78 82 86 84 81 81 74 70 69
90 89 89 88 87 80 81 74 66 79 83 93 96 70 78 84 86 89 93 88 82 72 76 80 80 65 80 81 64 72 73 78 70 70 80 69 49 45 44 44 46 46 47 51 52 65 78 82 82 77 68 64 66 67
89 90 87 88 82 82 74 72 80 76 94 98 88 85 78 88 94 89 93 95 80 74 73 72 82 79 82 76 76 80 77 80 74 89 71 47 46 48 50 50 52 51 52 53 50 49 52 54 60 65 64 66 70 72
83 94 89 84 82 74 70 86 87 93 96 97 91 73 88 79 88 79 60 63 65 73 84 80 73 73 76 83 78 64 81 77 83 78 68 61 65 63 57 55 58 60 59 60 57 60 66 64 71 81 81 69 66 71
91 90 85 78 66 75 82 92 95 95 86 93 90 83 65 60 65 63 68 70 72 72 78 82 73 82 76 77 71 74 80 92 76 68 60 57 52 50 59 61 61 63 67 77 83 83 81 83 81 69 66 66 68 71
87 84 74 65 67 87 94 91 94 92 98 91 86 80 76 76 75 68 70 70 66 62 82 83 79 80 69 68 79 89 87 73 53 46 47 48 49 53 67 78 83 82 84 83 77 66 61 64 63 63 65 64 66 64
80 72 71 71 73 92 93 91 91 91 94 94 86 88 86 88 85 80 81 78 78 92 86 87 67 60 55 57 73 69 71 61 55 50 46 42 42 70 77 79 69 73 74 71 68 62 57 56 53 53 54 56 61 63
77 79 77 82 92 88 88 90 95 93 92 94 90 85 95 90 96 97 97 89 92 91 89 73 62 58 60 51 53 56 58 59 53 50 43 53 47 56 65 69 75 62 59 57 56 56 58 57 56 57 57 58 62 67
86 79 92 84 91 92 93 90 94 87 91 92 89 86 92 92 97 98 95 95 92 85 76 67 68 67 72 72 64 71 63 62 61 60 61 62 68 67 66 67 73 77 79 79 72 69 66 64 62 61 62 62 66 70
80 84 94 95 91 89 99 93 92 89 86 90 92 87 93 93 94 91 94 89 85 75 77 78 85 89 82 82 84 78 76 74 60 56 54 54 54 62 71 70 65 78 78 70 66 69 72 64 64 64 63 65 67 70
76 94 95 94 91 98 88 93 79 85 85 83 81 88 93 94 90 93 86 83 76 74 78 90 80 72 73 81 67 61 69 68 63 64 62 62 67 56 49 50 48 54 64 64 70 75 75 69 69 68 71 81 84 83
79 94 91 95 91 90 92 92 90 80 89 88 86 92 93 91 90 93 84 86 82 73 75 72 71 70 63 57 60 58 73 66 64 61 57 65 61 60 64 64 58 56 65 82 82 80 83 79 80 84 85 87 88 91
89 93 85 83 88 81 84 88 87 89 86 92 92 90 92 91 92 86 82 84 72 76 74 68 60 62 61 61 56 56 58 67 70 69 59 64 71 74 82 78 76 71 73 79 88 89 89 85 85 88 86 85 84 84
89 94 84 66 69 72 79 78 74 78 87 88 91 94 92 90 84 77 70 72 73 81 78 77 69 65 60 63 66 64 66 72 79 67 64 73 75 72 80 85 83 75 80 83 86 87 89 88 89 89 89 87 86 86
85 83 90 88 83 82 89 85 86 85 84 76 78 91 86 76 71 77 78 80 83 83 82 76 73 76 77 72 72 72 76 80 88 88 84 80 80 82 87 86 88 83 84 86 87 88 90 91 93 92 92 92 90 87
90 80 81 94 92 85 84 81 79 74 66 77 80 80 81 75 82 82 79 79 82 81 79 80 84 86 84 82 83 85 87 88 88 83 74 64 67 86 88 88 90 89 90 90 85 85 88 90 89 88 90 90 92 93
94 89 87 90 88 89 94 88 88 85 75 74 71 79 79 81 83 82 81 82 80 82 86 88 90 91 90 90 88 84 85 87 89 83 83 79 84 88 89 90 91 91 93 93 94 93 85 87 88 90 91 92 92 93
87 88 90 88 94 94 93 88 86 70 86 91 90 89 86 90 83 83 81 83 88 92 90 92 94 93 90 91 91 87 80 90 96 92 90 88 89 91 91 90 90 94 93 95 95 94 95 95 93 94 93 95 95 94
87 92 88 92 96 93 90 92 95 91 93 92 94 94 90 88 90 82 84 88 89 88 78 85 85 84 88 86 87 86 78 88 92 92 94 93 93 92 92 92 94 94 95 95 94 94 96 97 97 96 96 96 96 96
94 92 93 93 95 94 93 91 90 93 92 92 90 90 92 91 88 80 79 85 86 86 85 86 86 86 88 91 89 88 86 91 97 88 87 83 77 78 82 91 95 96 95 94 93 96 96 97 97 97 96 97 97 96

GFSWCAN_sfc_rhum_063.txt.gz
RH
77 73 73 67 66 64 69 86 89 90 89 89 88 85 74 83 82 74 88 80 78 94 90 78 76 80 74 79 84 73 76 77 87 85 89 89 85 74 79 80 78 81 87 90 89 94 92 56 63 76 74 75 78 77
78 71 73 69 66 65 74 86 88 88 91 90 88 78 74 84 71 74 81 65 67 86 85 70 69 69 72 77 80 84 81 85 89 85 87 89 85 86 80 88 75 82 75 84 79 82 59 61 80 79 78 84 86 87
74 70 73 69 65 66 80 83 81 90 90 88 88 76 76 70 64 74 84 79 78 88 87 83 80 64 60 67 66 82 83 76 80 87 88 88 83 90 86 85 82 82 69 79 72 69 66 79 80 77 80 83 80 71
74 74 72 69 66 75 79 87 91 88 88 87 85 77 72 69 67 70 82 92 80 82 93 89 61 70 58 64 62 65 71 70 74 84 91 91 89 85 88 83 84 79 61 64 68 82 77 84 82 76 74 72 76 75
75 74 71 66 68 82 89 93 90 88 88 86 85 80 73 70 72 81 91 87 83 76 96 94 77 67 66 65 66 66 67 74 85 91 94 89 86 77 74 68 74 64 65 68 64 83 82 84 86 73 74 73 75 80
76 74 70 68 75 83 87 91 91 89 88 88 83 77 75 72 71 76 67 72 81 80 92 98 83 85 81 75 75 75 76 81 87 88 92 88 77 87 82 80 61 76 76 74 90 86 88 88 83 79 80 77 80 84
75 73 70 70 76 80 82 84 92 86 86 85 79 77 78 78 93 85 70 71 75 83 91 98 99 85 84 86 88 88 82 89 89 92 90 89 87 90 91 86 63 68 75 85 84 81 84 82 84 76 74 70 72 76
75 71 71 80 81 80 84 91 90 90 85 79 79 77 74 73 75 74 81 74 82 90 88 96 98 92 78 83 91 87 89 90 89 93 90 88 87 91 96 75 70 71 76 80 79 79 80 81 78 78 80 76 77 78
77 74 80 83 87 92 91 91 89 86 83 82 78 76 82 89 76 73 70 79 93 74 97 95 96 96 82 84 82 91 92 96 90 91 90 88 93 97 77 74 72 71 72 75 75 78 82 84 81 82 80 78 81 82
78 79 81 86 91 90 90 90 87 85 81 82 80 75 86 97 76 84 81 74 90 93 94 97 97 97 91 75 77 85 82 92 95 92 88 89 92 78 69 73 72 70 67 66 76 81 78 88 76 75 74 74 78 81
80 82 79 89 92 91 89 86 82 80 80 81 91 98 98 80 85 78 88 78 92 90 93 96 94 98 90 93 87 84 84 86 89 96 92 88 92 82 71 69 67 65 65 67 66 66 67 67 71 72 74 75 78 80
81 82 84 86 92 90 86 82 75 78 80 80 85 88 90 84 88 72 93 86 84 86 95 94 94 94 95 89 92 82 89 85 86 90 86 85 89 66 66 66 69 69 75 70 70 69 68 65 69 77 81 83 83 80
81 82 87 91 89 88 83 74 69 80 75 88 79 81 76 82 69 50 71 87 97 98 98 96 98 96 91 82 84 91 94 98 93 97 89 92 79 62 61 59 62 74 75 74 67 66 68 73 76 83 88 86 88 85
81 88 92 90 90 84 73 75 81 71 82 81 74 59 68 70 81 89 82 90 96 95 92 94 97 94 91 92 89 90 91 88 93 99 95 94 77 62 59 57 58 59 63 79 82 77 80 86 85 84 88 88 86 82
88 92 88 90 88 78 74 83 72 81 90 84 76 52 91 97 99 99 99 96 99 93 94 94 95 86 97 92 86 89 90 97 92 91 94 95 75 67 62 62 65 73 74 77 77 83 86 84 84 82 77 79 78 75
92 91 87 89 86 76 80 74 77 83 93 89 89 93 91 94 99 98 97 93 98 93 96 90 94 93 97 94 91 94 90 92 86 97 97 84 67 72 77 76 78 76 79 80 80 76 76 81 82 79 77 82 82 83
86 95 91 90 79 80 72 86 89 90 93 90 98 90 96 92 97 97 94 94 92 92 92 92 76 79 94 96 93 91 91 89 96 98 98 81 77 79 79 74 69 71 78 81 82 83 86 81 90 94 91 76 82 79
88 92 90 84 72 69 87 96 91 90 98 99 95 99 86 88 90 92 94 92 90 96 94 82 90 88 87 78 90 91 97 98 98 96 95 84 77 73 70 69 68 75 79 89 90 92 94 92 94 91 88 82 84 85
88 89 84 70 66 85 86 92 91 98 100 98 98 98 94 92 92 93 90 85 88 89 88 93 79 88 86 92 90 97 99 97 81 73 79 72 70 70 75 83 87 89 90 91 90 88 91 90 89 85 85 89 86 78
87 84 68 73 73 89 87 94 93 92 98 97 95 97 98 99 97 96 96 95 96 94 79 78 62 66 76 82 93 94 96 90 80 76 70 68 70 83 82 84 83 89 92 94 93 81 90 89 84 82 87 88 79 79
86 73 72 82 92 93 96 98 99 98 97 97 98 98 99 97 98 99 98 98 91 94 85 94 78 78 75 81 86 83 84 83 80 74 65 86 68 90 90 91 93 89 92 85 90 82 81 91 84 90 89 83 82 80
78 71 92 86 92 94 96 94 96 96 95 97 97 95 96 98 100 99 98 96 97 91 96 97 96 93 81 74 76 77 75 79 81 83 73 78 89 92 83 87 95 86 91 88 88 86 85 89 91 89 91 81 74 76
74 82 94 91 88 86 99 96 94 97 84 96 98 91 97 98 98 96 96 97 95 97 98 96 94 96 95 95 91 90 93 89 84 80 76 80 80 86 91 84 91 92 87 80 94 94 92 79 85 87 82 78 80 83
78 94 95 96 90 100 92 99 93 97 97 96 91 90 94 98 97 96 82 95 92 98 96 95 97 96 96 93 94 92 90 94 95 94 84 85 93 77 77 77 84 89 88 80 88 92 96 93 83 84 84 93 92 93
88 95 89 95 96 91 95 98 98 90 96 96 89 90 93 98 97 94 85 88 98 96 96 98 98 97 93 95 96 92 93 92 91 88 83 94 93 92 83 91 90 88 95 97 94 97 97 96 96 96 96 96 96 94
94 96 90 88 95 82 94 92 94 95 94 94 93 94 98 97 84 65 88 93 95 95 96 94 94 96 96 93 92 90 85 96 94 92 89 91 94 95 92 92 88 90 98 98 97 98 96 97 97 98 97 95 94 95
95 98 84 73 83 79 84 88 88 90 90 85 91 96 94 79 70 74 92 96 90 94 95 93 89 88 88 89 94 94 95 96 87 88 89 94 95 96 95 95 95 95 98 98 99 99 99 97 97 96 96 94 95 96
86 85 85 96 95 95 92 95 94 90 90 82 80 90 74 62 67 86 90 94 95 97 96 97 96 95 93 92 95 96 94 98 97 95 95 95 98 99 98 97 96 76 85 93 95 99 98 97 96 95 96 95 95 92
95 88 90 98 95 94 96 94 94 88 75 82 85 90 85 92 94 91 92 95 98 92 90 88 90 98 96 97 98 99 99 98 83 78 82 85 91 93 94 92 96 96 97 98 91 90 94 92 94 95 96 97 95 95
96 97 93 95 93 95 95 94 96 93 82 85 81 92 92 93 95 98 96 94 89 87 92 95 98 95 93 92 92 87 97 100 98 94 97 94 95 96 96 96 97 96 97 98 97 97 92 96 97 99 98 96 96 97
94 94 93 93 97 96 96 92 91 72 90 96 95 94 93 95 93 97 97 98 99 99 96 97 98 100 95 97 93 93 91 97 100 98 99 99 98 98 96 96 96 97 99 98 98 98 99 100 100 100 99 99 98 99
94 96 92 93 97 95 94 95 95 95 97 96 95 95 94 93 80 92 97 97 96 91 86 96 89 87 96 98 98 98 78 98 99 98 100 100 98 95 96 96 98 100 99 99 99 100 100 100 100 99 98 99 98 98
94 96 95 95 96 94 94 94 95 94 93 92 95 99 99 96 75 88 97 98 93 92 92 92 96 98 96 94 95 97 86 99 100 86 82 78 77 78 91 99 100 99 99 100 100 100 100 100 100 100 98 99 98 98

GFSWCAN_sfc_rhum_066.txt.gz
RH
75 77 80 74 73 71 68 66 72 84 88 86 89 88 88 84 78 72 85 84 79 95 89 82 80 82 78 83 86 79 78 80 91 87 90 90 86 77 84 82 82 84 90 92 90 95 96 63 67 76 79 85 82 84
76 76 75 75 67 71 68 64 82 85 89 91 89 87 83 80 74 72 80 69 69 85 87 76 76 75 75 79 83 88 81 87 90 89 92 92 88 88 85 92 80 85 76 84 81 84 75 87 81 86 80 85 88 88
77 79 77 72 68 70 68 65 79 83 88 92 89 86 77 82 71 70 82 81 82 86 84 84 82 67 62 72 70 84 89 80 85 88 91 90 83 90 88 86 86 83 76 81 78 82 92 90 86 84 87 88 86 84
79 79 78 72 72 70 67 78 77 76 92 88 86 79 78 76 70 68 79 91 80 81 90 90 65 76 65 66 66 70 74 74 79 87 93 93 87 88 91 83 85 83 71 74 86 93 91 92 88 86 84 82 82 80
79 79 75 74 71 70 78 81 83 88 89 87 84 77 79 72 72 82 90 88 84 73 94 94 79 75 77 70 70 69 70 78 88 90 93 88 90 79 80 75 81 71 71 72 73 80 81 90 86 79 82 83 82 88
78 78 75 74 67 77 85 92 92 92 90 87 83 79 78 75 71 66 67 74 80 79 92 98 88 86 84 81 80 79 81 88 92 87 93 89 82 81 80 73 64 80 81 78 90 88 87 88 81 81 84 81 80 84
80 77 76 73 70 76 82 86 93 90 88 87 82 80 79 74 88 76 69 74 79 79 92 98 99 85 84 87 91 89 87 94 88 94 91 89 88 91 91 83 69 79 89 88 86 84 87 82 85 83 77 77 75 78
80 77 77 75 71 78 80 84 92 88 86 85 77 80 79 72 72 73 81 78 81 84 84 97 99 92 80 91 92 94 91 92 93 94 92 90 88 92 94 80 83 88 88 86 84 82 79 81 82 81 83 83 83 82
81 81 79 74 77 78 77 92 90 88 83 82 81 78 80 82 70 73 73 81 87 73 95 95 95 99 86 89 92 91 93 95 91 92 92 89 95 96 73 77 82 81 77 80 79 79 80 81 77 76 81 81 81 83
84 82 79 80 80 79 80 91 91 89 83 81 84 75 83 92 78 75 76 67 88 92 94 99 98 96 91 85 86 92 91 96 98 93 90 88 93 80 78 77 75 76 74 72 66 72 72 89 69 72 73 75 81 85
84 81 81 80 80 84 91 90 85 81 82 86 86 96 97 81 82 78 87 79 89 86 94 97 96 98 92 94 88 87 93 92 92 94 93 95 96 84 77 76 72 70 70 73 74 68 67 71 75 75 75 77 81 82
83 82 79 87 92 90 88 84 80 80 82 80 87 88 88 81 86 71 91 85 80 87 96 95 96 96 97 88 93 89 94 91 92 90 85 92 92 79 76 73 73 73 73 74 71 70 68 68 72 79 83 86 86 83
82 84 78 94 91 88 84 80 67 76 74 82 79 81 79 82 58 49 59 86 99 99 99 98 99 96 92 85 90 91 96 98 89 88 93 90 84 75 69 66 69 78 77 69 64 66 67 72 74 79 82 83 87 89
82 86 83 91 89 86 81 73 80 76 77 84 77 63 71 75 74 80 82 90 94 96 93 95 98 95 92 93 90 91 90 81 98 100 95 94 86 70 66 62 59 67 69 81 84 80 81 85 85 84 84 85 86 83
82 79 85 92 88 85 76 81 70 78 88 88 76 48 86 91 98 100 99 98 99 90 93 96 95 87 97 95 87 93 91 99 92 89 92 95 82 70 67 65 67 73 76 79 80 87 89 88 90 87 85 84 85 82
81 87 90 89 86 77 79 69 78 81 93 90 89 92 93 97 100 98 95 92 98 93 95 89 94 91 98 93 88 92 84 83 80 94 95 89 76 72 71 75 77 79 80 79 80 77 76 81 84 87 89 91 90 89
86 99 91 88 82 76 71 83 88 90 92 88 98 91 96 97 98 98 92 90 93 82 89 89 66 69 94 96 93 90 87 84 91 97 98 82 73 78 82 77 73 70 73 76 77 79 86 83 94 96 89 78 87 85
93 94 90 86 76 68 87 93 91 91 100 99 96 99 91 90 95 93 95 94 90 96 89 76 90 85 77 70 85 88 96 97 98 97 96 86 81 80 74 72 64 69 72 88 91 92 95 92 92 89 92 89 90 89
90 89 85 76 66 83 87 92 92 98 100 98 98 99 95 91 93 93 92 90 92 91 85 91 74 83 78 88 85 95 98 98 85 78 83 76 75 73 78 84 88 89 90 90 88 82 89 90 89 90 91 93 90 85
87 86 76 71 69 87 88 96 93 91 95 98 97 99 99 100 98 96 96 97 96 93 74 71 54 52 59 74 92 94 96 92 81 74 66 67 69 85 87 90 86 90 92 92 89 79 93 93 92 88 93 94 90 87
87 77 71 78 90 91 93 96 98 96 98 99 99 98 100 97 98 99 98 98 91 90 78 86 62 76 77 84 88 88 90 83 75 64 61 82 68 91 93 94 96 87 89 77 84 81 81 88 82 95 95 92 93 91
88 75 90 83 90 93 95 92 94 96 95 98 97 96 95 94 99 99 99 93 94 90 94 96 96 92 78 74 81 77 78 82 82 81 74 78 87 92 89 93 95 93 89 89 90 86 84 88 92 94 95 92 80 78
78 81 93 91 85 86 100 94 93 96 86 97 98 93 95 97 98 96 94 96 94 97 98 97 95 97 95 96 93 92 94 89 86 82 78 80 79 93 95 89 91 93 89 85 95 96 95 82 87 92 88 84 81 83
79 95 96 95 89 100 87 99 92 97 97 96 91 92 96 96 95 94 73 92 91 98 98 97 97 96 95 92 93 93 93 96 96 96 87 83 93 72 73 80 86 92 93 92 96 98 97 92 86 87 87 96 93 96
89 95 90 99 97 91 95 98 99 91 97 96 90 94 95 94 89 88 78 86 98 97 97 98 98 97 94 95 96 95 95 94 93 87 92 91 94 93 89 94 90 90 98 98 98 98 95 96 96 96 96 98 98 94
94 97 84 88 95 81 92 92 92 92 90 92 95 95 96 91 78 63 81 92 95 95 95 93 94 97 97 95 92 89 85 97 95 90 90 94 95 95 97 98 96 95 98 99 100 98 96 95 98 98 97 95 94 95
95 95 84 75 81 80 86 88 82 82 86 92 93 93 86 66 67 69 88 96 91 95 95 93 91 90 84 91 96 96 97 98 90 90 96 98 98 98 99 100 100 96 96 98 98 99 98 96 96 97 97 95 98 97
88 82 84 93 95 94 87 92 86 88 92 83 75 76 65 61 63 86 92 94 97 99 99 98 96 95 95 95 96 97 97 98 96 95 96 96 98 99 98 97 98 86 94 97 98 98 97 97 98 96 97 96 95 94
95 88 88 97 92 93 97 94 95 93 84 88 77 84 82 92 94 94 94 96 98 92 89 89 93 99 97 98 97 100 100 95 79 77 82 89 95 93 95 96 97 96 98 100 94 89 90 90 95 96 98 96 95 96
96 98 92 94 92 95 96 96 97 95 85 81 79 93 91 94 97 98 97 94 89 87 92 95 98 93 92 88 87 85 98 100 97 92 95 95 94 96 97 98 98 98 99 98 97 97 91 94 97 99 98 97 97 97
96 95 93 93 97 96 96 94 92 76 89 94 94 94 93 95 93 97 97 98 99 98 95 97 98 100 91 96 93 92 88 97 100 99 100 99 99 99 98 97 98 99 98 100 100 100 100 100 100 100 99 100 99 100
94 97 94 96 97 96 95 95 94 96 97 95 95 96 94 91 79 92 97 97 96 93 86 93 86 85 94 98 98 98 79 98 98 98 100 100 99 97 96 97 98 98 98 100 100 100 100 100 100 100 99 99 99 98
97 96 96 96 96 96 95 93 94 94 95 96 95 95 94 90 75 86 97 98 94 92 91 91 95 98 95 95 95 98 88 98 100 87 82 80 72 81 96 98 99 100 100 100 100 100 100 100 100 100 99 99 99 98

GFSWCAN_sfc_rhum_069.txt.gz
RH
70 70 72 73 73 75 70 70 69 69 82 83 90 89 88 88 88 68 85 84 80 97 93 84 78 78 83 85 87 82 79 79 91 87 89 91 86 85 87 84 83 85 90 91 91 94 88 67 72 76 77 87 85 86
70 72 74 71 72 73 67 70 68 75 82 89 89 88 87 86 78 67 72 72 71 88 88 79 79 80 80 82 86 90 81 87 90 90 93 93 89 89 87 92 84 84 75 84 82 84 82 90 84 86 83 85 88 88
75 75 75 73 76 73 73 70 66 73 82 90 91 88 83 82 68 68 79 82 82 86 86 80 81 67 66 75 74 84 91 84 87 89 92 91 82 88 90 88 87 85 80 84 81 85 92 91 89 88 86 86 86 87
77 76 72 76 76 74 73 68 70 74 76 89 88 85 80 81 70 65 76 89 79 81 89 87 68 73 72 72 70 75 78 80 83 90 92 92 84 89 90 84 85 83 78 82 87 94 92 88 88 87 86 84 86 86
76 74 75 78 75 75 72 76 75 75 78 87 82 79 81 79 72 83 90 91 82 73 92 92 80 75 83 77 75 71 72 80 87 90 94 90 93 84 84 81 86 76 78 80 81 79 82 85 87 84 83 84 83 87
77 76 76 78 77 74 84 85 90 86 90 83 80 82 80 74 71 67 70 78 77 80 90 96 90 86 84 83 83 82 85 90 91 86 94 92 85 80 81 76 63 80 82 75 80 87 86 89 87 82 84 82 81 82
78 77 78 78 74 76 83 91 92 90 85 82 85 84 82 76 86 73 72 76 75 80 90 97 98 86 86 87 90 88 89 95 86 94 91 88 87 90 87 78 70 85 90 89 89 85 89 84 88 82 81 77 78 82
79 79 80 79 74 81 81 87 88 86 84 82 82 78 74 72 72 78 87 80 76 79 84 98 98 92 82 90 89 95 90 90 94 95 93 88 88 92 92 79 83 90 89 85 83 81 75 82 81 82 83 83 82 83
81 81 81 80 75 80 82 91 90 88 82 83 80 75 79 83 70 74 76 76 85 71 91 94 97 99 86 94 93 90 92 94 92 93 94 89 94 95 67 80 90 91 82 81 82 79 80 79 78 75 79 76 80 80
82 83 83 81 79 82 88 89 87 85 84 81 80 85 82 88 74 78 74 65 86 90 93 98 97 94 91 94 95 92 93 96 97 94 92 89 91 80 79 78 80 81 79 81 74 77 76 86 66 73 70 72 78 82
83 85 85 82 84 84 89 87 86 85 81 89 91 96 96 84 82 81 88 74 88 86 91 95 93 98 91 94 97 88 97 97 97 91 93 97 95 88 81 85 81 79 76 69 68 65 67 73 73 77 75 73 77 82
86 87 85 82 85 84 83 86 84 87 87 82 87 88 87 81 85 68 84 89 78 81 95 94 97 96 97 88 92 89 94 93 93 92 86 96 88 83 82 78 77 77 73 67 68 72 74 65 72 78 81 82 82 81
87 86 84 84 79 78 85 84 80 76 74 78 84 81 82 81 52 55 57 84 98 98 99 99 99 94 90 85 91 90 96 96 84 89 95 92 84 82 81 77 77 81 71 65 64 67 67 71 74 80 81 82 84 87
87 85 78 80 84 88 89 82 76 74 77 86 78 60 69 70 75 76 80 88 93 96 94 98 99 94 93 94 91 91 86 78 95 100 95 94 85 80 77 70 64 65 65 81 86 83 83 89 86 85 85 85 87 89
85 79 83 93 89 85 82 76 70 78 87 82 79 57 85 85 96 99 98 99 99 84 93 97 94 85 97 96 88 85 90 100 94 84 91 93 83 79 73 68 68 69 72 75 78 85 90 90 91 88 86 87 90 89
82 83 87 93 89 85 76 71 78 81 93 90 90 94 95 97 100 98 98 99 99 92 92 87 89 88 98 93 89 93 83 81 77 94 94 92 84 77 71 70 72 77 79 78 78 77 75 79 82 87 90 91 89 87
80 89 81 92 86 79 67 83 88 91 93 88 97 92 96 97 95 95 91 87 92 82 83 86 63 69 93 93 86 88 82 81 89 92 98 89 78 75 76 77 75 74 76 77 77 74 82 80 94 94 89 82 86 89
86 86 93 91 79 68 89 93 91 92 98 98 96 99 92 96 97 93 95 94 92 94 87 75 89 87 75 65 82 86 94 96 97 98 96 81 76 78 77 75 68 70 72 86 90 91 94 92 90 85 90 89 93 94
88 91 91 82 71 85 95 93 94 97 100 98 98 95 93 95 93 94 92 90 93 85 82 89 70 81 73 83 83 93 97 98 89 90 88 79 77 77 82 86 90 90 91 90 88 78 85 87 86 87 91 96 96 93
88 89 82 78 67 89 90 96 95 93 96 95 97 100 99 100 96 95 96 96 94 91 72 68 51 48 54 70 90 92 94 92 80 76 69 67 70 84 90 92 92 93 93 94 90 75 91 92 92 93 95 96 95 93
92 86 81 84 93 91 91 98 98 96 97 98 100 96 99 97 97 98 98 97 90 88 74 86 57 75 81 86 84 85 89 83 77 64 59 80 68 92 94 96 97 86 86 81 87 82 89 93 89 93 96 96 97 96
93 86 96 85 91 93 96 93 94 93 94 97 95 96 95 91 95 97 99 91 92 88 91 96 96 92 83 80 84 82 86 82 80 80 73 75 78 89 88 94 95 93 92 95 93 93 92 91 93 95 97 93 81 81
87 81 94 94 91 87 99 94 93 96 89 95 98 91 96 97 97 97 89 94 91 96 98 98 97 97 95 97 95 95 93 88 83 82 80 80 78 93 96 92 93 96 93 94 97 98 99 88 89 88 87 85 85 86
85 97 96 95 89 100 88 97 91 94 96 96 92 95 95 97 96 91 71 91 88 98 98 97 97 95 95 92 94 94 94 96 96 95 88 81 92 72 78 88 90 92 97 97 99 98 97 90 82 85 89 97 95 96
93 98 91 98 98 92 98 99 99 90 99 97 91 96 95 95 90 83 72 85 96 98 97 98 97 96 93 96 96 95 96 95 94 89 93 96 94 95 94 95 91 94 99 98 98 97 94 94 96 98 97 98 97 94
95 97 83 88 96 80 91 92 91 93 93 94 95 95 96 93 73 59 76 87 92 94 94 93 92 96 95 94 91 89 90 97 94 90 92 96 96 96 98 100 100 96 98 100 100 99 98 96 97 98 97 95 95 96
96 95 81 75 81 83 90 87 81 90 92 90 94 96 90 66 56 68 86 94 90 94 94 92 89 90 87 92 96 96 98 98 92 92 97 98 99 98 98 98 98 94 97 99 98 97 97 96 96 97 96 97 98 98
86 81 84 93 95 96 86 90 85 84 89 90 82 84 78 74 72 81 90 96 97 99 97 96 96 96 93 96 98 95 98 99 97 98 97 96 98 99 98 98 99 88 97 99 92 98 90 99 98 97 98 98 96 96
94 87 86 95 94 93 97 94 95 95 83 89 80 78 76 87 94 92 93 97 98 92 88 91 97 99 98 98 99 100 99 94 77 75 80 92 96 93 98 98 98 98 100 100 93 88 90 88 93 94 100 98 95 96
97 95 89 93 93 96 98 96 98 97 90 81 76 88 92 96 98 98 96 95 91 87 93 94 94 93 93 85 90 87 98 100 96 89 91 93 93 97 99 99 99 98 100 100 100 99 91 94 97 99 98 97 98 98
96 94 93 92 97 97 96 95 95 81 92 94 89 89 94 95 94 98 97 98 97 96 93 97 97 98 86 93 93 91 87 98 100 99 99 99 99 100 99 99 98 99 100 100 100 100 100 100 100 100 100 100 99 100
96 97 94 96 98 96 96 96 96 95 94 90 90 95 94 91 82 94 98 98 99 96 90 88 84 81 94 98 98 100 85 96 99 98 99 100 100 98 98 98 100 100 100 100 100 100 100 100 100 100 100 100 99 99
97 96 96 96 96 96 96 96 95 91 93 95 96 96 97 89 75 88 99 99 95 90 87 86 95 96 91 93 93 98 92 98 100 89 82 80 72 79 93 99 99 100 100 100 100 100 100 100 100 100 99 100 100 99

GFSWCAN_sfc_rhum_072.txt.gz
RH
65 68 70 72 71 71 75 71 71 72 70 77 89 90 92 91 81 72 79 84 83 98 92 80 77 82 83 86 87 83 80 80 90 87 87 91 88 88 89 85 86 86 91 92 92 93 84 76 77 74 74 88 86 86
67 71 73 73 70 71 75 72 74 71 76 84 88 87 88 90 80 64 77 76 74 88 87 74 71 72 84 84 89 90 81 86 90 91 93 93 87 90 88 88 85 84 76 82 81 81 81 90 87 87 84 86 88 86
68 72 74 73 69 74 75 75 72 69 77 81 88 87 84 84 72 64 78 84 82 87 87 75 79 71 71 79 78 84 91 85 88 89 93 91 82 86 91 90 88 85 83 85 80 84 87 90 90 87 86 86 87 87
71 73 75 74 75 78 76 74 70 71 75 88 86 85 86 73 66 64 74 89 81 83 84 80 70 83 77 79 75 80 82 84 87 91 92 92 83 90 90 85 87 84 81 84 84 86 91 88 88 85 87 84 84 85
73 75 76 76 76 79 76 74 75 75 75 86 84 83 86 72 71 79 85 92 80 75 92 88 78 71 80 80 77 74 75 81 86 88 94 89 94 86 89 87 90 83 81 84 82 77 79 79 87 84 84 81 81 85
75 76 77 76 78 79 82 78 77 80 80 89 84 85 82 76 68 67 72 82 79 79 90 88 89 80 76 81 83 84 87 89 89 86 94 93 86 80 85 85 66 73 81 72 73 87 85 90 87 82 82 82 83 83
76 77 78 78 81 80 80 86 91 90 85 86 87 82 75 72 84 70 72 78 74 80 88 95 96 84 79 84 91 87 88 94 88 93 88 86 89 87 83 71 60 85 88 93 89 87 90 88 88 84 83 81 80 85
75 79 79 79 80 84 79 90 90 88 86 85 80 77 74 72 72 78 86 76 74 80 85 98 97 92 81 88 83 95 88 87 93 95 93 84 89 92 91 77 82 90 89 88 86 81 76 84 82 83 83 82 80 79
78 81 80 81 79 81 81 88 88 89 84 80 77 71 76 79 74 81 70 72 84 70 93 95 96 96 86 94 93 89 91 91 93 93 94 88 90 90 63 71 87 93 86 81 82 81 82 79 78 77 75 73 76 72
80 83 81 82 81 80 83 88 88 84 81 74 77 72 85 89 80 77 73 64 84 90 93 96 96 98 91 93 95 90 90 94 95 94 92 93 93 78 80 79 81 89 83 84 77 83 81 84 65 68 64 67 75 78
81 84 83 85 85 83 92 86 84 80 72 86 89 95 96 82 81 76 88 75 81 82 92 96 95 98 90 94 96 89 97 97 96 91 95 96 95 88 81 83 85 86 85 79 67 58 61 68 65 70 70 71 73 77
83 87 87 87 86 88 91 87 80 85 88 82 87 88 86 81 87 64 83 87 81 71 97 95 96 93 96 90 91 89 95 93 95 94 93 97 87 81 86 86 85 82 78 74 73 71 73 64 72 76 80 81 81 79
85 87 88 86 85 82 91 88 76 77 72 79 80 81 80 81 59 59 54 78 95 97 98 99 99 96 94 86 91 90 96 95 82 89 96 91 80 81 86 83 82 86 78 67 66 65 65 70 73 79 81 82 85 88
87 88 88 85 85 81 90 87 80 75 78 87 80 66 74 78 78 74 74 89 94 97 95 97 99 92 90 93 89 92 79 79 95 100 88 92 82 81 87 80 78 77 71 83 84 83 84 87 87 88 85 84 86 88
88 89 88 86 85 83 87 87 77 78 90 82 80 63 86 82 93 96 98 99 98 86 93 94 94 84 98 96 86 85 92 100 91 77 87 91 77 85 85 75 71 68 70 72 75 83 88 89 91 86 84 84 89 88
88 88 91 85 84 82 86 89 76 80 94 88 94 87 91 98 98 100 100 100 99 92 88 90 91 88 94 91 92 90 77 73 74 93 93 92 84 85 79 72 70 72 78 77 76 75 74 78 82 86 87 88 87 87
89 94 82 81 86 85 85 88 90 90 87 91 94 95 96 98 97 98 94 92 92 82 80 92 61 66 93 90 79 87 80 79 88 92 96 91 82 81 76 71 74 76 78 79 78 75 83 80 94 92 87 74 87 88
92 90 86 92 90 83 94 95 91 92 96 98 97 98 90 94 96 95 96 95 87 90 89 70 90 86 75 62 80 86 93 96 96 97 97 83 76 77 75 76 72 72 74 90 92 92 94 91 91 86 89 91 94 95
86 87 93 84 85 95 100 98 94 95 97 99 99 99 95 89 94 95 93 92 92 86 84 90 68 79 71 82 84 94 97 96 89 93 89 82 80 77 85 86 90 90 91 91 92 91 90 89 92 92 95 96 97 95
82 91 85 79 74 91 97 98 94 95 99 96 97 100 99 98 96 96 95 92 89 91 67 61 49 47 51 65 90 90 93 90 83 81 74 74 77 86 88 92 94 94 96 95 91 75 92 92 91 92 96 96 96 96
83 91 81 77 97 95 96 97 98 96 98 98 99 95 96 97 97 96 95 96 89 87 75 83 54 76 82 82 84 84 89 78 74 67 64 83 69 93 94 96 96 85 84 82 88 88 90 95 95 96 98 96 95 96
96 88 99 95 96 97 94 92 94 96 96 97 96 92 93 90 91 92 98 89 90 85 87 92 94 93 85 81 83 84 85 79 79 80 74 72 71 88 90 95 94 94 96 95 94 95 97 96 94 93 95 86 82 84
90 95 99 99 96 92 98 94 95 97 90 95 95 90 96 96 96 96 86 91 89 96 97 98 97 97 92 97 96 94 92 88 83 81 82 77 76 95 97 94 94 96 96 96 98 99 99 84 82 83 85 88 86 86
87 99 98 97 91 97 90 96 89 94 94 92 88 92 94 96 96 91 72 89 88 98 99 97 94 95 95 92 94 94 95 96 95 95 86 80 92 73 83 90 90 95 98 99 98 98 97 90 88 89 89 95 95 95
95 98 97 96 96 93 95 100 97 93 91 91 88 96 95 97 88 82 70 84 97 99 98 97 97 96 90 97 97 96 96 95 93 89 93 96 94 96 95 96 94 99 98 99 100 99 98 97 97 97 96 97 96 92
96 97 97 92 95 82 90 86 89 88 91 93 92 95 97 92 68 57 71 81 89 94 94 88 84 91 92 94 88 91 90 97 92 91 94 97 96 95 97 98 100 96 99 100 99 99 98 96 97 98 96 94 94 96
96 96 88 76 76 79 84 82 79 90 90 84 93 97 90 66 60 68 82 91 89 95 90 90 87 81 75 93 96 97 97 96 93 93 96 98 98 98 96 96 95 94 98 99 99 98 98 96 96 95 95 95 98 98
88 83 87 95 91 96 86 91 91 94 92 86 81 87 72 69 70 83 89 94 95 96 96 96 96 96 88 94 93 95 99 100 99 98 97 96 98 99 98 98 98 88 97 100 92 96 97 98 97 97 99 99 96 94
95 86 86 96 94 93 96 93 90 94 82 90 86 87 84 89 93 94 95 98 98 85 85 90 98 98 96 97 97 98 92 90 79 75 77 90 96 94 99 98 99 99 100 99 92 88 92 94 98 99 100 98 97 96
98 94 91 95 94 94 95 95 98 97 91 88 86 95 94 94 94 96 97 97 93 80 87 82 92 84 86 81 92 93 99 99 96 87 90 91 90 96 99 99 100 100 100 100 100 99 89 97 96 98 96 96 95 97
90 92 93 93 96 96 96 96 95 82 93 94 92 91 87 91 94 97 96 97 96 93 88 92 96 96 84 88 87 89 88 98 100 98 98 98 99 99 99 100 100 100 100 100 100 100 100 100 100 100 99 99 98 99
94 96 93 96 98 97 97 97 97 96 95 92 89 95 96 90 84 94 98 96 94 88 81 82 83 88 93 97 97 98 74 91 97 98 99 100 99 98 98 99 100 100 100 100 100 100 100 100 100 100 100 100 99 98
96 96 96 95 97 97 96 96 97 97 96 92 88 88 87 81 72 85 99 100 91 88 86 88 94 83 88 90 93 96 91 97 96 92 91 89 86 83 98 100 100 100 100 100 100 100 100 100 100 100 99 99 99 98

GFSWCAN_sfc_rhum_075.txt.gz
RH
62 64 63 71 73 71 71 74 74 76 72 80 90 89 84 79 72 72 79 88 84 97 86 79 83 86 84 87 89 84 82 79 89 86 86 92 88 89 88 86 88 86 90 91 90 91 72 76 76 68 66 86 79 79
64 65 69 71 73 72 74 75 75 77 73 82 89 88 86 81 70 67 74 74 74 88 86 79 78 81 87 84 90 90 81 86 90 91 93 93 85 91 88 84 86 84 77 80 78 75 71 81 83 83 80 80 83 80
67 65 69 71 74 74 75 76 76 73 74 84 89 87 86 78 71 69 82 87 84 86 91 75 78 70 78 86 80 83 91 86 87 89 92 91 83 87 90 90 89 85 84 85 78 79 83 86 89 86 82 80 82 81
68 69 70 75 75 75 78 78 74 74 74 85 86 86 86 76 67 66 79 87 83 80 88 81 70 84 79 82 79 82 84 86 88 91 91 91 82 90 90 83 88 83 83 84 84 79 85 84 86 82 84 84 85 84
67 70 74 76 76 77 80 78 79 78 76 88 86 83 75 71 69 80 90 94 80 78 90 81 72 72 79 80 79 76 76 81 88 89 93 87 94 89 92 90 93 86 81 84 80 74 75 74 84 83 85 82 81 82
66 71 75 77 78 80 80 79 76 75 74 85 88 88 78 72 66 68 69 83 84 82 90 89 89 79 73 74 81 83 85 88 89 86 94 94 88 82 88 89 70 81 79 72 71 85 83 91 88 84 81 78 79 82
68 71 75 79 79 82 78 78 90 91 83 88 86 86 78 72 88 70 68 77 76 81 87 94 94 83 78 76 91 85 87 94 86 92 86 88 92 89 83 74 51 74 82 89 88 88 90 89 88 84 81 79 75 82
71 73 78 80 80 82 77 89 90 88 88 85 79 78 77 75 77 83 88 76 76 82 85 97 97 91 82 86 79 95 84 85 92 94 92 83 90 93 91 75 80 89 90 91 91 82 76 85 87 86 82 78 75 69
75 77 80 81 81 76 89 88 88 87 85 81 77 72 76 80 81 88 70 72 85 71 92 94 95 93 87 95 93 89 89 87 93 91 92 87 87 86 62 60 82 92 86 82 83 82 85 83 82 77 72 64 66 63
76 78 81 81 83 77 88 89 86 82 79 79 74 74 86 90 86 69 74 65 82 89 93 95 97 99 91 95 94 90 91 95 94 92 93 96 94 77 78 72 75 88 83 82 76 81 81 84 65 62 58 62 70 75
76 79 83 84 86 81 91 89 84 80 71 84 88 93 94 83 78 76 84 73 80 73 90 96 96 97 90 93 96 90 96 98 95 90 95 96 95 86 81 83 84 89 86 81 67 57 62 63 59 64 66 69 73 76
76 80 86 87 88 87 91 87 84 78 84 83 86 88 85 78 84 66 83 83 81 63 98 97 95 92 95 92 91 91 93 93 88 94 91 98 86 78 84 86 88 89 86 75 69 62 71 62 72 74 77 78 79 79
77 82 87 87 87 87 90 87 77 75 70 79 83 82 81 82 65 64 58 75 94 94 98 99 98 95 93 90 93 91 94 91 92 94 96 88 77 80 86 86 85 88 79 69 68 63 63 69 72 78 78 79 82 85
77 84 89 89 86 88 90 85 80 72 77 89 81 61 75 82 81 77 77 87 90 97 97 97 98 90 90 94 86 91 82 85 98 100 83 91 79 78 88 85 81 80 74 82 81 84 84 88 88 89 85 82 83 84
79 84 89 90 86 89 90 87 78 77 87 87 85 75 87 83 98 96 98 99 98 91 89 96 94 79 98 97 83 90 92 100 88 71 85 90 77 84 89 85 81 79 74 70 75 80 87 89 92 86 81 82 85 84
80 86 93 87 86 85 89 91 88 83 91 89 89 82 91 96 98 98 100 100 99 88 95 89 91 90 92 93 94 88 73 69 71 93 93 90 84 86 86 79 75 70 73 75 78 75 73 77 81 86 87 88 87 88
82 97 87 87 86 84 89 96 98 100 98 93 93 90 95 97 94 97 95 95 94 82 84 89 65 59 89 89 79 86 76 78 89 94 97 91 84 86 83 74 71 76 80 79 77 75 83 81 94 95 91 86 91 93
92 90 85 87 86 88 96 99 100 99 98 98 95 96 93 95 96 96 95 94 83 86 84 71 89 91 79 62 77 83 93 97 96 97 97 87 82 82 74 75 77 74 73 89 91 93 94 95 95 95 96 95 96 96
88 86 87 87 83 96 99 100 99 98 94 98 99 99 95 91 94 93 95 91 90 83 85 91 68 78 68 80 82 94 97 96 94 94 89 82 81 82 87 86 91 90 91 90 92 95 96 90 93 95 97 98 98 96
86 83 85 85 78 97 99 99 98 95 99 95 99 99 98 97 95 95 92 88 88 92 76 74 50 45 49 61 87 88 90 90 89 89 86 82 83 91 91 93 94 95 96 95 96 76 94 92 92 96 98 95 94 92
92 87 80 83 99 99 98 97 98 95 98 96 98 97 97 96 95 95 95 95 89 86 81 73 49 65 78 80 80 80 81 77 70 69 70 87 72 94 96 97 97 84 83 82 87 90 91 96 97 97 97 94 94 93
96 86 99 98 98 98 98 94 95 96 96 98 96 95 96 93 92 93 97 90 89 81 79 83 92 91 83 80 85 86 80 75 76 76 67 66 80 91 92 96 94 94 97 96 95 97 98 96 94 92 95 87 86 85
91 92 99 99 98 97 97 95 95 98 96 99 95 93 92 94 95 96 89 88 87 91 92 96 96 97 93 98 94 92 90 82 78 78 75 74 82 96 96 94 95 97 97 98 99 100 100 85 89 88 87 88 85 86
88 98 98 97 97 97 96 97 91 94 95 94 95 93 93 96 94 93 76 87 85 93 96 95 90 95 95 91 95 95 95 94 92 94 84 77 90 82 87 92 94 98 99 98 98 98 98 91 88 90 90 97 96 96
97 98 96 97 97 96 96 97 97 97 95 95 91 91 93 96 90 87 74 84 94 98 96 94 95 95 84 97 98 97 97 91 79 86 96 96 94 95 97 97 97 97 98 100 100 100 99 97 97 98 98 99 94 94
97 97 96 96 96 88 94 94 91 90 90 92 91 94 95 90 79 62 69 75 81 86 90 80 76 89 91 93 84 93 91 96 88 84 95 95 93 85 95 96 97 96 99 99 100 100 99 97 98 98 98 98 95 98
96 97 95 89 80 80 88 85 80 87 86 87 93 95 93 76 64 63 83 84 84 94 78 72 71 66 71 89 96 96 96 96 92 89 94 97 98 97 94 94 95 94 98 99 99 99 99 98 98 98 99 97 98 98
94 90 90 93 95 96 87 92 94 93 97 89 78 84 80 66 65 90 94 93 95 93 91 94 94 82 79 86 91 94 99 99 97 94 93 96 98 100 99 99 99 86 98 100 96 95 100 98 100 100 100 99 97 97
93 86 89 100 99 97 97 94 95 94 82 79 82 92 91 92 97 98 95 95 98 86 84 88 98 92 94 94 96 98 92 85 79 80 78 88 95 93 99 99 100 100 100 100 92 88 93 96 99 99 99 97 96 98
96 98 96 98 95 97 97 98 99 98 92 89 85 95 95 96 96 95 95 96 97 88 83 79 87 79 85 83 94 97 98 98 96 83 86 90 89 96 98 100 100 100 100 100 100 99 89 99 96 99 99 98 98 98
97 97 96 97 100 99 99 98 96 82 93 96 95 94 95 96 94 94 92 96 97 90 85 87 93 87 81 82 78 86 92 99 100 97 95 93 96 97 99 99 100 100 100 100 100 100 100 100 100 100 100 100 100 100
98 98 96 97 100 98 98 98 98 96 97 97 93 94 93 91 90 96 95 94 92 86 74 76 76 79 94 91 92 96 69 87 94 97 92 98 97 98 98 100 100 100 100 100 100 100 100 100 100 100 100 100 100 100
97 97 98 96 98 97 97 96 97 97 96 95 92 92 90 83 74 84 94 97 89 83 83 88 93 83 85 87 89 91 85 92 92 86 86 88 91 99 100 100 100 99 100 100 100 100 100 100 100 100 100 100 100 100

GFSWCAN_sfc_rhum_078.txt.gz
RH
62 62 66 66 68 74 73 74 76 76 75 85 86 84 82 73 66 59 67 69 62 68 71 70 71 70 63 62 59 65 60 57 58 61 58 62 55 59 58 60 61 60 59 58 60 64 51 49 54 52 47 56 52 54
60 66 66 67 69 74 73 75 77 76 76 89 85 82 78 72 66 63 62 60 58 64 68 62 64 64 70 67 65 66 61 65 60 56 59 57 55 59 59 48 61 59 52 46 50 43 49 51 53 55 53 51 59 56
61 67 66 69 72 74 74 77 75 75 77 88 86 84 83 76 68 62 64 67 62 64 65 61 65 58 62 66 63 60 66 66 65 66 57 58 61 54 53 54 59 58 58 54 55 51 53 52 55 57 57 56 58 57
63 68 67 69 76 76 77 78 77 77 78 88 87 84 82 75 71 64 64 70 62 61 66 66 55 64 58 62 64 64 66 66 64 60 59 60 55 64 55 56 56 53 61 57 56 52 56 53 56 55 60 61 63 63
65 67 67 74 76 77 79 79 79 76 76 88 88 89 80 73 71 70 70 70 64 63 69 65 62 59 57 58 60 59 59 60 59 66 67 62 62 62 59 62 60 55 52 52 42 49 49 51 56 58 62 63 61 60
66 68 68 73 78 78 81 81 76 75 74 84 88 80 75 69 62 56 59 65 69 63 77 77 67 64 62 59 61 63 65 62 60 59 66 65 70 63 63 54 44 51 53 52 45 55 58 66 67 65 64 62 58 58
69 68 70 76 79 80 82 79 85 88 83 87 90 84 78 72 74 60 60 68 69 65 71 85 80 63 67 62 67 61 63 65 58 66 64 61 70 72 62 54 40 44 53 57 57 63 65 69 64 64 60 58 59 59
70 70 72 79 81 82 85 90 93 90 87 88 86 81 78 74 73 68 69 74 67 63 69 96 89 69 66 64 61 70 56 58 69 66 66 59 66 68 67 49 50 60 66 69 67 59 57 64 66 68 63 60 52 45
73 75 77 81 81 79 87 90 90 90 87 84 81 71 69 67 64 70 72 75 74 61 89 83 91 87 71 76 72 66 62 63 71 65 65 67 60 71 48 42 52 65 64 65 72 64 64 62 62 59 52 44 41 41
75 76 78 82 82 80 91 90 87 84 82 70 66 65 78 74 85 66 69 64 76 77 76 80 82 86 72 75 75 71 73 70 84 68 73 75 64 56 53 49 48 60 63 67 69 69 66 64 53 42 40 44 48 50
76 77 79 84 85 83 92 88 83 74 69 73 75 78 80 79 64 62 77 75 62 68 72 81 82 85 74 79 73 72 85 84 83 79 78 76 67 60 62 63 62 62 60 58 45 41 46 46 44 44 45 50 52 52
76 78 81 86 86 86 91 86 77 77 80 75 80 78 73 69 76 71 77 66 70 63 82 84 82 76 78 75 74 78 83 85 81 78 85 76 65 60 66 69 69 68 64 58 46 45 46 45 48 53 53 54 56 55
77 79 81 86 86 85 91 87 77 77 72 75 75 83 74 76 73 75 69 77 82 82 91 92 91 80 83 76 78 76 85 81 74 88 76 63 56 61 67 69 75 79 74 59 51 48 46 49 54 58 58 61 60 58
78 81 83 88 89 88 91 87 78 71 73 85 85 73 81 83 79 77 70 78 73 86 90 83 90 79 76 78 74 82 72 70 96 89 68 66 62 57 67 66 65 64 64 73 71 61 64 71 68 69 67 62 59 57
80 83 86 91 89 89 92 84 72 75 82 92 82 82 84 73 89 90 93 91 90 83 82 84 85 69 85 88 71 82 91 96 76 66 68 69 60 64 70 67 61 59 56 53 54 67 76 77 75 69 64 64 61 62
80 83 89 90 90 89 91 83 89 86 93 85 86 83 74 88 89 93 96 95 91 80 78 77 85 85 84 84 91 91 75 69 71 82 72 61 62 70 71 68 62 56 53 49 54 56 55 57 61 67 68 67 71 74
80 94 88 89 89 89 86 97 100 100 100 98 90 75 79 88 90 81 77 76 78 71 82 81 75 69 83 86 82 72 78 73 76 74 73 74 73 76 74 66 62 58 59 62 56 57 64 67 76 81 77 69 78 79
83 82 90 89 89 90 95 99 100 100 99 97 91 87 81 72 81 80 80 82 79 77 74 75 80 86 80 71 68 74 78 82 76 72 76 74 68 68 68 62 65 68 64 78 80 81 82 83 78 67 82 81 82 78
80 82 89 88 86 94 100 100 100 98 94 92 89 90 84 80 79 80 78 80 78 71 77 83 76 80 65 68 74 84 85 82 78 77 70 65 64 66 77 80 80 77 79 78 71 62 67 75 69 73 75 76 78 69
81 86 88 86 78 99 100 100 97 98 99 91 94 97 88 87 86 87 87 83 80 83 80 79 54 42 41 47 70 70 72 74 69 69 71 69 67 81 81 76 66 76 70 75 73 67 70 65 70 74 74 73 73 72
83 90 83 86 98 99 97 97 100 95 95 93 95 93 93 93 93 95 95 86 87 89 83 61 44 41 64 61 61 63 71 68 60 57 60 74 61 69 75 76 77 62 59 58 58 65 73 74 73 73 74 67 69 68
90 83 100 97 98 99 98 95 93 92 93 97 97 92 94 95 93 93 92 91 90 69 67 56 63 69 71 70 73 71 69 63 64 65 62 64 70 79 76 74 76 78 77 81 75 77 77 70 71 73 71 68 70 66
87 93 100 99 98 98 97 94 96 96 97 99 95 93 92 92 92 91 89 87 79 74 71 76 84 88 83 89 86 80 78 69 62 62 57 56 63 74 80 75 75 84 84 84 84 80 81 77 74 70 69 70 69 69
91 99 99 97 97 96 95 96 94 95 94 96 95 94 97 94 92 92 87 84 74 77 84 89 78 82 84 83 76 72 77 75 73 72 64 61 72 67 67 66 71 78 81 81 80 81 79 74 78 73 75 81 81 83
98 98 98 97 97 96 96 96 96 95 95 94 93 98 96 95 92 92 86 82 85 82 84 82 73 62 63 73 80 76 85 70 64 65 74 69 73 78 81 79 79 80 81 88 85 84 85 82 82 83 83 85 87 87
98 97 94 95 96 95 93 96 96 95 92 97 92 96 96 92 87 80 78 72 75 76 83 75 66 73 74 73 68 77 73 80 70 64 76 77 71 74 83 82 81 83 85 84 88 88 87 85 86 92 85 89 88 90
96 96 96 92 85 89 83 80 77 84 89 90 94 98 92 79 77 68 71 76 79 84 69 64 59 55 52 76 82 83 82 81 78 73 77 83 81 73 80 83 84 75 85 89 89 87 87 88 89 89 90 86 84 86
95 91 93 95 92 89 82 84 85 80 80 84 76 84 80 74 63 76 84 88 91 93 78 80 78 77 73 78 86 83 90 91 92 90 87 88 87 90 91 89 90 87 93 91 90 90 90 91 92 91 92 89 88 85
94 88 81 98 100 96 90 85 81 86 76 72 73 82 77 88 90 92 92 93 95 88 83 84 94 90 92 91 89 88 86 79 75 78 74 76 85 89 94 93 96 96 94 93 85 85 94 93 93 93 91 88 87 90
95 96 95 96 95 92 93 96 97 98 92 89 82 92 93 94 94 93 94 95 95 91 82 78 88 81 86 84 91 92 89 83 79 67 70 77 80 87 94 96 96 96 96 93 92 92 87 94 90 92 90 90 90 91
93 93 95 95 96 97 97 94 96 82 94 98 94 95 92 96 96 94 93 93 94 92 87 86 84 81 77 80 79 80 83 86 90 90 92 85 88 90 94 95 94 96 96 95 94 92 93 93 92 94 92 95 96 94
93 94 95 99 99 96 98 97 98 98 98 95 91 95 96 91 87 94 93 94 93 89 79 79 77 78 74 73 72 79 55 82 89 89 88 89 90 92 94 96 98 97 96 96 95 94 96 96 95 95 93 97 97 96
98 98 99 98 98 98 97 97 97 98 98 97 95 95 92 79 74 86 90 91 87 81 79 79 83 86 83 75 80 84 76 83 88 83 83 86 92 100 98 97 97 96 97 96 96 96 98 100 98 100 99 100 98 97

GFSWCAN_sfc_rhum_081.txt.gz
RH
71 65 64 67 69 70 73 74 77 76 80 85 82 82 78 74 66 57 62 57 57 58 64 60 61 58 55 51 48 54 55 51 46 48 47 48 42 44 46 45 46 49 49 45 49 54 52 40 50 49 45 46 43 46
70 63 65 66 70 73 73 76 77 77 81 85 79 81 78 74 66 62 56 50 47 57 62 53 56 56 63 62 59 54 54 52 48 44 46 44 44 44 45 36 48 47 45 42 43 41 40 39 43 46 45 44 49 47
70 62 67 65 70 75 75 78 77 77 82 88 83 80 78 74 70 60 56 59 52 56 58 54 57 51 51 55 54 59 52 56 54 57 45 47 49 44 40 39 47 46 46 47 47 38 42 41 40 45 47 47 50 50
69 63 68 65 73 76 76 79 78 78 82 87 84 82 79 75 69 64 56 59 56 50 57 62 47 54 49 51 57 55 60 54 53 51 50 48 47 51 42 47 47 44 51 46 46 38 43 43 43 43 48 52 53 54
70 65 68 66 72 77 77 80 80 77 77 88 89 88 78 73 67 60 58 59 54 62 61 58 53 51 47 48 52 53 53 53 52 60 61 52 51 53 49 54 49 44 42 47 34 40 42 47 47 47 51 56 54 53
70 66 70 68 72 78 79 81 81 78 77 85 84 81 74 66 60 52 55 58 57 62 70 72 56 53 51 49 51 52 55 52 53 57 57 55 60 61 61 45 33 38 41 42 39 45 48 54 55 54 53 56 52 50
70 68 70 70 75 80 81 82 82 83 81 86 83 77 74 72 63 59 63 69 68 60 64 83 78 56 56 55 53 50 50 54 53 59 59 54 61 70 62 51 36 35 42 46 46 49 56 58 54 56 54 52 55 51
70 70 72 72 78 81 83 90 91 92 88 90 85 80 75 74 70 62 61 64 63 54 64 100 94 65 58 57 56 56 50 52 59 56 56 55 58 62 69 44 40 41 43 51 51 51 49 52 56 59 57 55 50 40
71 72 75 76 80 82 85 90 92 90 91 88 84 74 69 63 57 65 75 78 65 59 94 86 99 92 60 63 61 58 53 64 60 61 56 60 55 75 51 40 40 47 52 51 60 56 53 51 53 58 52 42 36 34
74 74 78 79 82 82 89 91 90 88 86 78 60 52 73 67 82 71 64 61 73 70 71 79 75 86 64 62 65 63 61 62 93 60 63 68 60 49 41 36 35 43 53 60 71 74 66 64 56 41 37 36 39 41
74 76 79 80 85 85 91 88 85 77 70 61 62 71 68 72 57 54 82 83 65 80 63 68 78 79 67 78 67 62 90 80 85 80 70 69 60 48 47 47 44 44 50 54 44 43 45 45 42 36 38 41 44 44
77 78 82 82 86 86 91 88 77 71 70 71 72 68 62 60 75 88 91 73 72 73 71 74 73 67 71 68 68 72 86 81 83 72 80 76 64 56 56 58 56 51 52 49 38 38 37 38 41 47 45 47 50 50
80 82 82 83 85 84 91 87 76 75 72 65 66 95 72 81 81 79 77 79 80 70 83 83 86 71 74 70 73 74 88 82 66 83 76 67 60 52 56 62 71 71 68 55 45 42 42 46 51 52 54 57 53 50
81 83 84 85 88 88 90 85 79 73 71 83 98 78 90 86 75 77 66 84 74 77 82 74 82 72 66 77 66 82 62 64 84 88 73 73 62 53 56 61 68 74 75 79 76 61 69 78 72 71 64 57 54 53
82 83 85 88 90 89 91 87 77 72 79 98 90 86 87 69 80 82 86 86 79 72 77 77 78 60 80 84 62 78 83 90 76 72 81 79 62 61 62 64 60 62 58 55 56 71 82 80 78 69 65 61 58 57
82 84 84 83 91 90 91 80 88 85 96 100 94 87 67 81 89 87 89 88 82 73 71 72 82 84 81 78 84 88 76 78 81 90 76 56 57 64 65 63 59 54 50 46 44 50 52 54 58 64 63 63 67 68
84 85 83 88 90 91 84 96 99 100 100 100 96 71 74 85 87 71 56 53 64 71 85 82 82 75 79 82 79 70 83 87 89 78 69 68 70 74 69 66 61 58 54 55 53 52 60 63 73 82 74 61 73 73
83 80 85 90 88 91 96 100 100 100 100 100 94 86 62 51 65 60 60 67 74 77 76 87 74 81 81 78 74 78 79 84 78 73 70 69 61 67 69 65 63 65 70 82 86 85 84 87 80 60 76 74 76 73
77 84 88 88 87 94 94 100 100 99 99 94 85 77 72 69 62 64 62 65 66 64 74 81 81 86 70 70 82 96 88 77 63 67 64 63 61 68 76 78 82 79 82 83 74 56 57 67 60 64 66 67 68 61
83 90 90 87 76 99 100 100 100 100 97 89 87 91 82 81 75 74 74 76 78 86 84 86 64 53 45 45 72 76 72 69 64 63 63 62 58 79 82 75 67 78 72 76 74 63 63 58 62 64 66 68 67 63
83 85 92 87 98 100 99 99 98 96 96 87 89 88 88 91 93 95 94 86 91 92 87 64 46 37 51 50 49 59 63 61 51 48 51 67 61 71 73 76 80 62 58 55 50 56 65 63 63 64 65 59 60 63
91 84 100 98 100 100 100 94 94 88 90 91 93 87 93 96 95 94 92 95 92 82 67 57 56 56 54 60 62 69 63 64 63 61 59 62 64 74 75 76 78 77 78 78 62 61 65 61 64 63 63 60 63 60
87 95 100 100 99 98 98 92 95 95 96 96 97 92 92 94 92 90 95 88 83 71 62 60 76 86 76 80 83 78 78 67 64 62 60 52 56 70 75 75 78 87 87 78 76 74 75 71 63 63 61 62 62 64
91 100 100 98 98 96 94 96 93 91 92 94 94 91 90 91 91 94 91 74 69 67 68 81 76 80 82 84 74 69 71 67 66 65 56 57 70 62 64 60 64 72 75 78 78 76 71 63 71 64 67 75 75 76
98 99 99 97 97 95 96 96 93 93 93 92 92 90 94 93 93 92 84 80 70 69 68 75 74 65 53 54 63 65 79 64 61 62 68 58 61 68 74 68 65 72 77 88 83 80 81 77 76 77 76 78 86 87
98 98 95 91 93 90 88 95 95 92 89 95 91 86 90 91 94 89 74 60 63 66 69 72 67 66 59 54 58 66 66 76 59 56 66 69 62 72 82 80 82 81 78 78 83 83 81 79 80 90 79 83 81 86
98 98 95 74 74 82 82 74 72 81 92 89 91 96 94 93 87 73 62 70 69 70 60 60 59 57 51 59 63 72 74 78 76 71 69 76 76 74 81 80 81 77 80 83 82 80 80 81 81 82 84 82 82 83
91 88 94 94 91 83 89 84 90 87 78 73 76 95 89 79 68 75 76 79 82 85 86 70 64 65 64 67 77 82 88 90 90 85 81 82 84 86 86 87 88 81 87 87 83 86 85 85 86 85 87 87 88 84
93 85 80 96 90 87 85 81 78 67 62 72 73 64 72 75 84 81 81 84 89 90 90 90 94 89 87 85 83 79 84 78 76 79 75 73 86 87 90 94 92 94 92 90 82 86 93 93 91 91 92 87 87 90
96 84 87 92 92 89 83 79 87 89 79 76 75 77 75 81 87 89 89 93 95 91 87 85 91 83 86 84 91 89 81 74 68 58 64 68 70 85 91 93 94 94 94 92 93 93 80 91 89 94 93 93 91 92
88 89 92 85 89 89 89 88 89 77 86 91 90 92 82 90 89 88 89 87 91 94 92 94 88 85 80 81 83 85 88 86 85 84 86 83 86 86 90 91 92 93 93 93 92 92 94 94 94 95 94 96 96 94
89 91 90 94 95 95 93 95 94 92 91 92 90 92 91 92 92 91 90 93 96 94 86 84 80 85 75 73 71 78 59 81 87 88 86 85 85 87 89 92 94 93 94 94 93 93 94 96 96 96 95 97 97 97
96 94 95 95 98 100 96 95 95 96 96 95 90 92 92 88 81 86 88 87 88 88 86 82 79 79 77 75 79 78 76 81 86 80 77 79 85 90 93 93 93 93 93 93 94 94 96 97 97 97 98 98 98 97

GFSWCAN_sfc_rhum_084.txt.gz
RH
85 82 68 63 68 71 74 75 78 77 83 83 80 80 80 77 72 74 76 68 79 79 78 64 63 71 70 70 70 70 71 71 71 69 69 67 68 64 71 68 70 67 77 72 70 78 74 55 62 69 61 63 59 63
85 83 67 64 67 72 74 76 78 78 82 85 83 84 82 81 75 69 76 62 60 77 78 60 61 62 68 72 82 68 69 65 75 75 68 65 67 64 63 61 69 69 64 70 61 67 54 55 64 66 59 59 71 73
88 83 67 64 67 72 75 77 78 78 82 89 84 83 83 80 75 69 77 77 78 78 78 74 68 61 56 61 62 83 76 73 69 78 79 73 73 67 67 61 69 67 63 71 62 61 60 54 59 60 66 68 64 63
90 83 68 66 68 73 77 77 80 78 79 88 84 84 82 75 72 68 77 77 82 74 82 80 52 66 57 58 64 65 70 68 70 75 79 76 72 69 70 68 69 66 65 62 62 54 66 62 66 59 61 63 65 64
91 84 70 67 68 72 78 78 81 80 78 87 88 86 78 73 69 75 78 76 69 83 88 81 62 59 54 56 62 65 70 69 80 87 91 85 79 78 72 77 80 65 66 72 60 57 58 66 66 64 65 69 67 68
92 84 72 68 70 73 78 79 82 82 81 82 89 82 71 71 69 74 85 82 74 78 95 94 72 66 63 61 62 65 70 70 77 86 86 83 76 84 91 80 49 52 51 57 58 64 67 67 68 75 69 67 63 62
93 85 73 69 72 75 80 81 83 84 82 82 82 78 76 72 82 77 83 86 74 82 88 95 96 71 67 68 70 70 66 76 79 85 86 80 85 88 91 89 50 52 55 59 62 64 75 71 75 70 67 64 61 60
93 85 74 71 73 78 82 84 88 91 89 86 81 78 73 72 78 81 80 76 84 80 85 99 98 84 73 79 80 74 77 77 82 85 81 80 84 88 93 72 48 46 57 62 62 66 67 69 70 71 68 66 65 53
94 83 75 72 76 81 82 89 92 94 90 90 83 80 78 78 78 83 76 81 88 80 99 99 99 98 78 84 83 80 77 92 85 89 80 77 85 90 72 62 57 57 63 65 71 65 66 70 72 77 73 59 51 45
93 82 74 74 79 83 84 91 92 92 90 86 78 73 91 81 78 78 85 78 92 90 92 97 94 96 90 86 86 86 84 94 94 89 87 92 89 65 62 51 51 58 63 72 84 86 78 76 73 65 54 46 49 52
92 84 78 77 82 86 89 91 90 84 75 79 82 86 83 73 80 72 93 91 90 89 88 91 95 95 85 95 94 82 98 96 97 94 92 95 91 71 58 50 50 61 70 73 64 68 70 68 63 48 48 52 55 60
91 85 81 81 84 86 90 87 78 76 83 82 84 80 81 82 94 79 91 90 85 89 88 92 89 89 89 88 91 86 96 94 95 92 96 96 88 71 68 66 61 67 70 54 49 48 46 49 54 57 56 60 66 68
90 84 82 82 84 84 90 84 74 76 76 77 86 91 95 90 93 86 84 90 94 92 95 95 95 90 90 91 90 90 98 95 86 97 95 83 81 75 78 78 75 77 70 57 52 53 52 60 62 68 66 70 73 66
89 84 83 85 87 88 91 85 79 73 77 96 90 80 86 94 91 91 92 95 94 95 96 94 95 94 87 94 86 96 82 78 95 99 84 91 78 73 76 79 85 86 76 77 75 67 76 82 81 83 74 74 72 73
90 85 84 87 89 89 92 85 76 76 90 95 95 89 92 89 95 97 97 96 95 92 94 94 96 84 95 94 84 90 90 98 91 84 89 97 79 78 79 81 82 87 83 79 74 81 88 88 87 86 83 77 78 76
93 89 88 85 90 90 92 83 87 87 100 93 99 98 88 95 98 98 98 98 96 92 95 95 93 95 94 95 94 93 91 85 79 92 96 84 82 82 82 78 77 71 69 65 64 66 73 74 78 83 77 78 80 84
92 94 81 87 91 91 86 97 99 100 99 98 98 93 93 96 96 96 92 84 87 93 96 96 90 77 92 97 96 88 89 86 96 96 95 79 82 85 82 74 71 65 61 60 66 65 76 78 91 92 90 82 87 90
94 86 85 91 90 91 98 100 100 100 99 99 99 96 83 73 86 79 77 83 92 95 94 88 90 87 88 88 87 87 91 96 95 96 93 81 81 85 82 76 71 69 74 84 86 91 92 91 92 95 90 90 91 92
87 85 86 90 87 95 100 100 100 99 98 99 96 95 89 85 80 81 79 83 86 82 92 95 91 93 88 88 86 95 97 91 72 78 82 75 77 84 86 84 85 86 85 87 82 78 85 77 75 85 94 94 94 84
86 86 84 91 82 99 100 100 100 100 98 94 97 97 96 97 92 91 91 90 92 93 96 92 81 77 76 68 90 89 92 81 76 76 75 77 77 91 89 85 78 85 84 90 86 74 89 79 78 81 93 92 95 88
91 90 91 92 99 100 99 99 99 97 99 96 96 95 98 98 99 99 98 95 97 97 97 86 71 52 56 48 52 61 68 80 66 58 65 84 77 90 92 94 88 75 73 71 70 72 73 77 79 86 79 77 84 88
96 90 97 98 100 100 100 98 96 97 98 97 97 97 99 100 99 98 94 97 95 92 90 67 56 54 51 60 51 69 63 77 73 67 65 68 76 87 84 85 80 82 82 82 68 73 78 74 76 77 77 73 77 81
93 97 100 100 99 99 99 91 97 99 99 98 96 100 99 99 97 93 99 94 89 86 63 62 59 79 66 79 90 91 86 76 72 76 71 67 68 79 82 84 88 85 89 92 91 89 88 71 70 74 73 74 79 84
92 100 99 98 99 97 97 98 98 96 97 99 98 98 97 97 98 100 99 96 85 93 76 70 72 86 95 95 88 72 80 75 73 83 73 67 78 76 74 69 84 86 86 84 88 90 86 72 72 73 77 93 94 95
98 99 99 98 98 96 97 97 98 98 97 97 96 94 99 97 97 97 98 92 78 70 64 63 73 68 62 57 54 66 84 72 71 69 76 68 70 74 79 77 75 83 85 89 91 93 94 90 91 95 94 96 95 97
97 98 97 91 96 91 94 97 97 94 96 99 95 97 97 95 98 88 93 82 56 59 61 66 69 72 69 59 54 81 79 70 65 64 78 70 64 71 79 79 85 88 88 87 88 93 92 90 93 95 96 92 82 96
98 98 99 82 83 84 88 86 84 93 94 95 97 96 94 92 91 83 82 70 67 72 66 65 67 65 60 59 56 76 69 71 73 72 76 80 86 76 71 74 79 81 81 87 88 88 87 89 94 95 96 97 96 96
97 95 94 96 98 95 94 95 94 89 90 87 81 94 88 84 78 82 83 92 93 94 95 92 83 72 81 87 84 80 92 92 90 85 81 85 90 92 91 90 87 80 86 89 88 91 88 89 94 94 96 97 97 97
98 88 86 98 98 95 91 90 89 84 74 78 81 81 86 86 88 88 92 96 97 98 97 97 98 95 94 90 85 83 87 78 74 78 69 71 90 92 96 91 91 92 89 86 79 88 95 96 96 95 97 97 97 98
98 83 95 94 94 94 90 84 89 94 87 81 85 88 86 87 96 98 98 99 99 98 95 92 94 90 92 91 95 96 84 71 59 54 58 66 70 90 94 94 93 94 93 94 94 93 80 91 89 99 100 99 99 99
92 95 95 94 94 96 98 96 94 82 95 98 96 95 83 95 94 98 98 98 98 98 96 99 96 94 92 90 91 91 89 86 94 88 86 83 85 84 90 91 90 92 93 94 95 97 97 100 99 100 100 100 100 99
96 93 91 94 96 99 98 98 99 98 99 98 97 98 96 95 91 93 99 96 99 99 92 92 92 92 85 86 81 76 62 86 93 91 86 86 86 86 88 90 90 91 92 93 94 96 97 96 98 99 99 100 100 100
97 98 98 99 100 100 100 97 100 100 100 100 97 96 95 91 82 90 98 98 93 88 90 90 91 94 92 90 81 91 85 87 90 84 78 79 85 89 90 89 90 90 92 93 95 96 97 98 100 100 100 100 100 100

GFSWCAN_sfc_rhum_087.txt.gz
RH
80 81 81 69 64 68 73 74 78 78 85 82 82 87 85 82 80 76 79 78 85 94 88 76 73 86 81 85 84 76 75 74 81 77 78 77 78 70 76 69 72 73 81 81 78 82 62 60 68 65 59 70 62 70
81 82 82 71 64 68 72 75 78 79 83 88 85 88 85 82 77 75 82 79 76 86 83 70 71 70 77 79 88 84 78 80 85 88 82 80 74 75 70 65 73 61 63 70 62 65 56 62 68 73 66 64 74 72
85 83 84 72 64 68 73 76 78 80 80 89 85 84 82 77 74 72 88 90 89 88 88 83 77 68 64 68 70 88 88 82 81 83 90 83 78 77 75 73 72 72 69 66 60 62 62 58 73 66 70 73 69 70
88 86 86 74 65 68 72 77 77 80 79 86 85 84 79 75 75 71 85 90 92 89 88 83 60 76 64 65 71 74 76 78 79 87 89 88 83 74 77 70 75 65 69 69 71 62 71 68 66 63 66 68 72 70
89 89 88 76 68 69 72 77 79 82 80 82 90 85 78 72 69 80 88 89 81 89 89 86 71 66 62 64 69 74 78 82 91 90 93 88 89 82 87 84 91 73 72 72 65 59 61 70 67 67 71 72 72 72
90 91 89 78 70 70 73 77 80 82 84 82 87 83 72 70 70 80 82 90 83 86 95 94 82 78 69 67 70 71 74 78 87 90 90 89 80 83 93 93 66 67 63 59 59 72 71 72 72 76 74 74 69 67
91 93 90 80 71 70 74 79 81 83 85 85 83 74 74 71 83 71 71 74 78 90 91 96 98 80 71 73 79 79 75 84 84 90 88 88 88 86 94 94 63 59 62 64 65 66 76 75 77 78 72 70 64 63
92 93 91 81 72 71 76 81 83 85 88 87 82 77 74 74 76 79 87 79 84 82 94 99 95 88 78 87 86 84 84 86 87 88 87 83 88 90 93 79 66 62 68 68 68 70 70 76 76 75 74 70 70 64
92 94 91 82 73 73 79 82 87 91 93 90 82 79 85 84 88 88 76 82 93 77 94 99 94 94 84 89 90 87 87 92 90 89 89 82 88 92 70 67 69 58 64 66 74 70 78 78 81 80 78 71 56 50
93 95 92 82 74 77 82 87 93 93 92 88 83 80 93 89 74 76 83 76 91 92 95 95 96 91 91 92 90 91 92 96 94 88 89 90 88 70 62 67 62 60 64 75 82 85 81 82 84 84 71 55 49 53
93 95 91 84 81 83 85 92 92 91 78 82 89 90 90 74 81 81 90 84 90 84 91 93 96 94 89 94 94 90 98 98 94 90 88 93 92 83 65 64 57 67 75 74 76 76 72 71 76 68 53 53 56 58
93 95 90 84 84 84 90 92 84 81 87 82 84 86 88 87 92 74 88 90 85 82 90 92 88 92 89 92 94 89 93 94 90 94 97 97 85 78 70 70 77 83 80 68 66 72 67 64 58 56 57 60 61 65
93 94 88 83 84 84 91 88 78 78 76 76 87 84 92 88 86 81 80 87 95 94 97 95 93 89 88 92 93 92 94 95 87 98 93 86 80 78 79 76 81 83 69 59 54 55 58 63 62 60 66 69 68 66
93 95 90 84 85 87 91 84 80 76 80 90 84 79 86 90 91 89 90 89 90 95 96 96 97 95 92 93 91 87 84 82 95 100 83 88 80 77 85 84 85 82 70 74 72 67 71 77 79 79 68 70 68 69
93 95 91 87 87 88 92 83 75 78 87 87 91 86 92 86 97 97 98 94 95 95 94 94 96 88 97 93 88 89 91 96 89 76 86 93 82 81 87 89 89 83 74 72 74 81 82 82 82 85 82 76 74 73
94 96 96 88 90 90 91 77 85 86 99 93 98 99 93 94 96 98 98 98 98 95 96 95 94 97 94 94 95 91 87 81 74 92 90 92 80 84 85 87 90 87 80 73 69 66 71 71 72 78 75 76 80 82
96 99 94 89 91 90 86 96 99 100 100 99 98 96 94 96 91 95 90 91 94 92 94 96 89 74 87 98 98 90 89 83 89 94 97 87 79 83 85 84 82 81 77 72 69 73 74 73 86 90 85 80 86 86
96 97 90 89 91 93 99 100 100 100 99 99 99 97 94 87 89 88 87 95 95 97 96 87 86 85 85 82 86 85 91 94 96 91 94 86 82 85 85 83 77 74 73 85 86 88 88 88 85 83 90 94 91 91
94 92 89 89 89 97 100 100 100 99 98 99 99 95 84 81 80 80 83 92 91 92 90 93 88 85 75 86 85 91 96 92 57 60 87 83 81 87 89 87 87 88 88 90 85 74 73 75 72 82 89 88 85 80
92 90 88 89 87 99 100 100 100 100 99 97 99 96 93 93 85 86 91 89 89 92 94 94 78 61 69 71 85 84 91 78 79 70 68 80 82 91 90 86 81 90 88 92 89 75 79 76 77 80 84 84 84 78
96 93 91 92 100 100 100 99 99 99 99 96 98 94 97 98 98 97 95 93 96 95 94 76 68 50 64 62 60 71 60 78 75 60 46 85 83 93 94 92 91 83 79 76 74 73 71 71 78 78 74 72 78 80
98 90 97 98 100 100 100 99 97 97 97 99 97 98 100 100 100 98 95 96 96 76 80 57 52 56 56 62 56 64 48 69 75 76 66 74 90 95 91 88 87 83 78 78 67 67 75 73 73 74 74 70 71 73
93 96 100 100 99 99 99 93 94 99 99 99 98 100 100 99 96 95 99 95 93 88 64 61 61 63 68 67 84 82 77 71 66 74 74 76 77 86 88 86 78 82 86 87 80 78 82 71 73 70 70 71 72 78
92 100 99 98 98 98 98 98 98 97 97 97 99 100 99 98 99 100 99 97 93 87 75 72 65 68 93 94 78 63 66 83 74 88 82 84 88 86 78 77 77 85 75 82 84 86 81 72 70 74 71 84 88 92
98 98 99 98 99 96 98 97 97 97 96 96 97 99 100 98 100 99 97 93 89 71 71 70 75 76 74 71 70 68 78 75 72 72 82 73 82 92 95 95 92 92 84 89 90 88 86 82 83 85 88 90 93 97
97 98 96 92 97 90 94 97 96 96 96 98 91 96 98 96 99 88 93 89 62 59 65 72 68 70 81 75 68 65 66 76 78 78 76 73 71 74 83 83 92 94 88 78 84 88 86 84 86 90 89 87 81 96
97 98 98 84 83 83 88 87 87 92 96 95 98 99 95 92 88 81 85 91 78 77 74 67 70 70 64 66 71 67 93 81 81 81 87 75 72 67 74 75 76 68 82 86 84 83 84 84 85 87 88 93 95 94
98 97 97 96 96 93 95 95 95 92 91 90 84 98 88 81 78 81 81 91 92 96 96 96 93 80 80 87 92 93 98 96 93 90 85 87 96 98 91 92 86 79 83 85 84 84 82 82 84 86 90 93 95 96
98 89 86 98 98 94 93 91 88 86 78 82 77 85 86 88 90 90 92 94 98 93 92 93 95 98 98 98 97 94 92 88 87 87 82 88 93 91 98 91 90 91 90 88 82 84 88 86 87 88 91 94 95 97
98 83 93 92 94 92 89 84 90 91 88 80 79 89 90 91 94 98 98 98 93 86 86 90 93 90 93 92 98 100 97 88 76 74 72 72 70 89 93 93 92 92 90 88 88 85 76 86 86 99 97 97 98 99
88 96 96 96 93 96 98 98 95 83 94 96 96 92 89 95 91 98 96 95 93 97 97 98 97 93 92 94 92 94 95 93 94 95 92 86 87 87 90 90 90 90 89 89 88 89 94 98 94 95 96 97 100 99
96 93 94 96 97 98 97 97 97 96 97 94 95 100 96 93 88 87 95 96 98 97 88 86 90 88 87 91 90 94 80 92 94 93 89 89 85 87 88 90 90 90 90 90 91 94 93 93 94 95 96 98 100 100
97 98 99 97 100 99 99 94 96 96 96 100 97 97 96 89 80 80 98 91 85 75 79 84 91 95 91 88 88 88 88 93 87 85 84 82 85 88 88 88 88 88 88 89 92 93 94 93 95 96 97 98 100 100

GFSWCAN_sfc_rhum_090.txt.gz
RH
84 80 82 81 68 64 69 75 77 78 81 86 84 87 82 81 78 75 82 86 83 92 88 80 78 86 82 87 84 78 77 74 82 77 80 80 84 73 75 72 71 63 80 83 82 84 60 64 69 58 49 75 65 73
85 81 83 82 71 64 68 74 77 80 79 84 89 88 82 77 76 76 80 80 80 83 80 73 72 71 76 81 87 87 81 83 89 90 88 88 78 83 75 62 74 74 64 68 64 61 50 68 64 71 65 65 73 73
87 84 83 85 75 66 67 73 77 80 80 84 89 84 85 76 69 74 87 92 88 87 88 86 81 71 68 73 73 86 90 84 84 85 92 89 81 82 80 77 74 72 74 74 63 56 63 61 74 71 70 73 76 76
89 87 85 87 79 69 67 73 77 79 80 78 87 85 82 78 70 68 79 90 92 92 88 82 65 78 70 70 76 78 79 82 85 92 91 90 87 78 81 72 79 65 71 71 73 64 70 64 70 69 72 75 75 74
90 88 86 89 82 72 69 73 77 79 82 82 87 89 85 77 72 83 90 89 86 84 87 86 79 71 67 68 72 79 81 86 93 91 94 88 91 88 89 89 93 78 73 68 62 54 56 63 67 69 75 78 77 73
91 88 87 91 84 75 70 74 77 80 83 84 81 84 79 76 74 84 79 91 84 90 94 92 85 80 76 76 77 76 80 82 91 92 91 92 83 83 92 93 70 71 72 62 54 74 68 74 72 73 74 77 77 74
91 89 89 93 87 78 72 75 78 81 83 85 85 78 79 77 84 78 71 72 80 90 89 89 95 85 79 79 84 83 82 87 87 91 92 91 89 90 94 93 60 65 64 68 72 71 78 77 72 77 74 72 67 67
92 90 90 93 90 80 73 76 80 83 85 88 86 78 74 75 73 82 87 82 82 88 91 96 93 86 83 87 87 90 88 91 89 89 92 87 88 93 96 78 78 70 75 73 73 78 71 78 80 80 77 72 70 66
93 91 90 93 91 81 74 77 82 85 90 92 86 76 85 88 89 88 77 82 91 74 89 98 88 84 86 90 92 89 90 93 91 92 91 86 88 90 72 68 69 70 71 69 76 83 85 83 82 81 79 76 71 56
92 90 90 94 92 85 76 79 83 89 94 89 81 82 91 90 76 74 80 78 89 90 96 94 96 95 90 94 91 93 93 96 95 87 91 95 92 74 67 70 63 64 67 77 81 86 86 87 88 87 81 70 54 51
92 89 90 95 92 85 81 82 89 93 85 88 91 91 87 78 81 83 89 84 88 85 89 90 96 95 91 92 94 92 96 98 95 86 92 92 91 83 73 72 69 68 69 74 76 77 75 76 84 86 70 55 54 57
92 90 91 95 91 84 81 88 91 85 89 85 86 88 88 86 90 76 89 89 89 83 93 94 93 92 92 93 94 92 91 94 93 94 97 96 83 74 79 71 74 81 80 74 70 74 73 73 76 69 57 60 59 61
93 91 92 94 89 81 84 92 84 77 78 79 85 85 87 88 86 85 79 89 96 94 97 97 96 90 91 93 95 91 93 95 88 97 93 84 74 72 80 77 83 85 78 66 65 68 64 64 62 61 64 65 65 64
95 93 93 93 90 84 89 92 83 79 78 89 84 80 84 94 93 87 85 88 87 95 97 95 98 95 94 94 90 85 80 83 95 100 78 87 70 77 84 83 84 81 69 77 76 70 73 77 77 74 67 67 62 64
96 94 93 95 92 87 91 91 80 78 88 88 91 88 92 86 97 96 97 95 97 95 95 94 96 86 97 94 90 90 93 95 88 76 84 83 75 82 83 87 86 84 71 66 69 77 84 84 83 87 79 75 70 72
96 96 96 93 92 88 92 90 86 83 99 94 98 99 91 96 98 99 98 95 97 94 97 93 96 95 92 94 95 93 87 80 72 90 86 87 78 78 84 88 88 85 77 71 70 69 73 74 74 75 78 76 79 78
98 96 94 94 92 90 93 97 99 100 100 100 99 93 91 92 93 95 83 83 94 91 92 95 87 74 90 98 98 87 86 81 84 88 94 89 79 76 83 87 90 91 86 78 74 74 78 74 88 89 80 79 84 86
97 95 95 94 91 91 99 100 100 100 100 99 99 98 89 83 87 95 89 95 94 96 92 86 88 90 88 86 87 85 88 94 94 92 93 78 81 84 84 87 88 90 89 88 84 87 89 89 88 84 85 87 88 89
94 96 94 93 88 97 100 100 100 99 98 99 100 98 88 84 78 80 85 88 94 93 92 95 87 87 75 81 80 89 94 91 60 51 67 73 80 83 88 91 92 91 90 89 86 77 75 77 74 81 81 82 79 77
96 95 94 91 85 99 99 100 100 100 99 98 99 96 94 91 85 87 90 88 90 94 94 94 75 64 62 67 81 79 88 81 71 58 52 68 81 91 92 92 89 90 94 95 94 80 87 85 83 79 81 81 81 73
99 97 94 92 100 100 100 99 99 100 99 99 99 94 96 98 97 97 94 91 92 96 95 76 56 40 61 59 61 70 67 73 63 46 37 67 69 90 94 94 93 91 86 82 80 82 75 75 82 79 76 73 72 75
98 92 98 99 100 100 100 100 98 98 98 98 98 98 100 100 99 97 94 95 97 74 79 52 50 49 58 69 62 67 52 62 67 69 63 66 78 96 97 94 94 90 84 81 73 73 79 80 83 75 71 68 72 71
91 96 100 100 99 99 99 99 97 98 97 98 98 99 100 99 96 93 96 94 89 82 60 61 60 64 70 64 85 82 77 67 61 61 57 62 64 84 94 93 87 88 88 86 80 83 87 75 74 73 68 70 69 74
92 99 99 98 98 98 99 98 97 97 98 98 97 97 97 98 99 100 99 97 91 91 81 74 67 70 85 95 84 68 66 80 69 67 74 75 81 82 80 84 86 83 76 76 82 86 86 83 77 72 67 74 78 80
98 98 98 98 99 96 97 97 98 98 96 97 98 99 100 99 100 100 100 94 89 67 72 75 82 77 77 71 68 68 82 82 80 79 74 79 76 97 98 96 90 87 86 87 86 85 90 86 84 81 79 82 86 91
98 98 96 94 97 91 94 97 96 97 96 97 95 97 98 96 98 89 87 87 56 58 70 77 71 77 80 73 69 69 69 87 88 84 71 86 82 78 85 90 95 96 87 71 80 86 89 83 84 85 82 80 78 90
97 98 98 90 85 84 87 87 86 93 96 96 97 98 91 88 87 81 78 76 76 77 71 71 70 70 65 71 80 76 95 89 86 86 92 89 81 76 78 81 83 78 86 80 78 79 80 83 84 82 83 86 90 90
98 98 95 96 94 94 95 97 96 91 91 89 82 96 89 82 80 80 78 88 86 94 93 92 86 78 80 82 92 95 99 98 97 96 96 96 97 98 94 93 90 81 83 80 79 77 78 82 84 82 84 85 90 90
99 93 90 99 97 93 90 91 89 84 76 82 81 87 88 85 86 83 86 95 98 92 88 89 90 98 98 98 98 95 94 91 88 90 88 91 96 94 97 92 86 86 85 84 77 82 89 86 82 82 85 86 90 94
98 86 96 94 94 92 88 83 90 90 88 79 79 89 86 88 90 98 97 96 89 83 79 83 91 90 87 92 94 100 98 91 82 80 86 83 87 93 94 95 94 93 90 90 92 91 78 80 82 94 94 95 95 95
93 96 97 96 94 96 97 97 95 81 93 95 92 89 81 94 92 98 93 92 91 95 91 88 94 93 90 92 90 93 91 92 92 92 96 94 92 90 93 93 91 90 88 87 86 86 88 94 92 93 93 94 95 96
98 95 94 97 97 97 97 97 96 95 96 92 92 99 95 92 87 88 93 94 94 92 82 83 86 75 83 87 87 92 73 90 88 87 90 90 89 90 90 89 89 87 86 86 88 91 90 90 91 91 92 94 96 96
96 96 96 96 99 98 98 94 96 96 98 98 95 96 95 90 80 83 97 86 75 67 71 76 79 96 89 87 87 87 89 95 88 81 84 83 85 89 89 88 87 86 86 88 90 90 91 90 91 92 94 95 96 97

GFSWCAN_sfc_rhum_096.txt.gz
RH
92 87 86 84 82 82 72 65 71 78 81 82 84 88 87 89 82 81 89 92 87 86 84 84 78 84 90 92 84 76 74 77 83 77 80 82 87 81 86 74 70 60 71 82 86 86 60 66 73 53 42 76 73 77
93 89 87 85 84 84 77 66 69 76 80 82 85 91 88 85 76 75 85 86 82 85 78 81 78 79 77 78 86 88 77 82 86 88 92 92 84 90 80 70 73 73 59 53 66 61 47 68 57 67 65 64 72 74
94 92 88 86 86 85 83 70 68 74 79 82 80 88 84 81 72 73 88 94 88 88 87 86 79 79 76 79 80 85 91 85 90 87 92 92 89 85 86 87 79 71 77 73 68 59 64 60 69 70 69 66 71 74
95 93 90 88 88 88 86 76 69 73 78 80 77 85 88 79 71 68 80 93 93 90 90 80 73 80 79 78 82 82 83 87 89 94 92 93 90 78 84 73 75 60 76 75 80 66 69 62 65 67 71 72 76 79
96 95 92 89 89 88 90 81 72 73 78 80 83 84 83 77 72 86 88 90 92 87 87 83 81 80 78 79 82 85 83 88 94 94 96 93 92 89 93 94 97 78 69 67 58 51 50 47 63 70 72 75 76 76
96 95 94 91 90 89 92 86 76 74 78 82 85 86 83 80 76 82 82 92 88 92 94 91 85 85 82 81 82 88 91 91 94 94 94 94 88 87 94 94 70 81 76 64 56 71 64 71 75 80 79 78 79 75
96 96 95 93 92 90 92 90 79 76 79 82 84 87 80 79 90 86 78 74 84 92 90 87 92 88 81 82 90 91 87 91 93 92 97 93 90 92 95 95 64 63 66 71 76 77 73 75 68 78 78 78 76 74
96 96 97 95 93 90 92 91 82 77 80 82 84 89 82 73 75 83 86 81 86 85 89 91 87 85 81 89 90 94 93 94 92 93 94 94 92 96 98 80 81 76 75 76 73 78 74 82 82 84 85 85 81 77
96 96 97 96 95 92 92 91 85 82 83 85 89 81 84 91 93 87 78 79 89 75 90 95 90 83 89 93 94 94 93 96 92 95 94 90 94 97 79 80 75 70 69 70 83 83 82 81 82 85 84 81 79 74
91 95 96 97 96 94 93 91 85 83 86 90 87 89 95 90 76 73 82 83 91 88 95 94 95 94 92 95 95 94 95 96 96 92 94 99 94 74 70 73 72 73 76 80 84 88 87 85 87 87 85 82 79 75
92 95 96 97 97 96 95 92 84 87 90 91 97 97 90 79 80 82 92 91 90 88 89 92 93 96 91 94 93 91 96 97 98 90 95 96 95 84 69 72 74 78 80 83 78 75 78 79 85 87 87 84 78 68
95 96 96 97 97 96 96 93 87 95 96 90 88 84 86 84 92 86 93 89 92 84 93 96 93 90 94 94 95 98 96 95 96 94 98 98 85 70 69 70 67 78 86 88 86 75 73 80 83 86 86 85 69 61
94 96 96 96 97 97 96 94 88 85 76 76 82 85 89 88 93 99 99 94 98 93 98 98 98 92 95 94 95 95 97 97 91 99 95 86 72 65 64 68 76 82 86 86 80 79 82 82 88 87 83 72 67 71
90 95 96 97 97 97 96 94 91 85 91 94 89 89 90 96 94 89 91 89 86 94 96 96 98 95 94 96 92 91 84 87 98 100 86 88 70 52 60 76 83 81 84 87 88 82 84 90 89 82 74 72 70 70
80 92 97 97 97 97 96 95 94 95 96 98 91 90 93 83 96 96 96 95 95 93 91 94 96 88 98 94 92 88 93 98 93 83 85 86 57 54 68 71 83 84 84 81 80 86 90 87 84 86 81 75 68 69
84 94 93 92 95 97 96 96 98 98 100 100 98 98 89 94 96 100 98 97 96 88 94 90 95 92 89 92 97 92 89 86 80 92 89 74 54 64 66 67 79 85 86 81 72 72 74 78 78 81 82 79 76 76
84 98 93 91 95 97 96 98 100 100 100 100 98 94 93 96 95 93 88 84 86 87 89 91 84 74 91 98 97 86 87 83 88 90 95 77 58 55 60 66 76 86 88 86 78 74 79 78 87 90 86 83 85 84
93 93 92 93 97 98 99 100 100 100 99 99 99 98 94 86 92 88 81 88 87 90 85 83 87 90 87 82 84 85 91 94 92 84 85 67 68 65 66 66 70 84 88 91 88 88 90 89 86 76 82 88 92 96
90 93 92 95 97 97 100 100 100 99 96 100 98 99 95 90 86 85 82 81 90 84 86 95 88 88 73 80 86 89 93 91 64 59 67 66 66 65 69 81 87 90 92 95 92 82 76 75 68 72 76 82 78 87
88 89 88 94 92 100 100 100 100 99 99 98 98 99 98 96 89 90 87 88 91 94 95 96 77 63 65 68 82 78 76 70 68 54 49 52 54 70 75 77 76 86 93 97 97 87 92 90 82 79 80 79 81 82
82 90 91 97 100 100 100 99 99 99 99 99 98 94 97 98 99 97 98 89 95 98 96 84 70 47 58 55 56 64 59 64 59 51 42 61 56 64 70 78 85 88 94 88 91 92 88 82 75 78 78 78 80 84
94 92 99 96 100 100 100 100 100 99 98 99 98 96 98 98 99 98 95 98 95 80 85 74 62 55 52 53 52 62 50 60 59 65 61 66 65 74 73 75 89 85 86 82 81 81 84 85 82 79 76 82 81 87
93 94 100 100 100 99 98 100 99 98 98 99 99 98 97 98 98 93 97 94 86 90 68 69 67 69 65 58 79 86 69 62 57 62 59 61 64 67 78 77 79 81 81 79 87 85 87 84 78 79 78 84 83 84
91 100 99 98 98 98 99 98 98 97 98 98 98 97 98 98 98 98 97 86 73 95 78 75 73 71 67 70 68 62 62 70 72 69 65 72 74 70 71 69 74 78 75 87 92 92 93 84 78 80 80 86 84 78
100 98 99 98 99 98 99 98 98 98 97 98 97 98 97 98 97 97 98 97 87 84 76 74 71 70 70 67 67 67 71 73 78 79 72 79 76 88 92 91 87 84 93 94 96 93 92 92 86 86 84 84 85 84
98 96 96 92 98 95 95 98 98 98 97 99 95 97 98 97 97 93 93 86 66 68 71 70 68 72 72 71 70 68 68 83 79 80 74 85 82 80 84 87 87 90 93 85 91 92 93 90 93 88 85 80 78 83
97 97 99 95 90 91 94 89 87 95 98 95 98 97 96 96 95 86 89 83 59 64 64 64 67 69 66 67 73 70 94 87 85 82 92 93 88 81 82 86 87 87 94 92 90 89 90 90 90 85 84 84 81 82
95 98 98 96 95 97 95 98 97 98 93 92 88 100 95 90 83 82 80 88 92 93 92 89 77 73 75 82 91 93 97 97 97 96 96 94 95 95 93 96 96 78 95 92 91 90 87 86 86 84 83 82 87 85
99 95 91 98 98 97 93 92 92 89 85 90 90 92 88 89 90 90 87 94 93 95 92 90 94 97 98 98 98 94 94 91 88 89 85 80 92 85 92 95 96 97 96 96 81 85 89 86 84 82 82 84 89 88
94 92 96 98 96 96 90 89 94 95 92 86 84 91 91 91 90 96 93 94 92 84 84 91 94 89 89 89 90 97 97 90 80 73 73 72 80 94 96 96 96 97 96 95 94 92 75 81 78 90 92 94 91 91
93 96 99 98 96 96 95 98 98 87 96 97 96 89 67 87 89 93 90 88 85 96 91 89 93 91 88 88 88 86 84 87 88 85 94 92 93 94 95 96 96 94 93 92 90 87 88 94 92 89 89 90 91 91
99 94 96 100 98 96 100 98 98 96 97 97 93 98 94 91 87 83 87 91 91 89 77 76 80 73 78 69 74 78 73 86 86 85 88 92 91 93 95 96 95 93 92 91 90 91 91 88 88 86 87 89 90 92
97 98 99 98 99 99 99 96 99 95 98 97 95 95 92 79 70 68 95 81 63 61 67 70 68 66 81 73 71 77 77 90 85 82 81 84 82 92 95 94 94 92 92 92 93 90 88 88 88 89 88 90 93 92

GFSWCAN_sfc_rhum_099.txt.gz
RH
93 92 92 88 86 84 81 73 69 73 78 81 82 88 91 86 77 79 89 92 85 89 83 84 79 82 90 90 81 68 68 72 83 72 75 80 86 79 86 76 68 56 73 83 87 88 59 63 70 48 39 68 63 71
94 92 93 91 87 86 84 78 71 72 77 81 82 87 89 85 75 74 84 88 85 87 79 82 80 79 78 76 85 88 72 80 84 82 88 91 85 92 79 63 76 66 54 48 60 53 45 67 54 60 53 57 63 67
94 94 94 92 89 86 84 83 74 72 75 79 80 80 86 80 71 72 88 94 90 91 88 87 78 81 79 78 80 83 91 87 88 89 91 90 88 86 87 88 80 69 74 70 62 56 62 55 58 68 65 64 65 69
94 96 95 94 91 89 88 87 80 73 73 77 79 81 86 81 71 67 79 93 94 93 92 81 75 82 80 82 82 82 84 90 90 94 92 93 89 79 82 72 76 57 73 73 78 63 61 56 62 59 66 68 67 72
94 95 96 95 93 90 90 90 84 76 75 77 81 84 80 82 75 88 89 90 92 89 91 88 80 82 82 83 82 84 84 88 94 94 96 93 93 90 92 94 98 76 68 63 56 50 47 46 57 68 71 71 74 74
94 95 96 96 95 93 91 92 89 80 77 80 83 85 85 78 76 83 84 91 89 92 94 91 84 87 86 84 87 89 90 92 94 94 94 94 88 88 94 95 74 82 75 61 53 65 60 59 68 74 75 75 77 79
93 95 96 97 96 94 92 92 91 83 78 80 82 86 86 78 90 87 82 74 85 92 87 88 90 88 83 85 92 92 90 94 93 93 98 93 91 93 96 88 64 65 68 71 72 79 74 72 66 75 77 78 78 79
88 93 95 97 97 96 94 93 92 86 79 79 82 87 87 74 76 84 89 82 85 83 88 92 87 81 85 91 92 95 95 95 94 94 95 96 94 97 98 79 79 69 73 76 76 78 73 80 82 83 85 88 84 82
84 86 90 93 95 97 96 94 93 87 82 82 86 83 88 92 94 89 80 80 88 76 89 94 90 82 90 95 95 95 94 97 94 96 96 93 94 98 82 79 76 75 70 68 76 79 83 84 79 83 86 87 84 84
85 83 88 86 90 96 97 96 94 88 85 88 88 95 97 93 75 79 85 87 92 89 94 95 94 90 92 96 96 95 96 97 98 92 96 98 92 77 70 75 73 72 74 79 84 84 86 87 85 85 88 85 83 82
92 92 89 93 95 96 98 97 94 90 90 93 99 98 93 78 82 84 94 94 93 93 89 92 89 95 92 93 94 93 97 97 99 92 98 96 96 86 75 77 78 80 80 81 81 79 79 80 82 85 86 85 82 78
92 92 94 95 96 96 97 97 94 94 96 90 89 82 81 82 93 89 95 92 94 89 94 94 91 90 95 94 94 98 96 97 99 96 99 98 88 74 72 70 72 68 76 81 85 84 84 76 81 84 86 87 85 76
91 92 92 93 96 96 96 97 92 88 89 93 90 89 92 90 98 100 98 97 98 94 97 99 98 91 98 95 96 96 98 97 91 99 96 87 75 68 64 64 66 79 86 85 83 87 80 78 83 86 86 86 78 70
90 91 88 89 93 96 97 97 94 93 96 100 99 98 94 96 96 91 91 92 90 96 96 96 98 95 92 97 91 94 87 89 100 100 90 90 74 63 54 70 80 79 82 88 90 87 84 88 89 91 85 80 70 68
87 90 86 85 92 96 97 98 94 96 98 100 100 96 97 85 96 96 97 92 93 89 90 94 96 88 98 96 91 89 95 99 92 84 87 88 66 53 56 62 69 80 80 80 80 86 90 92 92 88 84 76 69 68
87 91 90 82 86 92 96 98 96 99 100 99 99 100 91 95 96 99 98 95 94 85 89 91 94 95 89 93 98 93 88 84 79 91 89 81 54 55 60 60 64 75 78 77 75 73 74 80 82 81 78 78 74 72
89 96 85 89 90 94 97 99 99 100 99 99 98 96 94 96 94 95 81 82 86 81 91 92 91 78 92 98 97 87 87 84 86 88 94 80 57 55 60 59 64 77 83 83 82 74 74 75 84 89 83 78 79 77
90 89 84 86 91 98 99 100 100 99 99 98 99 98 95 86 93 93 84 89 87 91 89 90 87 89 87 86 86 83 85 91 92 84 82 67 64 62 62 58 60 74 82 90 90 89 90 89 85 74 77 84 86 90
91 92 87 87 94 97 100 100 100 98 96 99 99 97 96 93 90 86 84 85 91 86 91 96 89 89 78 80 82 91 94 87 60 60 68 64 62 63 69 75 81 85 87 91 93 84 79 76 69 68 72 79 72 74
84 86 85 87 87 100 100 100 100 99 99 97 99 98 97 94 90 90 88 92 95 98 98 98 85 67 62 64 82 83 83 66 61 55 49 48 54 72 74 70 67 70 82 92 93 86 94 89 82 76 80 76 74 76
82 86 82 88 100 100 100 99 99 98 99 98 98 94 98 99 100 98 96 93 98 98 97 88 74 60 60 56 57 68 63 59 52 43 39 59 49 57 59 68 78 77 83 77 78 79 82 89 78 79 76 74 72 69
93 82 100 97 100 100 100 99 99 99 99 99 99 98 99 100 99 98 95 98 98 84 78 66 65 67 64 59 52 54 51 58 55 56 58 62 56 72 72 68 84 79 78 75 72 69 72 81 93 85 80 74 74 80
87 96 100 100 100 99 96 99 99 99 99 99 99 99 98 99 98 94 97 96 83 66 66 66 67 77 69 61 64 64 72 64 55 53 54 54 51 57 63 71 81 81 82 77 85 79 81 82 86 88 84 80 86 83
92 100 99 98 99 97 98 99 99 98 98 98 99 99 98 99 98 98 97 92 69 75 69 71 68 72 71 74 74 67 65 71 69 64 62 69 74 63 62 65 65 77 76 88 93 91 92 92 87 89 84 90 85 82
100 98 99 98 99 97 99 97 98 98 98 100 97 97 97 98 97 97 97 89 71 75 71 70 72 70 69 65 63 66 75 71 73 74 73 75 68 73 85 86 78 80 91 91 93 94 97 96 92 92 89 89 88 86
98 96 97 93 98 94 95 99 99 98 98 100 96 96 98 97 97 94 92 75 65 67 69 70 67 67 67 67 69 69 66 84 83 81 73 83 81 80 83 91 90 90 90 83 92 93 94 94 94 92 91 87 84 85
98 98 99 96 94 93 96 90 88 96 100 97 99 99 97 96 95 87 91 89 68 79 76 66 66 68 66 63 66 69 94 89 84 81 90 91 84 79 80 88 86 88 94 92 92 91 91 93 93 91 91 90 85 82
96 97 96 96 97 95 96 98 97 99 93 92 91 100 96 91 84 85 84 90 91 94 89 90 84 76 74 73 85 94 98 98 96 95 95 93 95 96 94 96 95 79 94 94 93 93 91 90 92 92 91 88 92 87
98 96 94 98 97 97 95 93 93 92 86 92 90 92 90 90 91 90 87 94 96 95 90 89 85 95 94 94 97 96 95 93 90 90 86 77 90 85 91 93 95 95 95 95 83 90 94 93 92 89 86 87 91 90
94 95 97 97 96 95 90 90 94 94 92 86 84 91 90 83 90 96 94 93 86 74 72 85 92 92 90 92 90 94 96 91 80 75 78 72 72 91 94 94 95 95 96 95 96 95 82 88 85 92 95 94 92 93
93 91 98 98 97 95 93 98 97 89 96 98 97 91 71 74 88 91 83 70 70 91 91 80 86 88 87 89 89 84 82 86 90 85 92 92 87 88 92 94 95 95 94 94 94 92 92 96 95 94 92 92 92 92
98 95 98 100 98 97 99 100 99 98 98 100 87 99 96 94 90 59 51 86 83 76 72 70 70 67 78 69 74 78 71 84 76 80 84 85 86 90 92 95 95 94 93 92 92 93 93 93 93 90 91 91 91 92
98 96 97 99 99 100 100 97 99 99 100 100 94 80 75 83 81 64 93 79 65 62 62 65 68 66 67 74 71 71 72 86 83 76 76 78 78 84 93 94 93 92 92 92 94 93 93 92 91 91 91 92 93 92

GFSWCAN_sfc_rhum_102.txt.gz
RH
93 94 93 93 90 85 82 82 76 72 73 77 81 85 90 85 75 67 74 76 65 62 58 63 59 61 68 63 50 51 54 56 56 49 48 44 50 43 54 44 38 36 44 50 53 58 54 40 53 37 26 31 41 49
89 92 94 94 93 89 84 84 82 75 74 76 80 82 87 84 75 69 66 72 66 65 61 63 59 57 55 54 55 68 54 58 53 47 54 52 52 56 46 31 46 43 31 28 37 30 31 42 36 34 32 36 43 45
87 89 93 95 94 91 87 86 86 80 76 76 77 79 85 80 71 66 68 74 71 68 62 62 58 58 62 59 57 58 65 65 69 63 54 56 59 51 47 50 49 41 42 41 40 27 37 31 29 38 39 40 40 43
90 90 93 95 94 94 91 88 89 85 77 75 75 79 83 81 72 65 67 74 73 70 74 60 60 61 61 63 64 63 65 71 68 67 64 60 57 52 47 45 45 29 46 40 41 35 32 32 35 33 35 42 44 45
92 92 92 95 96 95 95 91 90 89 81 76 77 80 84 82 77 79 78 74 76 70 71 68 63 66 65 65 66 66 66 69 69 75 76 69 60 62 58 66 62 43 39 40 34 26 27 27 33 44 46 46 47 48
89 92 92 94 96 96 96 94 92 91 86 82 80 82 85 79 77 74 74 78 75 77 78 76 67 70 69 69 71 72 71 70 70 70 70 67 70 63 69 62 46 47 39 31 31 34 34 37 42 45 47 46 50 52
90 91 92 92 95 96 97 96 94 92 88 83 80 82 86 80 78 75 74 70 76 80 72 84 82 71 65 68 73 73 76 73 71 73 78 70 70 78 75 61 39 43 44 44 43 47 48 49 45 50 53 55 60 58
83 82 87 90 92 95 96 97 96 95 90 83 79 82 87 80 76 77 76 79 76 69 76 94 88 65 68 74 74 75 74 74 75 72 75 77 75 78 86 57 51 49 46 48 46 49 45 53 57 55 62 65 64 61
89 86 80 84 84 86 90 94 97 96 91 85 83 83 83 84 83 75 80 78 77 72 91 87 88 85 76 77 76 79 73 83 73 78 76 77 75 95 69 57 55 55 58 54 55 57 56 62 58 60 63 65 64 61
90 90 90 85 89 90 91 93 97 97 92 90 89 94 98 81 75 82 75 79 83 81 82 88 81 82 77 81 81 80 79 78 94 71 77 87 79 64 57 56 56 54 57 57 64 72 70 74 67 61 66 61 62 62
90 90 91 93 89 93 91 95 96 95 93 97 98 97 84 76 71 72 88 89 83 90 80 80 82 81 75 85 79 75 90 87 94 83 85 84 80 69 58 56 54 56 54 55 54 56 54 57 63 64 67 66 66 65
89 90 91 91 92 93 94 95 96 93 96 93 91 82 76 77 85 91 92 85 92 88 81 82 77 73 80 79 77 89 87 90 97 80 93 93 76 63 58 58 57 54 53 53 57 59 61 62 64 67 68 68 69 68
87 89 90 90 91 90 92 95 96 90 92 97 96 99 97 92 97 100 99 97 95 84 89 89 89 78 87 83 83 83 99 93 76 92 86 72 61 54 50 50 51 64 66 69 68 69 71 69 65 70 72 74 72 69
86 88 89 89 90 86 90 93 97 92 95 99 100 98 96 98 92 89 85 87 78 82 87 81 89 82 80 87 79 92 74 78 96 99 86 77 63 50 48 49 53 54 68 81 83 75 78 84 80 81 79 71 68 63
85 86 87 88 90 88 87 92 95 96 98 100 100 97 97 82 86 86 90 81 82 78 79 80 86 72 87 90 82 84 91 97 83 79 76 74 56 49 39 46 47 56 61 64 68 79 84 83 83 79 78 76 67 60
81 86 87 84 86 86 86 92 98 98 100 100 100 100 89 91 92 92 92 87 86 80 80 79 84 87 86 84 93 94 83 84 78 88 76 58 46 43 43 45 48 54 57 58 59 61 65 70 74 74 70 75 70 64
80 91 80 80 83 90 94 99 100 100 99 99 99 95 87 88 88 79 69 68 78 79 87 87 91 82 86 88 90 79 86 80 86 83 76 66 54 47 50 48 50 57 62 65 64 63 69 68 74 80 76 68 72 69
84 85 81 84 87 90 97 99 100 100 98 98 99 93 84 70 75 77 71 81 85 86 88 92 84 87 86 85 80 78 81 90 82 74 67 60 53 49 53 49 50 58 67 82 86 86 84 84 81 72 75 80 78 78
88 90 85 85 88 98 100 100 100 98 95 98 96 92 87 83 78 76 78 78 84 79 87 96 95 93 66 69 79 91 91 82 57 43 49 55 55 49 60 71 74 71 74 77 80 71 67 70 62 63 65 69 64 61
78 80 82 84 85 100 100 100 100 99 99 93 99 98 92 87 84 84 83 86 90 98 98 98 89 66 56 52 73 69 75 67 54 45 47 47 43 66 68 64 57 59 62 68 75 73 75 73 73 68 67 66 66 63
81 84 83 85 99 100 100 100 99 97 98 99 100 96 97 96 97 98 96 90 99 98 97 85 67 56 55 46 47 64 56 59 50 41 37 52 47 49 50 60 68 61 59 51 51 52 67 66 59 69 70 68 66 62
94 80 98 98 100 100 100 100 99 99 100 95 99 98 98 99 99 98 98 99 98 87 83 64 61 61 64 64 60 58 52 51 55 50 54 49 49 59 61 60 70 68 68 64 54 51 48 54 66 76 72 69 68 70
85 92 100 100 100 100 96 99 99 97 99 97 97 99 98 99 96 94 97 93 86 68 64 66 64 65 68 62 66 65 65 65 60 55 52 54 51 55 60 57 55 76 74 68 66 64 68 65 73 77 76 74 75 76
90 100 99 99 99 98 99 99 92 94 98 98 98 97 97 98 96 99 96 96 74 62 67 70 65 67 65 70 72 68 65 66 67 66 61 60 65 60 56 56 53 60 68 62 79 79 77 75 76 78 79 81 81 78
99 97 99 97 99 100 97 97 97 98 97 98 98 96 97 96 97 97 95 90 73 66 69 68 68 68 69 65 61 60 66 66 68 70 66 70 68 66 68 66 61 58 72 84 82 83 84 85 85 87 86 85 86 87
98 89 97 93 97 94 94 96 97 96 97 98 95 91 96 96 97 94 90 76 62 63 67 71 69 69 68 67 68 66 62 69 72 73 70 72 77 78 84 82 82 82 81 75 81 86 85 85 87 92 88 88 85 85
97 88 96 88 92 93 95 89 86 94 99 97 98 99 96 96 95 81 79 82 73 84 83 76 71 71 70 66 65 63 66 87 84 77 74 85 78 76 81 85 85 79 84 85 84 82 83 86 87 88 88 88 85 84
95 95 96 96 98 96 94 97 97 99 92 88 89 99 96 93 82 81 80 84 84 87 87 85 85 83 79 75 78 86 87 89 91 88 85 84 86 88 89 84 87 79 86 87 85 86 86 86 87 88 89 89 88 83
98 96 95 99 97 95 95 94 92 88 78 87 90 89 89 84 87 85 79 83 90 89 79 66 66 86 88 90 89 89 89 91 90 90 89 81 83 82 89 88 91 90 89 88 81 86 92 89 89 88 88 86 87 86
95 94 86 98 97 96 92 91 92 92 86 82 80 90 90 85 84 85 85 84 80 67 63 66 68 80 74 79 72 82 91 88 84 78 78 77 77 83 88 89 91 92 90 89 93 93 83 88 87 92 94 94 92 90
96 93 97 89 81 75 81 94 95 83 96 98 97 95 71 77 86 88 78 67 67 69 71 74 73 73 81 77 76 73 72 84 85 83 79 78 83 84 84 88 90 92 91 91 92 92 93 95 95 94 93 94 92 88
99 97 95 100 94 97 98 100 97 95 96 99 88 97 96 94 88 60 50 73 74 71 70 70 71 66 63 71 68 68 62 72 81 83 83 81 79 79 83 88 93 92 91 91 91 93 94 94 94 93 92 93 92 92
97 97 98 100 100 98 99 98 100 100 100 100 97 87 77 75 73 55 84 81 65 63 62 63 65 65 66 70 72 71 73 75 81 79 77 76 76 79 88 90 91 91 91 92 93 94 94 94 93 93 92 92 93 90

GFSWCAN_sfc_rhum_105.txt.gz
RH
89 89 92 93 93 91 87 83 83 77 74 75 77 82 88 88 80 67 63 63 67 53 45 50 47 48 53 47 37 44 46 52 48 46 37 33 38 31 40 28 29 32 41 47 43 48 60 34 44 32 25 28 32 36
86 86 88 92 94 93 90 88 88 84 75 75 75 79 85 87 79 68 59 60 56 64 54 50 43 42 42 40 45 52 48 44 41 40 39 37 38 35 31 25 30 37 24 23 28 30 28 34 25 28 29 30 34 36
86 84 86 89 93 94 93 91 88 89 82 75 75 74 83 84 77 71 63 66 66 64 55 60 54 47 49 50 44 46 49 51 55 54 45 43 51 36 36 34 29 29 25 35 29 21 24 24 24 28 33 34 31 34
90 89 88 89 92 95 95 94 91 90 86 78 74 73 80 82 79 74 72 65 68 64 73 52 51 55 50 51 52 49 54 59 56 56 54 53 47 38 37 31 38 26 35 33 30 26 25 24 24 25 26 29 34 35
82 86 89 90 90 94 96 96 95 92 90 83 77 76 78 83 81 77 74 66 65 69 73 60 52 55 55 55 59 57 57 57 57 68 70 64 47 54 43 48 52 31 34 36 30 23 22 23 28 34 37 38 39 40
85 87 90 92 90 92 95 96 97 94 92 88 82 78 81 83 75 66 68 67 61 67 77 75 63 63 63 60 62 63 62 60 60 63 63 55 58 53 58 47 31 32 29 26 26 30 28 28 34 35 41 39 40 43
86 84 82 86 89 93 94 95 96 96 94 91 84 80 82 86 76 69 66 63 67 66 65 84 77 67 62 65 66 68 67 65 65 67 69 58 63 69 67 53 27 32 32 33 31 34 43 41 41 42 43 44 50 50
85 84 81 83 83 85 88 91 93 97 95 92 83 80 83 84 82 79 69 75 67 63 66 99 92 61 62 68 68 65 69 70 70 67 67 71 66 71 78 49 38 32 35 36 37 38 40 40 46 48 48 51 58 59
87 86 86 86 77 80 84 82 88 94 97 92 84 84 84 83 81 72 81 77 71 69 92 90 94 92 69 70 68 73 68 81 67 78 70 70 68 92 66 55 46 43 48 47 50 46 44 49 49 48 50 54 59 54
88 88 87 89 91 89 87 88 90 93 96 89 89 92 93 80 76 82 79 79 81 75 78 90 74 86 69 70 74 70 72 77 92 70 70 81 78 58 48 48 46 44 46 49 61 70 69 71 64 51 52 53 55 56
85 87 89 91 91 92 89 89 92 94 92 95 97 95 78 74 71 70 88 90 79 93 76 76 79 76 66 82 73 68 92 83 93 85 82 80 76 58 47 47 45 42 44 46 48 50 51 52 53 51 56 59 62 66
85 88 89 89 90 90 91 90 90 91 95 92 92 84 79 83 89 97 96 86 92 88 72 77 71 64 67 67 72 80 88 86 95 77 87 90 72 58 52 54 46 44 47 51 51 52 47 50 51 58 61 64 68 68
84 87 85 84 86 85 89 89 93 90 90 95 95 100 99 93 100 97 97 94 92 80 84 81 86 65 73 75 73 79 96 91 68 86 80 72 60 49 41 41 47 59 58 58 60 61 62 64 64 65 70 73 69 68
82 86 86 86 86 84 88 88 91 91 94 100 100 100 99 98 93 86 79 89 75 79 82 74 82 75 67 83 70 94 68 69 88 97 80 71 60 52 43 47 46 40 61 80 85 76 78 88 83 81 75 69 66 67
81 84 86 85 87 88 88 89 92 96 96 100 100 99 98 82 88 89 98 85 79 70 76 78 82 65 85 88 73 84 84 94 77 75 79 78 57 48 41 41 42 45 51 59 64 81 87 88 86 80 78 74 69 68
78 81 78 80 83 83 85 87 92 98 100 100 100 100 92 98 99 92 93 92 82 74 75 79 90 88 87 84 87 90 78 81 84 93 79 58 49 44 41 42 43 42 51 56 57 57 65 73 74 74 69 74 76 72
79 75 73 75 80 88 90 96 99 100 100 100 100 90 87 86 84 77 64 59 67 78 90 91 97 89 83 85 83 72 83 86 92 86 77 62 58 54 49 46 48 50 51 60 60 63 66 66 77 85 76 66 77 76
81 73 79 77 79 81 93 100 100 100 100 99 98 87 84 70 70 61 55 67 76 77 90 100 94 97 93 84 73 75 78 84 78 70 65 63 54 49 55 50 49 53 57 78 85 88 88 86 82 72 78 84 82 81
79 80 79 80 80 85 100 100 100 100 98 99 90 85 82 77 69 64 63 68 66 70 86 99 99 96 83 71 68 79 88 79 51 46 45 46 47 49 58 68 72 71 74 72 73 64 62 69 63 65 68 74 69 67
81 81 82 84 83 92 100 100 100 100 98 80 90 89 87 83 72 75 73 77 81 96 99 98 85 64 63 50 59 59 55 50 47 50 43 37 41 59 72 70 61 64 60 62 69 66 63 65 67 68 69 66 68 65
81 81 82 84 95 93 100 100 100 97 100 95 99 94 96 98 100 100 99 90 98 98 96 85 69 55 51 47 43 48 49 48 43 42 38 41 37 62 62 64 75 58 59 55 50 49 59 58 48 62 67 68 67 65
82 79 91 91 100 100 100 98 100 98 98 98 99 100 100 99 96 98 100 98 97 84 79 64 61 58 58 57 54 53 54 56 55 54 57 55 56 56 56 57 66 69 67 64 53 46 44 44 49 59 69 66 68 74
81 87 100 100 100 100 95 99 99 96 94 87 98 99 97 96 96 94 98 95 86 71 65 64 61 60 63 59 62 64 64 67 64 61 57 56 55 58 65 64 62 76 75 68 63 64 66 60 65 68 73 73 77 78
89 100 100 99 98 93 98 97 96 88 95 94 94 84 83 91 93 97 95 77 64 58 61 66 64 64 62 66 68 65 63 62 65 66 62 64 68 62 57 58 54 57 63 62 67 70 72 68 69 74 81 85 83 80
100 98 100 97 91 91 96 92 96 97 94 92 85 85 92 92 97 95 86 70 68 63 62 60 64 66 69 64 61 60 59 61 66 70 64 65 66 66 70 69 62 60 68 81 77 74 79 81 80 83 86 86 86 87
98 88 94 90 92 92 87 93 93 91 75 87 92 83 93 95 97 93 71 61 55 59 62 63 63 64 65 66 67 67 64 68 67 71 68 67 69 76 86 83 81 76 75 71 77 80 82 83 84 88 88 86 83 86
87 86 93 78 77 84 87 81 79 87 96 96 89 94 95 97 94 80 55 66 60 64 66 71 69 70 68 66 65 65 63 72 85 71 69 85 82 76 84 86 84 79 84 84 84 83 84 86 84 86 86 87 85 85
87 88 96 86 95 85 86 82 89 90 94 87 85 96 96 94 74 63 79 84 91 94 93 86 82 80 78 75 74 72 81 91 95 92 88 83 82 81 82 84 82 82 88 86 85 85 84 84 84 86 87 89 89 86
92 81 80 85 95 97 93 90 90 80 71 84 86 81 82 76 61 62 66 77 81 87 80 73 72 89 84 81 82 84 85 87 86 84 79 74 78 86 91 86 88 91 88 87 78 84 89 88 87 87 88 87 89 89
88 76 76 80 84 85 72 84 82 74 75 68 64 66 71 63 60 74 77 75 77 74 72 76 76 94 76 72 68 65 74 82 80 72 70 70 72 87 90 88 89 90 90 88 91 92 80 85 85 92 94 95 93 93
72 85 82 74 74 70 67 74 88 74 85 92 88 83 72 63 59 66 70 67 71 78 81 78 74 73 72 68 70 69 66 74 80 78 74 70 90 89 88 87 89 91 90 88 91 92 93 94 94 94 94 95 94 92
94 83 78 84 81 73 91 95 93 92 76 83 82 83 83 86 79 63 52 77 74 71 70 71 71 64 59 60 62 67 66 66 71 84 81 79 80 85 85 87 90 91 90 90 91 92 94 94 94 93 93 94 93 93
97 91 88 87 82 84 89 95 96 92 91 90 83 76 76 75 78 59 80 77 61 59 59 58 60 63 62 65 66 68 73 75 72 72 79 79 78 81 84 86 87 88 90 91 92 93 95 94 94 94 93 94 94 92

GFSWCAN_sfc_rhum_108.txt.gz
RH
91 87 88 88 92 92 91 88 85 83 79 77 77 78 87 86 80 78 82 76 86 87 74 56 55 61 65 64 53 62 67 71 69 71 57 55 60 50 61 42 54 64 77 82 78 78 76 46 54 41 35 45 45 49
92 86 87 86 89 92 92 91 89 88 83 77 78 76 83 86 81 79 79 69 67 86 77 62 56 58 61 66 69 63 68 55 60 67 63 58 61 52 48 49 43 48 36 43 52 58 42 48 41 42 37 41 47 50
92 86 85 86 88 90 93 93 92 89 89 80 76 75 76 84 80 80 86 80 84 87 81 78 71 61 56 60 59 74 67 68 67 80 78 68 76 61 62 54 56 40 34 49 39 31 26 37 41 40 41 45 43 44
88 87 87 88 90 90 93 95 94 92 90 85 77 76 75 81 82 81 92 83 86 82 93 74 57 67 63 60 63 65 68 68 71 78 82 81 75 54 59 50 48 43 46 47 46 34 30 28 28 33 34 39 42 44
81 81 86 88 90 90 92 94 95 96 93 90 83 78 77 79 83 86 89 85 78 87 94 86 64 70 64 65 68 69 69 74 81 89 93 90 76 68 69 72 59 44 37 45 36 34 35 37 41 46 46 52 50 51
83 84 86 86 88 91 92 94 95 96 96 93 87 80 78 82 80 86 94 82 73 80 94 97 77 77 76 74 75 77 77 80 85 84 90 82 76 73 87 80 52 46 34 30 35 35 38 46 46 53 53 51 51 54
83 83 76 79 80 86 88 90 92 94 96 95 90 83 80 83 92 88 92 83 71 82 88 94 96 79 79 82 81 84 81 88 89 90 90 85 85 81 94 71 44 41 40 39 35 48 50 52 49 50 52 56 60 67
82 83 82 82 80 80 81 86 88 89 93 97 90 83 81 83 89 94 88 80 79 87 82 99 98 84 82 88 91 83 89 88 92 93 88 87 88 92 97 69 61 50 43 49 50 49 49 58 60 60 61 63 69 72
83 85 84 84 85 85 82 82 84 87 92 96 87 84 88 93 89 94 80 78 88 88 100 100 99 97 83 88 89 91 88 88 86 93 89 90 93 97 80 70 64 59 57 61 65 65 60 58 60 61 62 66 72 74
85 85 86 86 87 88 89 88 87 91 96 89 88 86 89 92 78 84 92 94 96 93 95 99 95 98 89 90 91 90 91 88 89 89 89 92 88 71 61 58 55 58 60 62 76 74 74 76 73 69 66 63 66 70
82 84 86 87 89 89 89 90 93 90 86 93 95 95 88 74 85 89 98 94 93 98 94 95 95 96 84 96 94 87 98 89 94 95 96 95 94 79 62 61 55 60 61 65 66 67 64 70 71 69 64 65 70 74
81 83 86 86 88 87 85 91 91 92 96 93 92 83 83 90 99 99 98 97 95 91 93 94 91 91 90 88 94 92 97 94 95 94 92 95 86 71 62 62 64 60 56 58 62 66 67 64 63 68 70 74 77 79
79 80 82 81 81 84 83 86 89 90 88 93 95 100 100 98 100 99 96 94 94 95 95 94 96 88 91 92 93 94 99 94 85 97 94 88 80 66 65 53 53 64 68 67 67 69 71 74 74 72 76 78 80 81
78 80 81 81 81 82 81 84 90 91 92 100 100 99 99 98 96 93 92 96 95 96 96 94 96 92 85 93 87 100 87 85 97 95 92 92 80 69 63 57 59 52 58 80 88 84 80 90 88 87 81 78 77 78
77 80 83 82 82 84 86 87 88 96 97 100 100 98 96 91 97 98 99 95 94 90 93 94 97 89 97 98 91 94 92 96 94 90 92 93 73 62 53 45 47 51 54 62 67 79 90 91 93 88 82 81 80 80
76 77 82 79 81 81 84 88 94 98 100 100 100 99 96 99 98 98 98 98 95 91 94 96 94 97 96 96 98 96 94 91 84 92 91 86 63 58 56 50 46 48 50 57 64 65 68 74 80 82 78 80 81 82
75 82 66 72 80 83 87 95 100 100 100 100 98 92 94 96 96 97 94 90 83 93 97 98 99 92 98 98 98 90 91 86 92 94 94 78 67 63 60 56 51 51 50 53 60 66 70 72 88 89 81 70 76 79
82 79 76 75 80 85 91 99 100 100 98 97 98 91 95 91 91 88 85 87 93 94 97 98 99 99 97 97 93 89 88 87 91 88 78 75 69 66 64 59 56 53 55 68 76 78 87 88 87 78 76 80 85 87
81 82 78 81 82 88 98 99 100 96 93 96 96 96 94 93 90 85 85 80 83 89 97 100 99 98 94 90 75 75 78 94 70 59 71 65 64 62 61 69 72 71 69 75 78 69 62 65 60 63 67 78 74 75
78 79 80 81 79 96 100 99 100 99 98 86 96 94 97 96 90 91 90 90 89 96 99 98 90 76 79 64 74 73 81 82 81 75 60 53 54 66 71 69 66 66 70 77 77 70 74 70 67 66 67 68 73 69
79 82 83 86 98 99 100 97 99 99 95 96 98 96 94 99 97 95 96 96 94 98 88 89 77 60 56 51 50 57 58 58 57 58 58 61 52 54 58 66 84 85 81 70 61 58 61 65 62 68 69 68 67 69
88 77 96 89 100 100 99 96 92 96 98 96 98 99 99 96 94 94 98 98 98 87 87 72 67 63 64 65 60 60 58 61 62 69 69 67 70 69 69 69 74 75 75 74 69 63 58 55 59 66 65 63 69 85
81 85 100 100 99 99 95 95 99 97 97 94 99 97 95 98 97 99 99 98 83 72 70 71 69 67 71 65 66 68 68 70 71 68 65 64 64 69 73 74 73 82 80 76 76 75 76 68 66 68 72 75 86 92
85 100 99 98 98 97 98 97 88 96 94 88 91 76 85 77 77 89 85 80 71 69 74 77 77 76 72 74 75 71 67 74 78 75 74 78 81 75 72 72 67 67 73 72 74 77 76 75 76 81 84 84 86 85
97 97 99 97 99 98 97 99 97 99 96 90 87 88 94 98 93 95 93 72 66 62 65 69 66 69 72 68 65 64 62 80 77 75 72 87 81 80 82 79 73 71 74 82 84 86 83 81 89 86 87 86 88 92
97 84 97 96 97 97 94 98 92 92 81 87 92 92 98 94 91 92 87 63 57 57 58 57 60 65 69 69 70 70 68 83 80 85 74 80 79 82 91 93 88 81 85 84 83 84 84 85 89 90 88 87 82 88
97 91 97 92 92 93 95 90 84 94 96 95 94 98 98 97 90 71 48 48 57 66 64 70 75 71 70 68 80 75 71 88 83 72 74 89 87 83 86 87 85 75 90 89 89 88 88 90 91 90 90 91 88 87
91 87 86 84 95 93 89 89 96 97 95 95 99 98 95 92 87 91 79 86 86 76 88 87 89 84 81 76 75 85 86 88 88 93 95 90 88 84 81 84 82 79 86 91 90 92 92 92 92 91 91 92 93 91
91 72 74 84 90 96 88 90 79 82 70 90 78 71 63 48 50 58 55 65 75 92 81 65 64 92 87 80 81 81 86 89 89 88 83 76 66 61 77 88 87 91 92 93 82 87 91 93 93 92 92 92 93 93
91 79 74 80 84 89 71 80 74 59 59 58 57 59 59 58 55 54 62 65 87 85 77 75 71 79 73 70 70 70 82 87 84 84 83 73 67 62 83 92 93 95 96 94 93 92 79 88 85 97 96 97 96 97
88 84 94 80 77 71 66 59 72 61 79 75 71 74 68 62 57 60 63 63 74 86 90 79 73 73 77 75 75 70 64 73 78 79 76 72 73 74 75 89 93 95 94 93 93 92 93 96 96 96 96 96 96 95
90 76 75 79 77 66 85 94 92 86 76 78 80 75 79 86 81 65 53 65 69 68 68 71 74 71 64 63 62 64 65 65 68 75 86 81 81 80 81 93 93 94 94 93 92 91 93 95 95 95 94 95 95 96
99 95 91 86 82 75 89 92 96 93 81 80 77 72 73 74 81 70 86 73 63 64 65 64 63 62 63 68 67 66 66 68 71 72 74 75 78 80 92 93 92 92 92 92 91 92 95 96 95 94 94 94 94 95

GFSWCAN_sfc_rhum_114.txt.gz
RH
93 93 90 84 84 84 88 92 92 88 85 82 79 80 79 85 84 85 92 89 82 92 84 77 63 72 72 73 57 51 57 67 84 75 72 66 68 58 68 63 79 82 94 98 94 98 83 54 55 34 29 51 48 55
94 94 91 85 83 84 88 92 93 93 88 85 80 79 77 80 83 81 89 88 85 86 70 86 78 77 74 69 67 78 54 72 68 77 82 77 67 75 65 47 70 59 54 71 75 70 50 52 42 42 43 38 38 49
95 95 91 86 85 86 86 90 93 93 92 89 83 77 78 75 78 85 97 96 93 94 85 84 80 72 64 72 71 71 75 75 80 80 83 82 77 72 71 71 66 48 52 54 47 38 43 42 41 46 50 47 43 45
96 94 91 87 87 88 88 90 92 93 94 92 86 80 77 77 78 83 97 94 95 96 94 74 67 79 71 71 71 76 73 80 83 88 84 85 81 68 70 58 60 48 49 51 53 38 33 32 34 34 37 43 50 52
94 94 88 86 88 89 89 91 93 91 93 95 93 89 79 77 79 92 97 94 90 82 81 88 84 80 76 75 79 81 79 85 90 88 92 91 92 87 87 88 92 62 53 57 44 34 38 36 37 40 42 39 42 50
94 89 87 88 88 88 88 91 92 91 92 94 96 92 84 78 82 93 95 90 81 90 90 88 85 84 82 82 81 83 86 90 92 90 94 94 86 81 93 95 70 65 56 48 42 53 48 44 46 44 46 42 47 54
89 88 89 82 83 85 85 85 85 86 87 90 95 93 86 81 92 82 84 83 74 89 91 90 92 85 84 87 92 92 90 94 93 93 96 94 90 88 95 98 62 61 64 63 61 69 57 59 53 48 52 50 54 62
89 88 82 82 81 80 80 81 81 81 84 88 92 93 84 81 87 95 94 83 83 88 88 98 94 90 82 93 93 95 95 94 93 95 93 94 88 94 98 81 76 69 66 66 66 69 65 61 65 60 60 66 66 68
86 85 84 83 82 83 82 83 77 76 80 88 93 85 86 92 95 96 78 83 92 90 99 99 99 94 83 92 93 93 94 92 90 98 96 93 94 98 84 80 74 67 74 67 68 69 71 78 69 70 71 70 74 74
83 84 84 83 84 83 84 88 90 90 92 89 86 89 96 97 79 82 90 93 96 96 98 99 98 98 89 94 94 94 95 88 92 94 88 96 95 78 68 65 65 66 65 72 74 72 82 82 81 77 74 74 76 76
82 85 84 84 86 86 84 88 92 88 84 93 96 98 96 77 91 93 97 94 96 99 98 97 98 96 92 92 93 93 98 93 96 93 94 91 95 82 69 72 70 67 66 69 68 72 70 78 85 85 81 78 78 79
84 84 84 83 83 83 82 88 89 94 97 92 92 88 91 94 100 100 98 98 98 92 94 98 95 95 93 92 94 94 94 91 96 94 94 96 86 71 67 68 60 61 62 59 60 62 67 76 78 82 80 77 78 80
82 82 82 81 79 80 81 82 85 88 87 91 94 100 99 98 100 100 100 95 96 97 97 96 94 91 92 92 94 96 98 96 90 99 98 88 74 66 66 67 58 58 56 58 60 68 72 78 77 80 80 81 81 83
79 80 80 79 79 79 80 78 82 87 92 99 100 97 96 96 85 94 94 94 93 98 97 95 97 96 94 96 94 98 92 92 100 99 87 89 72 64 72 63 59 52 50 59 65 64 72 80 83 84 82 80 79 80
78 78 80 81 80 79 79 84 88 95 96 100 100 95 86 84 98 98 98 96 94 94 95 96 96 92 98 98 97 98 99 98 98 91 90 88 68 71 62 60 62 64 60 56 53 62 68 74 79 77 78 80 80 81
76 76 85 79 77 79 83 88 93 96 100 97 98 99 94 99 91 99 98 97 96 94 96 96 97 98 98 98 98 96 97 98 88 93 93 86 74 73 59 67 65 68 69 64 59 55 54 57 63 67 70 76 81 84
76 89 72 76 79 83 86 95 97 100 99 93 98 90 95 98 95 97 96 89 94 92 92 98 99 93 97 98 97 95 95 91 90 81 96 85 78 67 74 77 76 73 70 69 70 68 68 64 82 89 79 56 70 78
91 81 71 75 84 88 97 99 97 97 96 91 92 92 91 86 92 94 95 96 94 93 94 95 94 100 99 97 83 88 92 89 83 79 71 74 74 83 81 80 72 72 74 78 79 76 83 81 80 72 70 70 73 83
80 86 76 78 84 92 98 100 99 95 90 96 96 94 95 95 95 90 91 93 91 92 95 99 99 95 86 83 76 76 80 87 80 72 58 56 80 80 76 78 80 81 80 81 76 69 64 70 71 65 64 70 71 63
78 76 76 78 80 99 99 98 100 96 95 93 99 100 97 95 92 95 92 93 97 98 100 98 72 64 71 63 85 92 87 72 62 60 52 48 50 59 69 72 69 69 75 75 78 75 81 85 77 79 76 75 78 76
81 89 84 89 100 100 99 98 98 98 94 97 97 99 95 99 98 99 99 96 99 97 88 80 71 63 60 55 53 57 58 60 59 56 59 66 60 63 65 66 69 70 90 82 79 76 78 82 76 74 77 78 77 78
90 82 98 97 99 98 99 94 98 98 98 97 98 98 94 95 99 99 98 100 98 76 69 66 67 66 65 64 61 60 60 62 63 66 69 70 76 76 73 72 75 78 78 80 80 84 83 81 81 83 85 84 79 82
82 93 100 99 99 99 94 98 99 99 99 97 98 97 94 100 94 95 97 91 78 57 61 65 64 66 71 68 68 69 67 70 71 69 67 68 68 72 75 74 72 81 84 82 83 88 87 80 82 86 87 87 90 90
88 99 99 98 98 95 99 94 98 100 98 98 100 100 91 95 97 99 91 74 55 56 61 64 65 67 66 72 80 77 73 70 71 71 71 76 81 77 71 71 69 74 82 82 82 82 86 85 81 88 90 91 91 91
99 98 98 97 92 96 99 99 98 100 97 98 98 95 92 96 91 100 94 69 62 60 61 59 65 71 74 64 60 58 57 63 70 74 71 78 75 75 84 85 80 77 83 88 86 85 85 82 85 92 90 92 93 92
97 95 96 92 98 94 95 100 99 97 100 100 97 90 100 96 99 88 86 61 55 56 56 56 59 63 67 68 71 69 64 61 75 82 76 84 81 86 88 86 86 79 80 82 84 86 80 78 86 89 90 91 88 93
96 96 97 88 90 94 95 93 84 93 94 96 92 98 99 95 94 76 62 57 57 56 56 63 65 66 64 62 65 66 63 68 79 69 64 65 73 79 83 82 81 73 68 87 89 85 80 81 86 88 88 90 91 94
93 93 99 95 98 97 91 99 97 96 89 90 92 97 95 88 63 49 54 51 68 72 73 73 74 70 74 71 71 68 71 72 86 88 86 88 87 86 79 79 79 76 79 80 83 82 88 89 92 93 92 94 92 96
99 96 91 97 100 100 95 87 78 70 48 64 73 58 55 43 45 50 47 49 52 80 66 62 61 75 85 81 79 78 79 76 95 88 87 81 69 66 91 85 83 83 90 86 78 81 89 92 94 94 94 94 94 96
99 91 90 94 90 93 80 81 79 56 55 57 56 56 55 55 53 50 54 57 62 63 63 62 61 63 66 66 65 61 61 66 82 82 83 78 70 70 86 83 85 87 89 90 90 89 82 91 97 99 99 98 98 98
92 88 93 89 78 64 62 55 58 51 58 66 64 70 68 64 56 52 55 56 59 62 65 67 67 66 68 68 71 73 72 61 71 77 78 71 70 72 77 79 79 85 92 91 92 94 96 97 98 98 98 96 96 94
94 87 81 89 72 63 82 94 89 92 71 74 76 73 74 77 81 64 53 61 67 69 67 66 67 66 62 62 63 64 64 64 66 74 85 84 79 80 82 82 81 87 93 94 94 95 97 97 98 97 96 94 94 96
100 100 90 81 83 87 80 82 92 95 88 75 73 70 71 72 76 55 45 67 61 60 61 62 62 62 62 64 64 65 65 68 68 68 70 71 71 72 76 81 86 89 93 93 93 96 98 98 97 97 95 94 95 96

GFSWCAN_sfc_rhum_117.txt.gz
RH
94 93 93 91 86 85 84 90 93 91 85 82 80 82 79 82 82 84 93 91 79 88 79 81 69 76 78 74 56 50 57 64 84 71 70 68 68 62 68 64 80 86 95 98 94 98 75 57 56 34 28 44 53 47
94 93 94 92 86 84 85 90 93 94 91 86 81 80 79 78 81 79 88 90 88 86 72 89 85 80 76 68 63 80 52 71 71 74 83 77 69 82 70 47 76 59 59 73 78 70 51 59 50 46 49 44 45 42
96 94 94 91 87 84 86 88 92 93 94 92 85 79 78 76 79 82 96 97 93 93 82 77 82 75 68 76 75 72 76 74 82 77 79 82 69 70 68 70 66 53 58 59 51 41 54 46 47 49 49 43 39 50
97 96 95 92 89 88 89 90 92 92 93 94 90 84 78 77 79 81 96 97 92 95 92 72 70 80 74 74 76 77 73 84 86 88 84 84 76 67 69 61 60 50 54 52 57 42 35 34 40 39 39 44 45 45
97 96 96 93 90 90 90 91 92 88 88 92 93 92 84 78 82 92 95 92 91 81 81 82 83 81 78 78 81 82 81 85 91 89 92 91 91 90 91 90 92 64 53 53 52 46 46 45 42 50 50 49 45 47
97 96 95 92 90 90 90 91 93 92 91 92 93 96 90 79 82 94 94 88 84 93 88 88 81 84 81 81 82 84 87 92 92 88 92 93 88 85 94 95 70 69 61 59 58 58 61 57 55 58 54 55 50 52
96 96 92 90 91 89 89 88 87 85 86 87 93 94 90 81 92 85 85 87 77 91 92 91 93 85 85 88 93 93 91 96 93 94 96 95 91 91 95 97 66 61 65 69 69 75 63 69 61 58 63 62 62 62
97 94 92 89 87 85 85 85 83 81 83 86 90 94 86 84 90 94 95 84 88 94 92 97 93 92 86 93 93 96 95 95 94 95 95 96 91 95 98 80 72 69 67 62 68 67 71 67 71 74 73 69 68 69
93 89 87 86 85 84 83 81 79 79 79 83 92 87 89 90 90 94 79 84 95 93 99 96 99 95 87 95 95 94 94 96 94 95 96 94 95 98 84 80 75 75 74 69 68 70 70 76 71 71 78 75 75 75
92 90 88 88 87 86 85 85 87 87 89 92 90 94 98 96 81 82 89 91 96 96 98 98 99 98 92 95 96 96 95 96 98 93 92 98 94 77 69 68 72 71 71 73 77 63 63 66 62 68 78 82 85 84
84 85 86 87 87 86 86 92 93 92 85 95 97 98 96 80 92 93 98 97 94 94 97 97 98 98 92 93 94 95 98 95 93 95 96 95 93 79 68 66 66 66 68 65 72 72 74 72 72 78 77 79 80 78
80 78 78 80 85 86 85 91 88 93 97 92 93 92 93 93 100 99 99 98 99 94 96 99 97 96 94 94 94 96 95 90 96 93 96 94 87 72 66 66 61 58 55 52 54 56 60 66 75 84 86 83 81 79
83 83 83 82 81 81 88 91 88 84 88 92 92 99 96 96 99 99 97 97 98 96 98 98 96 94 93 92 95 96 97 95 90 97 97 90 76 66 64 69 62 63 58 59 58 60 58 63 69 77 76 80 82 84
82 82 81 80 79 81 79 86 88 87 92 99 93 100 94 96 92 93 95 94 92 98 98 95 98 97 95 96 94 98 95 94 96 99 90 90 75 61 67 65 66 61 65 70 70 68 68 72 70 71 75 76 82 78
81 82 82 82 80 80 80 85 87 94 96 96 99 96 97 90 97 96 98 99 95 94 96 97 96 93 98 98 92 98 99 95 96 93 90 90 70 68 73 69 68 71 71 70 70 75 76 76 76 72 71 74 78 81
79 80 88 80 80 80 89 89 93 95 99 97 99 98 94 96 96 98 97 98 96 94 97 96 98 96 98 99 99 95 95 92 88 94 93 86 73 72 69 76 75 76 77 71 70 74 74 76 72 68 67 72 74 78
77 88 78 80 82 87 82 96 96 98 96 95 89 94 98 98 96 98 95 92 91 92 93 96 98 96 97 100 98 94 96 92 91 92 94 88 88 67 76 75 74 79 78 79 80 82 82 74 85 86 79 66 71 75
92 85 79 83 89 89 95 96 96 91 95 92 95 97 89 90 93 92 94 96 94 94 93 88 93 100 98 96 92 92 94 95 93 87 74 70 80 77 73 80 75 78 78 77 85 82 87 88 88 82 80 80 85 82
87 85 81 79 82 93 99 100 95 94 90 96 98 97 95 93 94 91 92 93 94 93 95 99 96 98 85 88 82 83 91 95 79 64 58 59 64 62 62 75 81 84 84 83 83 78 72 77 80 78 79 82 86 80
75 76 79 79 81 97 99 99 99 94 97 93 98 98 97 97 93 95 92 94 98 99 100 100 82 66 73 65 75 70 64 61 66 71 63 54 51 61 70 74 70 71 74 75 80 80 82 86 87 88 89 89 92 88
83 89 81 90 98 96 94 98 97 96 95 99 93 99 98 99 98 99 100 98 99 97 98 89 67 56 55 52 50 54 56 60 62 60 59 63 56 61 66 69 73 71 76 77 79 79 76 81 78 81 89 87 84 85
94 86 99 96 99 100 99 88 97 98 99 97 99 99 100 100 99 98 99 99 99 88 83 63 61 61 62 62 60 60 60 62 63 64 66 66 70 72 73 72 75 78 79 80 79 79 78 76 79 87 90 88 85 89
89 94 100 100 98 98 90 97 95 96 99 97 98 97 95 99 96 96 97 94 81 64 60 60 58 58 62 58 60 64 65 68 70 69 67 66 66 72 76 76 75 83 85 80 77 80 84 79 82 86 88 88 90 92
86 99 98 98 96 95 99 97 97 97 97 100 100 100 99 98 98 99 93 85 58 54 58 60 59 63 62 70 78 72 66 65 69 72 74 80 83 76 73 78 87 78 77 75 78 82 84 85 83 87 88 89 89 92
99 98 98 97 99 98 92 99 98 97 99 99 100 97 92 97 93 100 95 73 65 60 59 55 58 62 63 57 58 58 56 63 68 68 65 74 78 75 79 84 79 77 77 88 89 88 86 86 89 90 87 88 90 89
97 97 95 92 98 94 93 100 99 98 99 100 98 93 100 98 98 93 90 62 55 56 57 57 56 59 61 67 66 63 59 58 79 78 70 69 70 74 81 84 83 76 69 81 85 87 85 82 89 88 83 83 82 85
96 97 98 88 88 94 96 93 86 96 100 98 95 99 99 96 93 81 62 63 56 61 56 58 61 63 61 58 56 57 59 62 71 65 59 62 71 72 77 84 82 70 60 77 82 79 83 82 84 87 88 86 88 92
94 95 94 94 98 98 92 100 99 96 90 89 91 94 92 86 60 47 57 54 70 74 78 69 67 63 61 60 58 57 61 59 68 89 91 82 78 76 80 79 76 73 74 76 78 79 86 90 91 90 90 90 89 92
98 98 90 100 99 100 97 89 86 84 58 75 74 60 56 44 45 49 45 48 53 59 60 58 58 59 66 72 66 67 69 68 71 82 83 81 70 64 77 82 79 78 82 84 78 80 88 92 91 90 90 92 91 94
96 93 95 98 96 95 82 88 85 59 66 57 55 53 54 54 52 50 55 57 61 63 62 61 62 66 69 69 69 65 65 77 78 77 77 74 67 60 86 78 76 77 86 91 88 88 80 86 88 93 97 99 99 99
97 96 96 95 89 71 66 59 64 57 68 74 66 72 66 60 52 51 55 55 59 62 66 69 69 68 70 70 72 73 73 65 67 70 72 70 70 71 72 73 77 82 84 89 90 92 90 92 96 95 96 99 99 97
97 94 93 95 76 67 90 90 93 94 71 70 71 69 70 73 78 60 51 61 70 71 69 69 72 71 66 66 65 66 66 65 66 74 83 79 73 74 76 76 79 89 91 93 91 92 93 95 94 96 96 97 97 96
100 99 99 94 91 87 93 84 91 95 87 77 72 69 71 72 76 61 69 73 59 59 61 61 62 61 62 65 65 66 67 68 68 68 69 70 71 73 75 79 83 86 89 93 92 92 96 97 96 97 97 96 97 95

GFSWCAN_sfc_rhum_120.txt.gz
RH
90 93 94 93 90 86 85 84 92 93 89 83 80 82 80 81 81 83 94 94 79 82 77 81 72 76 81 73 54 54 59 64 83 67 65 68 68 64 70 65 85 89 96 97 90 98 66 59 62 46 28 46 47 46
90 93 93 93 92 86 85 85 92 94 94 88 83 80 80 79 80 76 86 92 90 86 68 88 86 84 78 69 63 79 52 68 72 71 81 74 70 86 70 44 79 64 64 76 80 69 53 66 52 48 52 52 53 55
92 94 94 94 93 88 85 87 90 93 94 93 88 81 78 78 79 82 96 98 92 88 77 76 86 78 71 78 78 70 80 78 81 77 79 80 67 67 65 67 66 55 62 61 53 51 57 47 50 54 51 46 46 47
92 95 94 94 93 90 88 88 90 93 92 92 91 87 78 78 81 82 96 98 94 94 83 70 73 82 78 76 78 79 75 87 87 90 84 82 71 66 68 61 62 51 59 55 58 44 47 41 49 46 45 54 59 56
90 95 96 94 94 91 89 91 92 92 84 86 85 92 84 79 83 89 94 94 94 86 86 85 82 78 79 78 77 80 82 85 89 85 91 86 86 87 92 89 92 67 54 56 56 50 57 60 61 62 68 63 61 65
91 94 96 96 94 91 90 92 93 93 92 91 86 91 90 81 82 94 92 88 89 94 87 93 87 86 84 85 86 87 89 92 93 86 87 88 86 84 93 90 66 68 63 60 63 66 69 65 66 74 67 66 70 74
92 95 96 97 94 91 91 92 93 90 88 87 82 91 90 84 91 92 90 88 81 92 92 92 95 89 86 90 94 94 92 96 93 94 96 95 92 93 95 96 67 65 66 71 77 78 68 75 67 65 68 66 70 70
93 97 98 96 92 91 91 91 89 87 85 85 86 93 87 86 88 94 95 85 90 94 93 97 94 92 87 93 94 96 96 95 95 96 96 97 93 96 98 80 76 70 67 69 71 71 68 66 71 61 63 69 76 74
96 96 97 93 91 90 90 89 87 84 83 82 93 88 86 90 94 95 80 84 96 92 98 95 99 92 90 97 96 95 95 96 95 96 96 94 95 98 84 79 81 75 81 76 75 64 62 69 66 66 68 73 80 76
96 97 95 91 90 89 87 86 84 83 84 93 89 91 96 96 82 82 89 91 95 96 98 97 98 99 92 96 96 96 96 98 99 94 94 99 97 83 76 74 76 76 73 72 63 60 65 67 62 60 66 74 82 82
97 94 91 91 92 91 88 88 89 91 86 94 98 98 97 82 91 93 98 96 94 94 97 96 96 98 93 95 95 95 97 95 91 93 94 94 97 83 72 70 66 64 68 60 67 66 68 70 70 67 66 69 77 78
92 92 92 90 90 91 92 94 91 92 95 91 92 93 94 93 98 97 98 97 99 87 94 99 98 97 96 95 94 96 97 90 98 92 91 93 88 76 73 72 71 60 58 54 55 55 58 60 65 70 71 70 68 74
88 86 84 83 85 84 89 92 87 84 86 90 90 100 93 95 97 98 96 94 98 93 98 99 98 94 94 91 96 96 97 93 92 95 94 92 78 71 67 67 68 70 71 69 72 70 69 70 74 76 74 71 75 76
87 85 82 78 81 88 89 90 86 87 89 96 95 99 94 97 96 95 95 95 94 98 99 95 98 97 96 95 93 98 92 93 96 99 94 93 80 69 70 72 74 72 72 79 78 76 77 80 80 80 79 78 77 71
80 80 79 80 83 84 88 90 88 92 93 95 98 97 98 91 97 97 98 99 97 96 96 97 96 93 99 98 88 93 99 96 92 95 93 92 74 72 71 75 69 75 74 77 75 76 78 80 80 78 80 81 79 75
76 77 87 77 79 81 89 89 92 95 100 95 99 96 92 95 97 99 99 98 97 95 97 94 97 96 99 95 97 89 90 90 89 94 94 86 77 73 74 73 75 77 78 78 82 80 79 82 80 76 75 80 78 78
76 90 78 82 84 88 81 93 94 98 96 98 95 95 94 95 97 98 95 94 93 97 96 97 98 92 96 97 98 96 94 90 92 94 92 83 84 83 86 76 67 70 74 70 78 83 83 77 84 90 88 72 77 81
90 88 84 83 89 85 95 98 96 95 100 96 96 95 93 90 94 93 94 96 93 94 92 95 94 100 99 96 96 92 96 96 92 87 87 83 65 49 57 63 64 70 71 73 79 78 82 88 90 88 81 79 88 88
84 91 83 83 82 93 98 99 96 96 96 97 96 97 93 90 92 89 91 93 95 94 96 99 98 100 89 90 93 93 92 94 75 68 58 54 67 63 66 74 78 80 80 79 81 80 74 75 80 79 78 82 88 85
75 84 81 78 77 95 99 99 99 96 99 93 98 100 98 96 94 95 94 97 98 99 100 99 96 73 81 78 83 78 69 66 68 68 61 51 49 68 77 79 70 69 72 76 79 76 77 79 82 80 84 90 93 92
84 89 82 88 99 95 95 98 97 96 96 99 95 98 98 99 100 100 99 99 99 98 98 93 75 60 57 53 50 53 52 56 60 58 57 60 55 63 66 69 74 74 78 79 80 76 76 80 77 75 79 82 85 89
92 85 99 95 96 97 96 94 94 97 100 97 100 99 99 99 99 98 99 100 100 85 80 62 60 59 60 60 56 56 56 59 61 64 63 65 72 72 72 72 79 82 81 80 80 81 81 79 77 79 85 86 85 89
88 91 100 100 98 96 93 95 90 96 99 95 98 99 99 98 98 97 98 98 92 87 63 64 62 62 63 58 60 63 64 66 66 60 58 61 62 69 76 78 77 84 85 81 80 86 85 79 78 80 83 88 91 92
85 99 98 97 95 98 98 97 98 98 93 96 98 100 100 99 99 100 97 92 58 63 62 64 65 67 63 66 70 65 62 61 68 68 68 75 78 72 69 75 74 74 78 79 86 85 82 79 76 84 88 92 93 92
98 99 98 97 100 99 93 98 98 95 98 94 100 100 95 98 98 100 99 82 70 58 58 58 61 63 64 58 56 56 54 60 64 65 61 65 71 74 76 72 70 69 73 88 88 83 82 82 83 89 91 90 92 88
97 98 95 92 98 94 95 99 96 98 98 100 99 96 100 99 100 90 88 59 53 58 60 60 58 56 59 60 63 60 55 52 63 71 64 61 68 74 79 78 76 67 66 83 81 82 80 76 77 85 88 87 85 85
97 97 97 88 89 93 96 92 89 97 100 97 94 100 99 97 95 84 60 72 58 70 60 59 61 62 59 54 50 50 52 57 64 57 48 52 60 65 72 75 72 62 56 77 77 75 78 78 79 82 84 85 88 90
97 95 96 98 99 98 96 100 97 95 90 90 89 93 93 88 67 46 56 64 68 62 65 61 59 59 57 55 53 52 55 55 58 65 89 79 73 69 68 70 70 71 74 72 72 74 79 82 86 87 90 92 90 87
96 91 89 100 100 100 97 89 89 87 73 87 86 66 63 45 45 50 47 50 56 64 63 59 56 55 60 63 64 67 69 70 72 76 77 76 71 66 67 77 82 80 79 81 77 77 81 89 90 91 92 93 90 89
100 92 93 100 100 98 90 88 89 77 82 64 64 73 55 55 53 52 58 58 63 64 62 62 62 66 69 70 70 67 65 69 77 76 79 79 73 66 69 79 74 74 79 90 85 81 75 86 90 94 95 95 94 93
94 95 95 96 92 89 74 82 85 67 82 90 75 76 67 62 54 53 55 55 59 62 66 69 70 70 73 74 76 77 76 68 69 71 72 72 72 72 72 72 72 75 86 90 88 86 88 94 96 94 94 94 95 90
100 96 95 97 92 88 91 89 93 94 92 90 71 84 68 80 74 59 51 58 66 70 70 70 73 71 67 68 69 70 70 68 69 70 77 74 72 73 74 74 76 81 92 92 90 89 95 96 93 95 95 94 95 94
100 100 100 97 92 86 94 80 88 96 95 86 66 63 68 75 81 78 86 78 62 64 70 68 73 75 76 77 72 70 68 68 69 70 72 73 72 74 78 80 82 89 93 92 90 92 96 96 96 96 96 96 95 96

GFSWCAN_sfc_rhum_123.txt.gz
RH
79 82 87 92 92 90 87 86 87 92 93 86 82 82 81 82 78 82 94 94 79 78 74 80 75 76 81 72 53 57 64 66 81 64 60 65 64 64 68 69 87 92 96 96 89 96 63 58 57 44 31 48 47 51
80 83 87 92 93 91 85 87 88 93 94 92 86 81 80 81 79 75 81 93 90 82 68 89 88 86 82 73 62 80 50 67 71 67 77 72 68 84 65 42 80 62 64 72 76 67 51 60 51 52 52 52 53 54
82 83 88 92 93 92 85 87 88 92 94 90 89 84 78 78 78 79 96 98 92 87 74 79 86 80 72 79 79 71 83 77 79 76 79 78 65 68 65 65 62 58 64 63 55 57 52 45 50 53 51 50 50 59
82 83 88 93 93 93 89 88 89 92 93 92 91 88 81 79 79 83 94 97 95 93 81 75 76 84 78 76 77 78 75 87 85 85 81 79 66 65 62 59 60 49 62 59 59 47 53 49 58 65 64 66 67 66
83 84 88 92 94 94 91 90 91 93 92 90 86 91 85 82 76 86 95 96 94 84 83 87 85 82 85 82 81 84 81 85 89 86 90 84 88 83 93 90 92 64 53 52 55 50 61 61 62 65 65 60 59 72
84 85 87 92 95 94 92 90 92 92 88 90 80 87 90 84 83 89 90 88 92 91 89 94 88 88 86 88 89 89 91 92 92 85 89 91 86 85 91 85 69 75 65 62 65 70 66 65 70 71 70 63 61 69
84 86 88 91 95 95 92 91 93 94 92 88 82 87 90 83 91 94 92 88 83 93 91 92 95 89 87 90 94 94 92 96 93 93 94 94 93 92 94 95 71 70 70 72 75 73 56 69 59 66 70 62 64 72
86 86 88 91 96 96 91 91 93 93 90 86 87 92 88 86 87 94 95 85 90 93 92 96 94 91 87 93 94 97 96 95 95 95 97 96 94 96 99 86 81 80 75 75 76 74 70 68 69 60 61 64 71 67
88 88 88 92 96 95 92 92 92 90 88 90 93 89 87 92 96 96 80 84 95 89 96 94 98 92 90 97 96 95 95 96 96 97 97 94 96 98 88 81 81 80 76 71 73 63 59 63 64 65 66 66 72 67
90 88 91 93 95 94 92 91 90 88 89 92 90 96 97 97 82 81 87 91 95 96 97 94 98 98 92 96 97 96 96 98 99 94 96 96 95 84 77 78 80 79 76 70 64 69 67 71 70 68 69 71 76 78
91 92 94 96 96 93 91 89 87 91 87 94 99 98 98 82 91 94 98 95 95 94 97 97 96 98 94 94 96 94 97 97 94 92 94 88 96 83 76 67 66 59 66 62 65 64 66 71 74 72 71 72 74 74
96 97 98 97 95 93 92 92 92 94 96 91 92 89 91 92 98 96 99 97 97 93 95 98 97 97 96 95 96 97 97 94 94 94 95 91 88 77 71 66 65 64 72 63 69 63 64 65 71 76 79 76 73 73
97 98 96 95 94 92 91 92 90 86 85 90 92 98 94 98 99 99 92 92 92 95 99 99 99 96 96 94 97 96 97 94 94 97 91 93 80 72 70 68 70 71 75 73 71 72 72 75 76 81 80 76 80 81
95 95 94 94 92 92 92 93 89 90 91 95 94 99 92 99 97 94 93 94 94 97 99 93 99 98 96 97 95 98 90 89 96 97 96 93 78 70 70 75 79 74 74 79 80 76 76 80 82 84 83 82 86 81
88 88 88 88 89 93 95 93 92 95 93 98 95 95 99 91 97 96 97 98 97 96 97 96 98 94 99 98 87 92 98 96 90 94 94 90 75 72 72 72 77 78 78 82 80 82 81 82 83 82 84 86 88 82
89 88 91 88 90 90 95 94 96 95 98 95 97 96 91 95 98 99 100 98 97 96 98 97 97 96 99 95 96 90 91 89 89 95 95 86 79 78 78 76 77 78 81 78 77 76 78 86 84 75 76 80 82 82
77 96 80 78 83 92 88 94 96 96 96 97 97 93 95 97 97 97 95 96 98 99 99 98 98 94 95 97 98 96 91 91 93 95 96 82 78 79 82 83 84 83 83 86 87 87 86 78 82 88 87 75 77 80
94 89 78 80 86 84 95 96 95 96 99 99 97 98 98 89 92 94 95 97 97 98 97 96 94 100 99 96 96 92 97 96 95 89 82 84 87 87 74 72 66 75 81 83 86 83 83 88 87 86 84 82 82 82
92 86 79 78 80 91 96 99 94 95 97 98 97 96 94 91 90 90 92 96 95 94 95 99 99 100 96 94 92 93 93 94 83 63 64 66 70 70 69 77 81 84 84 81 78 73 70 72 77 79 79 80 87 85
78 81 79 74 72 93 99 100 97 95 99 96 98 99 98 97 95 95 96 98 98 98 99 97 96 81 86 73 81 70 63 60 71 70 64 54 54 72 75 75 68 68 73 74 78 74 77 80 82 80 80 84 90 89
87 88 83 88 99 94 95 98 97 97 98 98 99 98 98 98 100 100 99 99 100 100 98 93 81 64 62 53 50 53 55 63 63 61 60 61 53 59 65 66 78 76 77 76 77 75 75 81 77 75 79 82 81 81
96 82 98 91 95 97 95 96 94 98 98 99 100 98 100 100 98 98 99 100 99 94 90 70 62 63 61 58 54 58 61 65 67 66 63 62 69 68 68 70 76 81 81 81 77 78 78 76 76 78 82 83 81 84
86 93 98 98 95 93 92 97 90 95 99 99 98 99 97 98 99 97 100 99 96 90 78 69 61 62 65 60 65 69 68 68 66 63 60 59 58 62 68 69 71 80 82 77 76 83 85 77 77 79 80 80 84 88
88 97 99 99 95 94 98 98 98 99 97 96 94 99 100 100 98 100 97 93 77 80 81 70 71 68 65 70 74 68 64 62 66 66 63 65 72 68 63 66 66 70 76 76 78 81 81 80 78 79 79 85 88 90
98 99 97 98 100 97 97 99 98 96 94 89 98 100 98 99 98 100 99 86 89 67 64 72 75 68 67 62 57 56 53 58 63 64 58 61 65 66 69 67 64 62 70 82 82 83 84 83 82 80 81 90 91 90
96 97 95 93 99 93 91 98 97 97 97 99 100 98 100 99 100 92 91 84 64 66 66 66 58 58 59 59 60 57 52 49 69 68 61 58 60 66 73 72 69 62 62 74 79 82 84 82 81 78 77 81 82 83
97 97 98 92 90 91 96 92 90 97 100 97 94 100 100 99 93 82 75 87 75 77 64 60 62 62 59 53 48 48 48 52 59 53 48 51 54 56 66 71 69 59 52 59 80 79 77 75 74 75 77 81 90 89
97 96 95 98 99 97 99 99 95 93 86 86 89 100 91 87 79 65 77 80 72 68 76 67 68 63 61 60 56 55 57 57 60 63 63 66 70 69 67 65 63 64 64 65 68 71 73 76 79 79 83 87 88 87
97 93 92 97 98 99 93 91 90 88 70 83 85 85 80 76 67 77 59 59 82 88 81 67 60 65 68 67 66 68 72 75 80 83 83 80 73 69 67 69 72 76 78 78 73 72 78 85 85 86 87 89 90 90
98 95 95 97 95 94 89 84 85 82 82 74 71 82 68 63 54 53 77 62 66 66 65 65 67 73 73 72 72 70 69 72 75 80 85 81 74 67 70 76 78 78 78 85 87 86 82 83 87 93 95 94 96 93
96 96 96 96 95 90 84 91 88 69 86 92 90 80 63 61 54 52 56 58 62 66 69 70 71 72 75 76 79 81 79 73 80 76 75 72 72 76 79 76 76 78 80 90 93 90 86 91 94 94 94 93 94 90
100 95 94 96 92 92 95 92 94 92 94 98 73 95 94 91 90 53 68 61 67 70 69 69 75 73 69 71 73 75 72 74 76 75 78 78 81 81 94 89 83 82 84 94 95 90 91 95 95 95 93 96 95 94
98 99 99 97 94 87 93 85 91 95 97 98 88 79 82 84 80 77 86 80 74 66 65 65 68 70 74 79 78 80 76 81 83 79 81 86 84 81 79 81 83 83 88 90 90 91 98 97 96 95 96 96 95 95

GFSWCAN_sfc_rhum_126.txt.gz
RH
81 79 79 82 88 90 90 89 87 87 93 90 83 81 81 82 76 68 78 79 61 58 52 62 54 54 58 49 38 52 56 58 55 43 36 38 38 38 42 44 60 58 65 66 64 68 52 40 43 33 32 37 39 37
82 80 80 81 85 90 90 89 89 89 93 92 88 82 79 81 79 70 65 80 73 61 57 73 70 68 63 52 42 62 41 50 46 40 46 44 45 46 39 26 53 45 44 44 47 39 39 41 37 38 39 42 43 44
84 80 79 81 85 90 91 87 88 90 94 91 89 87 79 78 78 73 80 83 73 68 61 64 68 61 59 62 64 54 61 59 59 56 49 48 45 43 39 38 35 43 47 44 46 41 43 33 38 39 42 46 44 43
88 84 81 82 86 89 92 88 88 90 93 91 89 88 84 80 79 77 77 84 76 68 64 60 63 66 62 63 62 63 59 68 64 63 58 53 44 46 37 42 38 36 46 43 41 36 37 38 39 48 50 47 45 46
90 88 85 84 85 89 93 91 90 91 93 93 92 91 87 82 73 78 80 79 78 67 67 66 70 67 69 67 65 69 68 68 65 71 70 61 60 55 64 65 57 42 37 34 31 37 43 43 43 50 46 44 45 49
90 88 86 85 86 89 94 93 91 92 94 91 85 87 90 85 83 76 79 74 80 74 79 76 72 72 71 71 74 75 74 72 68 63 66 68 71 65 69 60 50 50 42 37 44 45 47 46 49 47 48 47 46 49
90 89 86 86 88 89 94 94 91 92 90 90 85 87 91 84 85 86 80 77 81 80 77 87 84 74 72 73 76 74 76 77 70 73 76 70 73 77 75 69 55 52 49 53 52 49 44 45 42 47 47 46 49 51
91 89 86 85 89 90 95 94 92 93 93 90 87 93 86 84 84 86 84 80 81 77 79 98 92 79 74 75 75 80 78 76 78 76 79 79 78 82 88 65 56 59 52 52 49 50 47 48 46 46 49 48 47 44
91 90 87 86 89 90 95 94 92 94 92 90 93 89 84 84 89 87 79 80 82 78 91 95 95 91 77 86 82 80 79 82 82 82 81 83 81 93 70 64 64 55 46 48 48 43 42 46 49 49 50 47 49 45
92 91 90 89 90 89 95 94 94 92 91 94 91 92 95 88 82 80 80 80 87 87 87 90 88 94 77 82 83 81 81 81 94 79 82 89 83 70 62 61 57 58 52 48 51 58 56 60 53 49 51 51 53 54
93 92 91 91 92 91 95 94 93 92 93 96 98 96 93 81 81 83 93 91 88 92 90 90 87 90 81 84 80 80 89 87 93 85 89 81 82 71 63 65 61 45 41 44 45 48 49 53 56 55 53 53 56 58
93 93 92 92 92 94 95 95 94 92 95 90 92 89 90 89 95 94 96 91 90 86 93 90 90 83 83 80 81 86 90 88 92 85 88 87 73 66 54 53 50 46 47 48 49 51 51 52 52 58 59 60 60 58
94 94 94 93 93 95 95 94 89 91 87 94 94 99 95 98 98 98 92 91 91 90 97 96 97 84 85 79 86 85 95 88 80 90 86 76 68 61 54 53 54 60 58 59 56 55 56 58 60 61 62 63 60 58
95 94 94 93 94 95 94 93 93 91 94 99 100 98 96 97 90 88 77 85 83 88 92 85 94 86 82 88 81 97 84 81 93 92 88 73 66 56 54 54 56 50 56 72 78 70 71 79 75 73 71 65 62 62
95 95 96 96 95 94 93 94 91 95 98 100 100 97 97 82 91 88 92 93 94 84 87 88 91 79 92 93 81 88 96 96 82 82 76 74 61 55 53 54 56 56 55 56 57 69 79 80 80 75 70 68 67 65
96 94 98 96 96 96 96 90 94 97 100 100 99 97 90 92 98 98 98 96 92 86 88 85 93 96 95 90 92 93 89 88 80 85 75 61 60 60 60 61 61 58 56 57 56 58 60 64 67 67 63 66 68 68
88 99 96 95 95 93 87 96 99 100 99 98 98 95 93 94 93 88 80 83 82 89 94 94 97 94 92 94 91 79 86 79 82 80 75 69 64 61 64 65 66 66 63 64 63 65 69 65 70 80 79 62 64 70
97 96 92 90 90 92 99 100 98 98 97 97 95 97 93 85 88 89 89 92 96 95 92 94 87 97 97 93 87 80 83 87 83 74 66 63 60 60 66 64 60 62 65 73 80 78 79 83 81 72 72 71 72 74
96 96 92 86 87 96 99 99 96 96 97 95 94 93 90 88 87 83 87 86 86 82 92 95 97 99 87 79 80 85 85 80 59 46 48 54 60 58 62 70 75 74 75 73 68 60 56 59 62 66 67 68 73 71
90 88 80 73 77 94 98 99 97 95 96 94 94 96 92 90 88 88 92 93 95 96 97 97 84 73 71 62 76 69 68 64 59 56 51 45 42 61 69 67 58 59 60 61 64 65 65 65 62 64 69 71 74 74
91 87 81 86 96 92 96 98 97 96 96 94 97 93 97 97 97 97 100 94 98 99 96 84 76 64 60 50 46 58 56 59 54 52 52 55 47 51 55 58 64 60 64 65 64 62 63 63 60 60 65 67 67 67
96 81 95 88 96 94 96 94 96 96 93 98 97 94 99 99 98 97 97 99 98 89 83 72 67 60 59 56 56 58 56 56 58 61 62 59 62 62 61 63 69 74 74 74 68 66 63 59 60 62 65 67 69 71
84 89 97 94 92 89 98 95 94 93 95 100 96 96 96 98 97 94 99 97 90 82 77 73 61 61 61 60 68 68 64 64 61 58 55 54 54 60 66 64 61 75 77 70 65 68 71 65 64 66 68 69 69 71
80 91 95 98 93 99 96 98 94 96 94 95 95 98 99 98 94 99 97 88 74 72 77 73 65 64 59 69 65 57 57 58 63 62 58 58 64 58 52 52 48 52 61 60 63 66 64 62 66 66 68 73 73 75
90 91 90 100 98 96 99 98 98 93 93 93 96 98 97 96 98 100 100 89 81 65 58 64 67 63 57 52 51 52 51 55 57 57 51 50 51 53 58 57 50 49 54 70 70 70 71 70 71 75 75 76 79 82
97 97 96 94 97 91 94 98 98 96 89 97 97 94 98 98 100 94 86 82 59 60 56 62 58 56 59 58 54 50 46 46 61 62 56 52 54 62 71 68 66 59 52 60 69 73 73 71 72 76 75 76 74 76
97 98 99 84 87 86 93 90 86 93 100 100 98 100 100 98 94 79 69 74 67 72 65 56 58 56 50 44 43 47 49 53 64 53 47 51 54 54 64 69 67 57 51 58 62 65 68 69 71 72 74 74 73 76
97 97 96 98 97 96 99 99 97 98 92 87 89 100 95 85 74 74 72 73 70 70 71 70 66 60 57 54 54 53 57 58 64 71 69 67 65 67 68 65 64 66 67 67 68 69 71 72 74 75 77 79 79 77
98 92 87 98 99 98 93 88 89 84 74 86 86 85 83 74 80 70 55 72 88 87 77 57 53 63 72 76 74 74 74 74 78 87 86 79 73 72 69 72 75 75 76 78 74 74 77 80 86 84 83 83 82 85
97 93 92 96 96 96 90 85 90 89 81 76 76 78 73 70 64 79 79 67 80 65 59 61 64 72 74 75 75 72 72 78 79 80 83 80 75 68 72 75 76 77 80 84 94 92 83 82 87 93 93 91 92 93
97 96 96 94 94 91 90 91 90 71 86 92 91 84 65 73 58 52 57 57 60 65 71 73 73 76 79 78 80 80 79 75 78 78 76 75 76 78 78 80 82 91 95 97 97 95 92 93 95 95 95 93 94 89
100 97 95 100 95 93 94 96 97 93 96 95 76 94 94 92 90 74 70 70 69 79 69 69 76 72 68 72 71 72 70 69 80 83 85 82 83 83 87 89 94 96 95 94 97 97 96 96 96 95 94 94 93 92
98 99 100 98 96 92 95 89 94 93 96 98 90 87 84 80 76 71 84 81 70 61 61 64 68 68 69 73 71 70 71 77 81 77 78 80 79 80 83 92 96 94 92 90 94 93 96 96 96 95 95 94 94 95

GFSWCAN_sfc_rhum_129.txt.gz
RH
85 83 81 80 81 84 88 91 89 85 85 91 87 82 81 82 77 67 66 68 62 48 45 49 44 42 44 38 29 50 50 52 50 44 31 28 29 27 32 30 44 46 53 53 47 53 54 34 36 31 33 33 35 34
88 85 83 81 81 84 89 91 90 87 88 90 92 86 81 81 79 67 59 65 60 57 59 61 62 57 58 53 39 49 43 40 36 37 37 33 34 33 27 24 38 40 33 33 37 33 33 33 33 34 37 37 38 39
92 89 86 84 82 83 85 92 91 88 88 90 90 88 84 79 78 75 66 67 63 56 56 57 60 55 51 54 54 49 45 48 47 51 42 40 43 33 30 28 27 33 37 37 39 33 37 33 34 38 38 41 41 41
91 92 90 87 83 84 87 91 91 88 89 90 88 88 88 79 77 75 64 69 68 57 59 59 53 57 54 53 55 56 54 56 54 52 50 47 41 38 31 37 33 33 39 34 34 32 31 34 38 38 38 37 37 39
85 92 92 89 85 84 87 92 92 90 91 91 89 90 89 80 71 68 68 65 67 69 65 58 61 60 58 57 58 59 58 58 54 60 63 57 51 46 47 54 44 34 31 35 28 29 34 37 36 39 37 37 38 42
82 86 94 91 88 86 87 92 93 92 92 93 92 90 91 81 74 72 73 68 70 69 75 72 65 63 62 59 61 63 64 60 58 56 56 50 61 58 59 50 36 35 31 29 33 38 40 38 38 38 39 40 39 43
81 84 90 92 90 88 87 92 94 92 93 93 90 86 92 86 79 81 76 78 78 73 74 84 85 69 66 65 66 66 66 64 60 62 68 59 61 66 66 59 40 40 37 42 44 37 38 36 39 40 42 41 43 41
79 83 89 93 90 88 88 91 94 92 92 91 88 93 89 83 83 84 76 76 76 70 72 100 94 79 71 70 74 72 72 71 73 66 70 71 70 74 81 51 49 48 46 46 40 39 38 40 40 42 43 42 42 37
78 82 84 90 91 90 89 93 94 93 92 92 94 88 86 84 82 81 78 75 75 75 93 92 98 96 73 76 73 74 71 79 75 75 74 77 72 90 63 53 52 52 46 44 43 40 39 41 43 41 41 39 41 41
77 81 85 88 92 90 90 94 95 94 94 94 91 88 95 87 82 79 76 77 81 82 81 90 83 92 74 75 75 75 72 72 93 72 76 85 77 61 55 54 50 47 44 44 55 59 59 61 42 38 39 40 42 45
78 83 86 89 93 91 90 93 95 96 95 97 99 95 96 81 76 81 92 91 84 92 83 80 82 87 72 82 74 70 89 81 92 86 83 78 76 61 54 53 53 38 37 40 41 44 44 44 46 46 44 43 47 49
79 82 87 89 93 92 92 94 96 93 96 90 91 91 91 89 95 98 97 89 92 83 85 85 84 76 77 71 74 80 88 85 90 79 87 87 69 61 56 54 39 37 40 43 44 44 42 43 41 47 49 51 53 55
82 84 87 89 93 92 92 95 92 91 85 94 94 100 99 100 99 98 96 89 89 84 95 95 96 81 80 75 79 82 92 89 70 89 83 71 64 47 45 47 52 59 59 55 48 50 51 53 58 59 57 56 54 51
88 88 87 91 93 93 94 95 92 88 93 100 100 99 98 97 89 85 71 87 85 89 92 87 93 86 76 84 78 94 77 74 89 92 83 66 62 48 46 48 44 36 47 69 76 68 69 80 74 71 70 62 59 57
90 88 89 94 93 94 95 93 88 92 98 100 100 98 98 80 88 89 96 91 90 84 88 90 90 75 88 93 76 83 94 92 79 78 75 74 58 49 46 49 46 44 42 44 44 62 78 80 79 73 67 63 59 59
91 92 95 93 94 95 94 93 94 97 100 100 100 99 82 90 96 95 99 97 91 87 88 87 91 95 92 87 91 90 85 85 79 88 74 57 54 52 49 50 51 47 48 48 47 48 51 56 60 60 56 59 61 62
94 99 95 95 96 94 89 96 99 100 100 99 98 84 82 89 90 86 76 81 79 89 96 95 97 89 91 92 89 77 85 85 88 83 76 68 63 55 55 53 54 57 54 53 52 55 59 57 63 77 78 62 59 61
99 98 95 95 91 91 99 100 100 100 97 97 92 93 86 76 79 79 83 84 92 97 95 99 86 95 89 86 81 79 84 94 88 79 68 63 51 47 52 54 55 57 60 70 78 78 80 81 81 75 70 68 69 69
98 94 90 85 86 98 99 99 100 96 96 94 95 96 96 92 85 81 88 94 96 81 90 94 92 92 82 77 83 93 92 82 56 48 42 46 51 52 58 68 75 74 75 74 70 63 58 57 58 58 60 61 64 62
97 97 98 94 90 99 98 99 100 92 95 96 96 98 96 93 90 97 96 92 91 97 91 93 76 65 66 61 77 76 72 65 52 48 44 37 32 51 69 73 63 60 58 59 61 60 58 58 55 56 59 62 64 66
90 90 88 92 100 97 97 98 97 97 97 95 97 97 96 91 94 96 98 91 95 94 89 70 56 50 60 46 40 52 50 53 45 39 37 45 39 45 50 54 60 54 57 58 58 55 58 57 55 54 56 55 55 58
94 79 92 91 97 98 97 97 96 94 92 95 94 90 95 95 95 96 95 97 95 84 73 61 58 56 60 56 51 57 50 51 51 52 53 54 58 59 59 60 64 70 70 66 57 55 53 51 51 51 53 54 57 58
78 84 96 94 94 93 98 93 92 91 93 96 93 91 93 94 95 92 97 92 86 73 70 71 63 61 59 56 63 63 60 59 55 51 47 46 46 54 61 59 56 69 70 64 60 61 64 60 57 57 56 59 61 63
75 92 92 94 92 97 93 95 87 90 91 90 90 92 94 94 91 95 89 86 72 68 73 73 66 60 57 66 64 54 52 54 55 55 52 52 58 49 43 43 40 43 51 52 56 58 57 54 56 55 56 63 66 69
81 88 90 99 96 92 93 93 94 86 92 90 90 91 92 93 93 98 91 86 82 64 58 60 63 60 53 44 43 44 45 52 53 54 46 45 45 46 51 50 44 44 52 67 65 63 64 62 63 65 66 69 72 75
95 93 92 90 95 86 89 95 94 91 88 94 91 92 93 90 94 87 81 82 58 56 57 60 56 54 53 52 49 44 40 44 57 58 51 48 51 59 69 66 64 59 53 59 66 67 66 64 66 70 69 70 70 72
99 97 93 73 76 78 83 83 78 86 94 93 92 96 93 95 91 76 65 67 65 75 70 63 61 57 48 44 42 41 44 51 63 49 42 48 53 54 65 69 68 58 54 61 65 67 69 70 73 72 76 75 74 74
92 90 95 93 89 84 93 91 94 94 87 79 82 99 93 82 72 72 72 76 71 85 84 80 71 62 59 55 52 49 54 56 62 69 68 67 67 69 70 68 67 69 70 71 72 72 75 78 92 90 87 88 84 78
94 86 83 99 97 92 89 86 86 77 65 80 83 80 81 69 77 76 72 78 84 82 79 71 61 72 75 72 70 73 76 75 77 82 83 78 70 70 77 77 78 78 78 79 74 73 77 80 94 96 96 94 88 86
96 90 91 96 95 94 86 76 84 83 71 69 69 72 69 67 69 79 77 78 81 77 70 68 68 72 72 72 73 71 72 77 80 79 82 78 70 68 88 85 83 82 82 83 84 89 86 86 85 89 94 95 95 95
89 91 93 90 94 89 88 86 82 67 79 88 84 82 64 72 62 56 60 60 69 74 75 74 72 76 80 79 80 80 78 72 76 77 76 72 72 74 76 79 82 85 86 87 91 94 93 94 93 94 95 95 94 93
94 96 95 99 95 91 87 92 93 92 91 92 90 91 89 86 86 76 74 78 76 71 66 67 72 68 65 69 70 71 69 68 71 76 84 79 76 77 79 82 87 90 88 92 91 93 93 93 94 95 94 95 96 96
96 94 96 95 95 92 91 89 88 90 91 91 87 86 86 80 78 70 78 74 58 57 56 61 65 67 71 76 74 73 70 74 76 72 73 74 74 80 89 97 98 97 94 94 94 90 90 91 92 91 94 95 95 95

GFSWCAN_sfc_rhum_132.txt.gz
RH
91 89 86 84 80 78 80 89 91 89 84 84 91 88 84 84 82 81 83 78 84 79 64 60 55 56 55 53 48 67 67 69 71 70 53 48 51 46 54 58 69 69 81 80 70 75 66 43 46 46 46 50 46 48
95 91 88 87 85 80 81 86 90 90 88 86 88 88 84 82 82 76 83 72 68 85 79 68 70 66 68 66 61 63 56 54 60 63 58 54 53 49 42 44 57 60 51 57 57 61 48 45 50 50 46 46 50 53
89 92 93 88 86 85 82 84 88 90 89 87 85 88 86 80 78 79 88 85 84 80 81 76 76 66 57 62 62 70 64 60 60 71 70 67 60 52 53 47 45 49 51 51 45 53 51 47 49 49 52 52 53 54
86 88 91 93 89 87 87 85 86 89 89 88 85 87 88 81 75 73 86 85 88 84 85 82 58 69 64 62 64 67 66 67 65 73 73 72 63 51 54 51 49 49 53 50 50 48 43 46 51 48 48 47 47 50
79 84 87 90 93 91 90 88 86 90 90 89 89 88 91 82 70 77 85 83 80 89 93 82 70 72 67 66 69 71 70 71 78 86 88 82 73 63 61 73 71 48 48 52 50 42 47 53 51 46 48 49 50 54
72 75 83 88 90 93 91 89 88 92 92 91 90 89 92 81 71 86 92 85 82 85 94 97 78 80 74 73 75 81 76 77 80 80 84 76 74 78 83 74 49 42 41 49 47 52 49 48 48 48 47 49 50 56
74 75 77 82 87 90 94 92 92 93 93 92 92 92 92 84 88 92 90 89 82 87 90 97 98 81 79 81 82 84 82 88 88 85 89 80 81 84 88 86 52 51 44 57 53 46 52 53 54 50 52 52 51 52
74 74 76 79 83 86 93 93 94 95 93 93 92 93 91 84 86 92 89 80 83 86 87 99 98 90 81 86 92 87 91 90 90 92 89 87 89 91 97 71 61 53 56 56 50 52 50 52 52 55 55 54 58 50
72 73 74 76 80 83 87 95 94 96 95 95 94 90 91 90 92 94 77 76 90 89 100 99 98 98 84 90 89 90 90 96 92 94 92 91 92 98 81 66 65 64 63 56 53 52 52 55 54 51 52 48 51 51
70 70 72 74 77 82 85 92 94 96 96 95 94 96 100 94 81 81 87 92 96 94 95 99 96 98 89 90 89 92 91 95 98 93 93 94 88 75 68 66 66 58 56 57 66 68 70 67 50 51 53 51 54 57
69 70 70 72 76 81 83 90 95 96 96 99 99 98 98 81 87 89 99 98 96 96 89 94 95 97 84 96 93 85 92 93 95 97 92 89 94 77 69 68 59 54 54 55 56 56 53 52 55 55 55 54 57 61
71 71 70 72 74 79 82 88 96 94 97 91 93 92 94 97 99 98 98 97 94 94 93 95 95 90 91 87 91 94 95 92 94 89 89 88 92 74 71 66 52 53 56 56 55 55 55 55 57 60 63 64 66 67
74 73 72 73 73 78 82 87 94 92 85 95 97 100 99 100 99 98 98 99 98 96 98 97 98 95 94 91 94 93 98 91 88 90 86 92 82 61 62 66 71 72 65 59 59 61 60 62 64 67 68 67 68 66
76 76 76 75 77 77 80 86 94 87 93 99 99 99 98 98 96 94 92 92 96 94 95 94 98 96 91 95 92 97 87 84 94 91 94 94 76 64 65 62 59 54 55 71 72 64 67 78 75 71 74 70 68 65
76 77 79 81 82 84 84 87 92 88 97 99 100 98 98 93 98 99 97 97 98 88 94 97 98 94 99 98 96 98 97 96 88 92 96 92 73 64 64 59 56 56 51 52 53 69 76 78 82 79 76 77 75 71
80 83 85 82 82 83 85 90 94 97 100 100 100 100 94 93 97 98 96 96 95 90 96 97 98 99 98 98 97 95 94 93 92 97 96 78 68 63 61 60 60 57 56 58 58 57 59 64 69 71 70 71 67 67
89 95 85 84 84 87 88 98 99 100 99 99 99 97 93 92 92 89 82 96 86 92 98 98 98 94 99 98 99 90 94 95 97 98 93 75 72 68 68 67 67 67 65 66 66 66 69 64 76 84 81 68 69 71
97 91 89 87 90 91 99 100 100 99 98 99 97 92 88 88 88 88 95 88 92 99 98 98 95 98 97 95 96 93 96 98 97 90 80 78 72 60 61 65 65 67 71 80 84 85 87 89 88 83 78 76 80 82
96 94 89 88 85 98 99 99 100 98 99 99 97 91 91 94 91 88 88 96 99 97 94 99 98 98 95 91 95 99 98 95 79 70 67 59 61 61 66 74 82 84 85 84 82 76 72 71 69 66 65 67 72 69
99 97 89 80 81 99 98 99 100 96 98 98 98 97 96 98 99 93 97 99 99 99 99 99 93 84 81 84 95 94 88 83 77 71 66 59 53 66 74 80 80 76 79 80 80 72 72 73 69 69 69 70 74 73
98 100 100 98 100 98 98 99 98 98 98 97 98 97 98 99 98 99 99 99 99 98 96 88 70 62 70 55 65 71 67 71 68 60 52 58 53 57 71 83 85 81 79 72 70 65 61 61 58 58 64 60 60 63
100 98 100 99 98 99 98 98 97 98 97 98 98 98 98 98 98 98 99 98 98 94 87 74 70 70 70 67 64 68 62 64 66 66 61 63 74 85 80 76 87 79 76 71 68 66 62 60 60 61 63 63 62 62
88 97 99 98 96 96 98 99 97 98 96 97 98 97 97 97 98 97 98 97 95 91 80 77 74 67 64 63 63 64 66 66 70 69 64 60 62 73 76 78 71 78 76 69 79 72 71 63 62 61 59 61 62 63
75 95 96 97 96 97 98 97 97 97 97 97 96 96 98 98 98 99 96 96 86 88 87 81 91 77 74 76 87 68 79 81 81 82 72 73 80 62 55 55 49 52 64 62 73 66 64 59 59 60 62 67 69 72
85 97 92 96 98 95 96 96 96 94 96 96 91 97 99 99 99 100 96 91 95 83 78 89 86 78 66 61 63 60 65 74 79 75 60 76 64 63 64 58 51 48 72 79 71 71 73 70 73 74 73 74 75 76
99 99 93 95 95 90 95 96 96 95 95 96 97 98 99 98 97 88 89 91 79 83 81 74 70 80 79 70 58 59 59 70 72 71 57 65 71 67 72 71 68 62 70 72 76 81 77 74 75 76 75 75 74 76
98 98 97 79 80 81 87 87 83 91 95 94 97 98 97 92 92 80 86 90 88 91 87 82 75 72 67 65 74 66 67 82 76 68 59 55 72 74 74 69 66 55 60 83 83 83 78 76 78 79 81 80 83 89
99 94 96 98 95 96 95 97 96 94 97 91 88 98 86 80 75 85 84 89 86 92 92 92 86 80 76 70 72 80 83 86 87 89 90 79 76 76 75 70 67 66 67 70 77 83 85 84 86 86 86 90 88 86
98 92 91 100 98 97 95 91 91 92 76 88 87 91 88 87 91 91 90 91 94 91 85 86 73 90 85 90 90 86 88 92 89 86 88 83 77 80 89 82 80 81 83 85 79 77 82 85 86 95 95 96 97 98
99 97 96 98 96 95 93 90 94 95 90 81 81 90 91 92 90 92 91 94 90 85 78 75 68 90 82 91 80 79 92 90 88 84 86 82 77 82 92 89 88 86 88 91 89 91 83 85 87 89 89 90 91 92
98 98 97 97 97 97 98 98 92 76 89 95 94 94 91 90 87 89 78 81 80 81 89 82 86 93 88 86 89 86 84 87 84 83 82 81 81 81 80 80 80 82 86 88 90 92 95 96 94 94 92 93 94 93
99 99 98 100 97 96 97 98 99 98 98 99 97 98 96 93 90 87 90 89 91 91 80 82 90 78 81 78 86 86 70 86 89 89 85 87 82 81 82 81 82 83 86 93 96 98 97 96 95 94 93 92 92 96
98 98 98 99 97 94 95 93 95 94 96 98 96 96 94 90 81 79 91 88 77 75 72 75 77 81 87 84 85 87 79 91 93 77 73 73 73 77 80 85 96 98 96 96 98 96 96 95 96 93 92 93 94 94